[[{"header":{"parameterUnit":"m.s-1","parameterCategory":1,"la1":31.0,"la2":29.5877,"lo1":-88.7671,"lo2":-86.6584,"dy":0.0162,"dx":0.0185,"nx":115,"ny":88,"refTime":"2026-03-09T12:00:00:Z","depth":0,"parameterNumber":2,"parameterNumberName":"U-component_of_WINDS"},"data":[0.0,0.0,0.0,0.0,0.0,0.0,0.0,0.0,0.0,0.0,0.0,0.0,0.0,0.0,0.0,0.0,0.0,0.0,0.0,0.0,0.0,0.0,0.0,0.0,0.0,0.0,0.0,0.0,0.0,0.0,0.0,0.0,0.0,0.0,0.0,0.0,0.0,0.0,0.0,0.0,0.0,0.0,0.0,0.0,0.0,0.0,0.0,0.0,0.0,0.0,0.0,0.0,0.0,0.0,0.0,0.0,0.0,0.0,0.0,0.0,0.0,0.0,0.0,0.0,0.0,0.0,0.0,0.0,0.0,0.0,0.0,0.0,0.0,0.0,0.0,0.0,0.0,0.0,0.0,0.0,0.0,0.0,0.0,0.0,0.0,0.0,0.0,0.0,0.0,0.0,0.0,0.0,0.0,0.0,0.0,0.0,0.0,0.0,0.0,0.0,0.0,0.0,0.0,0.0,0.0,0.0,0.0,0.0,0.0,0.0,0.0,0.0,0.0,0.0,0.0,0.0,0.0,0.0,0.0,0.0,0.0,0.0,0.0,0.0,0.0,0.0,0.0,0.0,0.0,0.0,0.0,0.0,0.0,0.0,0.0,0.0,0.0,0.0,0.0,0.0,0.0,0.0,0.0,0.0,0.0,0.0,0.0,0.0,0.0,0.0,0.0,0.0,0.0,0.0,0.0,0.0,0.0,0.0,0.0,0.0,0.0,0.0,0.0,0.0,0.0,0.0,0.0,0.0,0.0,0.0,0.0,0.0,0.0,0.0,0.0,0.0,0.0,0.0,0.0,0.0,0.0,0.0,0.0,0.0,0.0,0.0,0.0,0.0,0.0,0.0,0.0,0.0,0.0,0.0,0.0,0.0,0.0,0.0,0.0,0.0,0.0,0.0,0.0,0.0,0.0,0.0,0.0,0.0,0.0,0.0,0.0,0.0,0.0,0.0,0.0,0.0,0.0,0.0,0.0,0.0,0.0,0.0,0.0,0.0,0.0,0.0,0.0,0.0,0.0,0.0,0.0,0.0,0.0,0.0,0.0,0.0,0.0,0.0,0.0,0.0,0.0,0.0,0.0,0.0,0.0,0.0,0.0,0.0,0.0,0.0,0.0,0.0,0.0,0.0,0.0,0.0,0.0,0.0,0.0,0.0,0.0,0.0,0.0,0.0,0.0,0.0,0.0,0.0,0.0,0.0,0.0,0.0,0.0,0.0,0.0,0.0,0.0,0.0,0.0,0.0,0.0,0.0,0.0,0.0,0.0,0.0,0.0,0.0,0.0,0.0,0.0,0.0,0.0,0.0,0.0,0.0,0.0,0.0,0.0,0.0,0.0,0.0,0.0,0.0,0.0,0.0,0.0,0.0,0.0,0.0,0.0,0.0,0.0,0.0,0.0,0.0,0.0,0.0,0.0,0.0,0.0,0.0,0.0,0.0,0.0,0.0,0.0,0.0,0.0,0.0,0.0,0.0,0.0,0.0,0.0,0.0,0.0,0.0,0.0,0.0,0.0,0.0,0.0,0.0,0.0,0.0,0.0,0.0,0.0,0.0,0.0,0.0,0.0,0.0,0.0,0.0,0.0,0.0,0.0,0.0,0.0,0.0,0.0,0.0,0.0,0.0,0.0,0.0,0.0,0.0,0.0,0.0,0.0,0.0,0.0,0.0,0.0,0.0,0.0,0.0,0.0,0.0,0.0,0.0,0.0,0.0,0.0,0.0,0.0,0.0,0.0,0.0,0.0,0.0,0.0,0.0,0.0,0.0,0.0,0.0,0.0,0.0,0.0,0.0,0.0,0.0,0.0,0.0,0.0,0.0,0.0,0.0,0.0,0.0,0.0,0.0,0.0,0.0,0.0,0.0,0.0,0.0,0.0,0.0,0.0,0.0,0.0,0.0,0.0,0.0,0.0,0.0,0.0,0.0,0.0,0.0,0.0,0.0,0.0,0.0,0.0,0.0,0.0,0.0,0.0,0.0,0.0,0.0,0.0,0.0,0.0,0.0,0.0,0.0,0.0,0.0,0.0,0.0,0.0,0.0,0.0,0.0,0.0,0.0,0.0,0.0,0.0,0.0,0.0,0.0,0.0,0.0,0.0,0.0,0.0,0.0,0.0,0.0,0.0,0.0,0.0,0.0,0.0,0.0,0.0,0.0,0.0,0.0,0.0,0.0,0.0,0.0,0.0,0.0,0.0,0.0,0.0,0.0,0.0,0.0,0.0,0.0,0.0,0.0,0.0,0.0,0.0,0.0,0.0,0.0,0.0,0.0,0.0,0.0,0.0,0.0,0.0,0.0,0.0,0.0,0.0,0.0,0.0,0.0,0.0,0.0,0.0,0.0,0.0,0.0,0.0,0.0,0.0,0.0,0.0,0.0,0.0,0.0,0.0,0.0,0.0,0.0,0.0,0.0,0.0,0.0,0.0,0.0,0.0,0.0,0.0,0.0,0.0,0.0,0.0,0.0,0.0,0.0,0.0,0.0,0.0,0.0,0.0,0.0,0.0,0.0,0.0,0.0,0.0,0.0,0.0,0.0,0.0,0.0,0.0,0.0,0.0,0.0,0.0,0.0,0.0,0.0,0.0,0.0,0.0,0.0,0.0,0.0,0.0,0.0,0.0,0.0,0.0,0.0,0.0,0.0,0.0,0.0,0.0,0.0,0.0,0.0,0.0,0.0,0.0,0.0,0.0,0.0,0.0,0.0,0.0,0.0,0.0,0.0,0.0,0.0,0.0,0.0,0.0,0.0,0.0,0.0,0.0,0.0,0.0,0.0,0.0,0.0,0.0,0.0,0.0,0.0,0.0,0.0,0.0,0.0,0.0,0.0,0.0,0.0,0.0,0.0,0.0,0.0,0.0,0.0,0.0,0.0,0.0,0.0,0.0,0.0,0.0,0.0,0.0,0.0,0.0,0.0,0.0,0.0,0.0,0.0,0.0,0.0,0.0,0.0,0.0,0.0,0.0,0.0,0.0,0.0,0.0,0.0,0.0,0.0,0.0,0.0,0.0,0.0,0.0,0.0,0.0,0.0,0.0,0.0,0.0,0.0,0.0,0.0,0.0,0.0,0.0,0.0,0.0,0.0,0.0,0.0,0.0,0.0,0.0,0.0,0.0,0.0,0.0,0.0,0.0,0.0,0.0,0.0,0.0,0.0,0.0,0.0,0.0,0.0,0.0,0.0,0.0,0.0,0.0,0.0,0.0,0.0,0.0,0.0,0.0,0.0,0.0,0.0,0.0,0.0,0.0,0.0,0.0,0.0,0.0,0.0,0.0,0.0,0.0,0.0,0.0,0.0,0.0,0.0,0.0,0.0,0.0,0.0,0.0,0.0,0.0,0.0,0.0,0.0,0.0,0.0,0.0,0.0,0.0,0.0,0.0,0.0,0.0,0.0,0.0,0.0,0.0,0.0,0.0,0.0,0.0,0.0,0.0,0.0,0.0,0.0,0.0,0.0,0.0,0.0,0.0,0.0,0.0,0.0,0.0,0.0,0.0,0.0,0.0,0.0,0.0,0.0,0.0,0.0,0.0,0.0,0.0,0.0,0.0,0.0,0.0,0.0,0.0,0.0,0.0,0.0,0.0,0.0,0.0,0.0,0.0,0.0,0.0,0.0,0.0,0.0,0.0,0.0,0.0,0.0,0.0,0.0,0.0,0.0,0.0,0.0,0.0,0.0,0.0,0.0,0.0,0.0,0.0,0.0,0.0,0.0,0.0,0.0,0.0,0.0,0.0,0.0,0.0,0.0,0.0,0.0,0.0,0.0,0.0,0.0,0.0,0.0,0.0,0.0,0.0,0.0,0.0,0.0,0.0,0.0,0.0,0.0,0.0,0.0,0.0,0.0,0.0,0.0,0.0,0.0,0.0,0.0,0.0,0.0,0.0,0.0,0.0,0.0,0.0,0.0,0.0,0.0,0.0,0.0,0.0,0.0,0.0,0.0,0.0,0.0,0.0,0.0,0.0,0.0,0.0,0.0,0.0,0.0,0.0,0.0,0.0,0.0,0.0,0.0,0.0,0.0,0.0,0.0,0.0,0.0,0.0,0.0,0.0,0.0,0.0,0.0,0.0,0.0,0.0,0.0,0.0,0.0,0.0,0.0,0.0,0.0,0.0,0.0,0.0,0.0,0.0,0.0,0.0,0.0,0.0,0.0,0.0,0.0,0.0,0.0,0.0,0.0,0.0,0.0,0.0,0.0,0.0,0.0,0.0,0.0,0.0,0.0,0.0,0.0,0.0,0.0,0.0,0.0,0.0,0.0,0.0,0.0,0.0,0.0,-1.2683,0.0,0.0,0.0,0.0,0.0,0.0,0.0,0.0,0.0,0.0,0.0,0.0,0.0,0.0,0.0,0.0,0.0,0.0,0.0,0.0,0.0,0.0,0.0,0.0,0.0,0.0,0.0,0.0,0.0,0.0,0.0,0.0,0.0,0.0,0.0,0.0,0.0,0.0,0.0,0.0,0.0,0.0,0.0,0.0,0.0,0.0,0.0,0.0,0.0,0.0,0.0,0.0,0.0,0.0,0.0,0.0,0.0,0.0,0.0,0.0,0.0,0.0,0.0,0.0,0.0,0.0,0.0,0.0,0.0,0.0,0.0,0.0,0.0,0.0,0.0,0.0,0.0,0.0,0.0,0.0,0.0,0.0,0.0,0.0,0.0,0.0,0.0,0.0,0.0,0.0,0.0,0.0,0.0,0.0,0.0,0.0,0.0,0.0,0.0,0.0,0.0,0.0,0.0,0.0,0.0,0.0,0.0,0.0,0.0,0.0,-1.386,-1.3832,-1.3104,-1.2469,-1.2028,0.0,0.0,0.0,0.0,0.0,0.0,0.0,0.0,0.0,0.0,0.0,0.0,0.0,0.0,0.0,0.0,0.0,0.0,0.0,0.0,0.0,0.0,0.0,0.0,0.0,0.0,0.0,0.0,0.0,0.0,0.0,0.0,0.0,0.0,0.0,0.0,0.0,0.0,0.0,0.0,0.0,0.0,0.0,0.0,0.0,0.0,0.0,0.0,0.0,0.0,0.0,0.0,0.0,0.0,0.0,0.0,0.0,0.0,0.0,0.0,0.0,0.0,0.0,0.0,0.0,0.0,0.0,0.0,0.0,0.0,0.0,0.0,0.0,0.0,0.0,0.0,0.0,0.0,0.0,0.0,0.0,0.0,0.0,0.0,0.0,0.0,0.0,0.0,0.0,0.0,0.0,0.0,0.0,0.0,0.0,0.0,0.0,0.0,0.0,0.0,0.0,0.0,0.0,0.0,0.0,0.0,0.0,0.0,0.0,0.0,0.0,0.0,-1.3084,-1.2639,-1.2022,0.0,0.0,0.0,0.0,0.0,0.0,0.0,0.0,0.0,0.0,0.0,0.0,0.0,0.0,0.0,0.0,0.0,0.0,0.0,0.0,0.0,0.0,0.0,0.0,0.0,0.0,0.0,0.0,0.0,0.0,0.0,0.0,0.0,0.0,0.0,0.0,0.0,0.0,0.0,0.0,0.0,0.0,0.0,0.0,0.0,0.0,0.0,0.0,0.0,0.0,0.0,0.0,0.0,0.0,0.0,0.0,0.0,0.0,0.0,0.0,0.0,0.0,0.0,0.0,0.0,0.0,0.0,0.0,0.0,0.0,0.0,0.0,0.0,0.0,0.0,0.0,0.0,0.0,0.0,0.0,0.0,0.0,0.0,0.0,0.0,0.0,0.0,0.0,0.0,0.0,0.0,0.0,0.0,0.0,0.0,0.0,0.0,0.0,0.0,0.0,0.0,0.0,0.0,0.0,0.0,0.0,0.0,0.0,0.0,0.0,-1.2695,-1.4865,-1.419,0.0,-1.369,0.0,0.0,0.0,0.0,0.0,0.0,0.0,0.0,0.0,0.0,0.0,0.0,0.0,0.0,0.0,0.0,0.0,0.0,0.0,0.0,0.0,0.0,0.0,0.0,0.0,0.0,0.0,0.0,0.0,0.0,0.0,0.0,0.0,0.0,0.0,0.0,0.0,0.0,0.0,0.0,0.0,0.0,0.0,0.0,0.0,0.0,0.0,0.0,0.0,0.0,0.0,0.0,0.0,0.0,0.0,0.0,0.0,0.0,0.0,0.0,0.0,0.0,0.0,0.0,0.0,0.0,0.0,0.0,0.0,0.0,0.0,0.0,0.0,0.0,0.0,0.0,0.0,0.0,0.0,0.0,0.0,0.0,0.0,0.0,0.0,0.0,0.0,0.0,0.0,0.0,0.0,0.0,0.0,0.0,0.0,0.0,0.0,0.0,0.0,0.0,0.0,0.0,0.0,0.0,0.0,0.0,0.0,0.0,0.0,0.0,0.0,-1.3717,-1.3387,-1.3404,0.0,0.0,0.0,0.0,0.0,0.0,0.0,0.0,0.0,0.0,0.0,0.0,0.0,0.0,0.0,0.0,0.0,0.0,0.0,0.0,0.0,0.0,0.0,0.0,0.0,0.0,0.0,0.0,0.0,0.0,0.0,0.0,0.0,0.0,0.0,0.0,0.0,0.0,0.0,0.0,0.0,0.0,0.0,0.0,0.0,0.0,0.0,0.0,0.0,0.0,0.0,0.0,0.0,0.0,0.0,0.0,0.0,0.0,0.0,0.0,0.0,0.0,0.0,0.0,0.0,0.0,0.0,0.0,0.0,0.0,0.0,0.0,0.0,0.0,0.0,0.0,0.0,0.0,0.0,0.0,0.0,0.0,0.0,0.0,0.0,0.0,0.0,0.0,0.0,0.0,0.0,0.0,0.0,0.0,0.0,0.0,0.0,0.0,0.0,0.0,0.0,0.0,0.0,0.0,0.0,0.0,0.0,0.0,0.0,0.0,-1.2863,0.0,-1.339,-1.3159,-1.3197,-1.3558,0.0,0.0,0.0,0.0,0.0,0.0,0.0,0.0,0.0,0.0,0.0,0.0,0.0,0.0,0.0,0.0,0.0,0.0,0.0,0.0,0.0,0.0,0.0,0.0,0.0,0.0,0.0,0.0,0.0,0.0,0.0,0.0,0.0,0.0,0.0,0.0,0.0,0.0,0.0,0.0,0.0,0.0,0.0,0.0,0.0,0.0,0.0,0.0,0.0,0.0,0.0,0.0,0.0,0.0,0.0,0.0,0.0,0.0,0.0,0.0,0.0,0.0,0.0,0.0,0.0,0.0,0.0,0.0,0.0,0.0,0.0,0.0,0.0,0.0,0.0,0.0,0.0,0.0,0.0,0.0,0.0,0.0,0.0,0.0,0.0,0.0,0.0,0.0,0.0,0.0,0.0,0.0,0.0,0.0,0.0,0.0,0.0,0.0,0.0,0.0,0.0,0.0,0.0,0.0,0.0,0.0,0.0,0.0,0.0,-1.3486,-1.3505,-1.4981,-1.4264,-1.3519,0.0,0.0,0.0,0.0,0.0,0.0,0.0,0.0,0.0,0.0,0.0,0.0,0.0,0.0,0.0,0.0,0.0,0.0,0.0,0.0,0.0,0.0,0.0,0.0,0.0,0.0,0.0,0.0,0.0,0.0,0.0,0.0,0.0,0.0,0.0,0.0,0.0,0.0,0.0,0.0,0.0,0.0,0.0,0.0,0.0,0.0,0.0,0.0,0.0,0.0,0.0,0.0,0.0,0.0,0.0,0.0,0.0,0.0,0.0,0.0,0.0,0.0,0.0,0.0,0.0,0.0,0.0,0.0,0.0,0.0,0.0,0.0,0.0,0.0,0.0,0.0,0.0,0.0,0.0,0.0,0.0,0.0,0.0,0.0,0.0,0.0,0.0,0.0,0.0,0.0,0.0,0.0,0.0,0.0,0.0,0.0,0.0,0.0,0.0,0.0,0.0,0.0,0.0,0.0,0.0,0.0,0.0,0.0,0.0,-1.1817,-1.2413,-1.3777,-1.5849,-1.4157,-1.3253,0.0,0.0,0.0,0.0,0.0,0.0,0.0,0.0,0.0,0.0,0.0,0.0,0.0,0.0,0.0,0.0,0.0,0.0,0.0,0.0,0.0,0.0,0.0,0.0,0.0,0.0,0.0,0.0,0.0,0.0,0.0,0.0,0.0,0.0,0.0,0.0,0.0,0.0,0.0,0.0,0.0,0.0,0.0,0.0,0.0,0.0,0.0,0.0,0.0,0.0,0.0,0.0,0.0,0.0,0.0,0.0,0.0,0.0,0.0,0.0,0.0,0.0,0.0,0.0,0.0,0.0,0.0,0.0,0.0,0.0,0.0,0.0,0.0,0.0,0.0,0.0,0.0,0.0,0.0,0.0,0.0,0.0,0.0,0.0,0.0,0.0,0.0,0.0,0.0,0.0,0.0,0.0,0.0,0.0,0.0,0.0,0.0,0.0,0.0,0.0,0.0,0.0,0.0,0.0,0.0,0.0,0.0,0.0,0.0,-1.1226,0.0,-1.4214,0.0,-1.3755,-1.2676,0.0,0.0,0.0,0.0,0.0,0.0,0.0,0.0,0.0,0.0,0.0,0.0,0.0,0.0,0.0,0.0,0.0,0.0,0.0,0.0,0.0,0.0,0.0,0.0,0.0,0.0,0.0,0.0,0.0,0.0,0.0,0.0,0.0,0.0,0.0,0.0,0.0,0.0,0.0,0.0,0.0,0.0,0.0,0.0,0.0,0.0,0.0,0.0,0.0,0.0,0.0,0.0,0.0,0.0,0.0,0.0,0.0,0.0,0.0,0.0,0.0,0.0,0.0,0.0,0.0,0.0,0.0,0.0,0.0,0.0,0.0,0.0,0.0,0.0,0.0,0.0,0.0,0.0,0.0,0.0,0.0,0.0,0.0,0.0,0.0,0.0,0.0,0.0,0.0,0.0,0.0,0.0,0.0,0.0,0.0,0.0,0.0,0.0,0.0,0.0,0.0,0.0,0.0,0.0,0.0,0.0,0.0,0.0,-1.1184,-1.3609,-1.4608,-1.4728,-1.3956,-1.314,-1.1908,0.0,0.0,0.0,0.0,0.0,0.0,0.0,0.0,0.0,0.0,0.0,0.0,0.0,0.0,0.0,0.0,0.0,0.0,0.0,0.0,0.0,0.0,0.0,0.0,0.0,0.0,0.0,0.0,0.0,0.0,0.0,0.0,0.0,0.0,0.0,0.0,0.0,0.0,0.0,0.0,0.0,0.0,0.0,0.0,0.0,0.0,0.0,0.0,0.0,0.0,0.0,0.0,0.0,0.0,0.0,0.0,0.0,0.0,0.0,0.0,0.0,0.0,0.0,0.0,0.0,0.0,0.0,0.0,0.0,0.0,0.0,0.0,0.0,0.0,0.0,0.0,0.0,0.0,0.0,0.0,0.0,0.0,0.0,0.0,0.0,0.0,0.0,0.0,0.0,0.0,0.0,0.0,0.0,0.0,0.0,0.0,0.0,0.0,0.0,0.0,0.0,0.0,0.0,0.0,0.0,0.0,0.0,0.0,0.0,-1.2093,-1.3528,-1.4456,-1.4728,-1.2849,-1.2079,0.0,0.0,0.0,0.0,0.0,0.0,0.0,0.0,0.0,0.0,0.0,0.0,0.0,0.0,0.0,0.0,0.0,0.0,0.0,0.0,0.0,0.0,0.0,0.0,0.0,0.0,0.0,0.0,0.0,0.0,0.0,0.0,0.0,0.0,0.0,0.0,0.0,0.0,0.0,0.0,0.0,0.0,0.0,0.0,0.0,0.0,0.0,0.0,0.0,0.0,0.0,0.0,0.0,0.0,0.0,0.0,0.0,0.0,0.0,0.0,0.0,0.0,0.0,0.0,0.0,0.0,0.0,0.0,0.0,0.0,0.0,0.0,0.0,0.0,0.0,0.0,0.0,0.0,0.0,0.0,0.0,0.0,0.0,0.0,0.0,0.0,0.0,0.0,0.0,0.0,0.0,0.0,0.0,0.0,0.0,0.0,0.0,0.0,0.0,0.0,0.0,0.0,0.0,0.0,0.0,0.0,0.0,0.0,0.0,-1.2794,-1.4394,-1.5269,-1.5195,-1.3654,-1.2868,-1.2923,0.0,0.0,0.0,0.0,0.0,0.0,0.0,0.0,0.0,0.0,0.0,0.0,0.0,0.0,0.0,0.0,0.0,0.0,0.0,0.0,0.0,0.0,0.0,0.0,0.0,0.0,0.0,0.0,0.0,0.0,0.0,0.0,0.0,0.0,0.0,0.0,0.0,0.0,0.0,0.0,0.0,0.0,0.0,0.0,0.0,0.0,0.0,0.0,0.0,0.0,0.0,0.0,0.0,0.0,0.0,0.0,0.0,0.0,0.0,0.0,0.0,0.0,0.0,0.0,0.0,0.0,0.0,0.0,0.0,0.0,0.0,0.0,0.0,0.0,0.0,0.0,0.0,0.0,0.0,0.0,0.0,0.0,0.0,0.0,0.0,0.0,0.0,0.0,0.0,0.0,0.0,0.0,0.0,0.0,0.0,0.0,0.0,0.0,0.0,0.0,0.0,0.0,0.0,0.0,0.0,0.0,0.0,0.0,-1.5121,-1.6905,-1.708,-1.55,-1.5269,-1.4074,0.0,0.0,0.0,0.0,0.0,0.0,0.0,0.0,0.0,0.0,0.0,0.0,0.0,0.0,0.0,0.0,0.0,0.0,0.0,0.0,0.0,0.0,0.0,0.0,0.0,0.0,0.0,0.0,0.0,0.0,0.0,0.0,0.0,0.0,0.0,0.0,0.0,0.0,0.0,0.0,0.0,0.0,0.0,0.0,0.0,0.0,0.0,0.0,0.0,0.0,0.0,0.0,0.0,0.0,0.0,0.0,0.0,0.0,0.0,0.0,0.0,0.0,0.0,0.0,0.0,0.0,0.0,0.0,0.0,0.0,0.0,0.0,0.0,0.0,0.0,0.0,0.0,0.0,0.0,0.0,0.0,0.0,0.0,0.0,0.0,0.0,0.0,0.0,0.0,0.0,0.0,0.0,0.0,0.0,0.0,0.0,0.0,0.0,0.0,0.0,0.0,0.0,0.0,0.0,0.0,0.0,0.0,0.0,0.0,-1.678,-1.8643,-1.9115,-1.7997,-1.6173,-1.5192,0.0,0.0,0.0,0.0,0.0,0.0,0.0,0.0,0.0,0.0,0.0,0.0,0.0,0.0,0.0,0.0,0.0,0.0,0.0,0.0,0.0,0.0,0.0,0.0,0.0,0.0,0.0,0.0,0.0,0.0,0.0,0.0,0.0,0.0,0.0,0.0,0.0,0.0,0.0,0.0,0.0,0.0,0.0,0.0,0.0,0.0,0.0,0.0,0.0,0.0,0.0,0.0,0.0,0.0,0.0,0.0,0.0,0.0,0.0,0.0,0.0,0.0,0.0,0.0,0.0,0.0,0.0,0.0,0.0,0.0,0.0,0.0,0.0,0.0,0.0,0.0,0.0,0.0,0.0,0.0,0.0,0.0,0.0,0.0,0.0,0.0,0.0,0.0,0.0,0.0,0.0,0.0,0.0,0.0,0.0,0.0,0.0,0.0,0.0,0.0,0.0,0.0,0.0,0.0,0.0,0.0,0.0,0.0,-1.6292,-1.7879,-1.9488,-2.0077,-1.9554,-1.8115,-1.6885,0.0,0.0,0.0,0.0,0.0,0.0,0.0,0.0,0.0,0.0,0.0,0.0,0.0,0.0,0.0,0.0,0.0,0.0,0.0,0.0,0.0,0.0,0.0,0.0,0.0,0.0,0.0,0.0,0.0,0.0,0.0,0.0,0.0,0.0,0.0,0.0,0.0,0.0,0.0,0.0,0.0,0.0,0.0,0.0,0.0,0.0,0.0,0.0,0.0,0.0,0.0,0.0,0.0,0.0,0.0,0.0,0.0,0.0,0.0,0.0,0.0,0.0,0.0,0.0,0.0,0.0,0.0,0.0,0.0,0.0,0.0,0.0,0.0,0.0,0.0,0.0,0.0,0.0,0.0,0.0,0.0,0.0,0.0,0.0,0.0,0.0,0.0,0.0,0.0,0.0,0.0,0.0,0.0,0.0,0.0,0.0,0.0,0.0,0.0,0.0,0.0,0.0,0.0,0.0,0.0,0.0,0.0,0.0,-1.6971,-1.8593,-1.9709,-2.0288,-2.0288,-2.0212,-1.8692,0.0,0.0,0.0,0.0,0.0,0.0,0.0,0.0,0.0,0.0,0.0,0.0,0.0,0.0,0.0,0.0,0.0,0.0,0.0,0.0,0.0,0.0,0.0,0.0,0.0,0.0,0.0,0.0,0.0,0.0,0.0,0.0,0.0,0.0,0.0,0.0,0.0,0.0,0.0,0.0,0.0,0.0,0.0,0.0,0.0,0.0,0.0,0.0,0.0,0.0,0.0,0.0,0.0,0.0,0.0,0.0,0.0,0.0,0.0,0.0,0.0,0.0,0.0,0.0,0.0,0.0,0.0,0.0,0.0,0.0,0.0,0.0,0.0,0.0,0.0,0.0,0.0,0.0,0.0,0.0,0.0,0.0,0.0,0.0,0.0,0.0,0.0,0.0,0.0,0.0,0.0,0.0,0.0,0.0,0.0,0.0,0.0,0.0,0.0,0.0,0.0,0.0,0.0,0.0,0.0,0.0,0.0,0.0,-1.7044,-1.872,-1.9775,-2.0288,-2.0288,-1.9638,-1.8603,0.0,0.0,0.0,0.0,0.0,0.0,0.0,0.0,0.0,0.0,0.0,0.0,0.0,0.0,0.0,0.0,0.0,0.0,0.0,0.0,0.0,0.0,0.0,0.0,0.0,0.0,0.0,0.0,0.0,0.0,0.0,0.0,0.0,0.0,0.0,0.0,0.0,0.0,0.0,0.0,0.0,0.0,0.0,0.0,0.0,0.0,0.0,0.0,-1.1141,0.0,0.0,0.0,0.0,0.0,0.0,0.0,0.0,0.0,0.0,0.0,0.0,0.0,0.0,0.0,0.0,0.0,0.0,0.0,0.0,0.0,0.0,0.0,0.0,0.0,0.0,0.0,0.0,0.0,0.0,0.0,0.0,0.0,0.0,0.0,0.0,0.0,0.0,0.0,0.0,0.0,0.0,0.0,0.0,0.0,0.0,0.0,0.0,0.0,0.0,0.0,0.0,0.0,0.0,0.0,0.0,0.0,0.0,0.0,-1.7528,-1.9224,-1.9873,-2.0201,-2.0285,-1.985,-1.9007,0.0,0.0,0.0,0.0,0.0,0.0,0.0,0.0,0.0,0.0,0.0,0.0,0.0,0.0,0.0,0.0,0.0,0.0,0.0,0.0,0.0,0.0,0.0,0.0,0.0,0.0,0.0,0.0,0.0,0.0,0.0,0.0,0.0,0.0,0.0,0.0,0.0,0.0,0.0,0.0,0.0,0.0,0.0,0.0,0.0,0.0,0.0,0.0,0.0,0.0,0.0,0.0,0.0,0.0,0.0,0.0,0.0,0.0,0.0,0.0,0.0,0.0,0.0,0.0,0.0,0.0,0.0,0.0,0.0,0.0,0.0,0.0,0.0,0.0,0.0,0.0,0.0,0.0,0.0,0.0,0.0,0.0,0.0,0.0,0.0,0.0,0.0,0.0,0.0,0.0,0.0,0.0,0.0,0.0,0.0,0.0,0.0,0.0,0.0,0.0,0.0,0.0,0.0,0.0,0.0,0.0,0.0,-1.6302,-1.792,-1.9715,-1.9938,-2.0078,-2.0245,-2.0281,-1.9485,-1.7776,0.0,0.0,0.0,0.0,0.0,0.0,0.0,0.0,0.0,0.0,0.0,0.0,0.0,0.0,0.0,0.0,0.0,0.0,0.0,0.0,0.0,0.0,0.0,0.0,0.0,0.0,0.0,0.0,0.0,0.0,0.0,0.0,0.0,0.0,0.0,0.0,0.0,0.0,-0.927,-1.0715,0.0,0.0,0.0,0.0,0.0,0.0,0.0,0.0,-1.1074,0.0,0.0,0.0,0.0,0.0,0.0,0.0,0.0,0.0,0.0,0.0,0.0,0.0,0.0,0.0,0.0,0.0,0.0,0.0,0.0,0.0,0.0,0.0,0.0,0.0,0.0,0.0,0.0,0.0,0.0,0.0,0.0,0.0,0.0,0.0,0.0,0.0,0.0,0.0,0.0,0.0,0.0,0.0,0.0,0.0,0.0,0.0,0.0,0.0,0.0,0.0,0.0,0.0,0.0,0.0,0.0,-1.6697,-1.6334,-1.7296,-1.9715,-1.9938,-2.0022,-2.006,-2.0225,-1.9485,-1.7757,0.0,0.0,0.0,0.0,0.0,0.0,0.0,0.0,0.0,0.0,0.0,0.0,0.0,0.0,0.0,0.0,0.0,0.0,0.0,0.0,0.0,0.0,0.0,0.0,0.0,0.0,0.0,0.0,0.0,0.0,0.0,0.0,0.0,0.0,0.0,0.0,0.0,0.0,0.0,-1.1966,-1.234,0.0,0.0,0.0,0.0,0.0,0.0,0.0,0.0,-1.0911,0.0,0.0,0.0,0.0,0.0,0.0,0.0,0.0,0.0,0.0,0.0,0.0,0.0,0.0,0.0,0.0,0.0,0.0,0.0,0.0,0.0,0.0,0.0,0.0,0.0,0.0,0.0,0.0,0.0,0.0,0.0,0.0,0.0,0.0,0.0,0.0,0.0,0.0,0.0,0.0,0.0,0.0,0.0,0.0,0.0,0.0,0.0,0.0,0.0,0.0,0.0,0.0,0.0,0.0,0.0,-1.5677,-1.6614,-1.7901,-1.962,-1.9819,-1.9938,-1.9988,-1.9771,-1.9038,0.0,0.0,0.0,0.0,0.0,0.0,0.0,0.0,0.0,0.0,0.0,0.0,0.0,0.0,0.0,0.0,0.0,0.0,0.0,0.0,0.0,0.0,0.0,0.0,0.0,0.0,0.0,0.0,0.0,0.0,0.0,0.0,0.0,0.0,0.0,0.0,0.0,0.0,0.0,0.0,-1.2555,-1.2809,-1.2891,0.0,0.0,0.0,0.0,0.0,0.0,-1.1418,-1.1157,0.0,0.0,0.0,0.0,0.0,0.0,0.0,0.0,0.0,0.0,0.0,0.0,0.0,0.0,0.0,0.0,0.0,0.0,0.0,0.0,0.0,0.0,0.0,0.0,0.0,0.0,0.0,0.0,0.0,0.0,0.0,0.0,0.0,0.0,0.0,0.0,0.0,0.0,0.0,0.0,0.0,0.0,0.0,0.0,0.0,0.0,0.0,0.0,0.0,0.0,0.0,0.0,0.0,0.0,0.0,-1.453,-1.6707,-1.8407,-1.9485,-1.9713,-1.9852,-1.9949,-1.9509,-1.8769,0.0,0.0,0.0,0.0,0.0,0.0,0.0,0.0,0.0,0.0,0.0,0.0,0.0,0.0,0.0,0.0,0.0,0.0,0.0,0.0,0.0,0.0,0.0,0.0,0.0,0.0,0.0,0.0,0.0,0.0,0.0,0.0,0.0,0.0,0.0,0.0,0.0,0.0,0.0,0.0,0.0,-1.3649,-1.3827,-1.353,0.0,0.0,0.0,0.0,-1.197,-1.2131,0.0,0.0,0.0,0.0,0.0,0.0,0.0,0.0,0.0,0.0,0.0,0.0,0.0,0.0,0.0,0.0,0.0,0.0,0.0,0.0,0.0,0.0,0.0,0.0,0.0,0.0,0.0,0.0,0.0,0.0,0.0,0.0,0.0,0.0,0.0,0.0,0.0,0.0,0.0,0.0,0.0,0.0,0.0,0.0,0.0,0.0,0.0,0.0,0.0,0.0,0.0,0.0,0.0,0.0,0.0,0.0,-1.4493,-1.6175,-1.7791,-1.925,-1.965,-1.9802,-1.9824,-2.0025,-1.9385,0.0,0.0,0.0,0.0,0.0,0.0,0.0,0.0,0.0,0.0,0.0,0.0,0.0,0.0,0.0,0.0,0.0,0.0,0.0,0.0,0.0,0.0,0.0,0.0,0.0,0.0,0.0,0.0,0.0,0.0,0.0,0.0,0.0,0.0,0.0,0.0,0.0,0.0,0.0,0.0,0.0,-1.5448,-1.325,-1.4135,-1.4425,0.0,0.0,0.0,-1.3628,-1.4268,0.0,0.0,0.0,0.0,0.0,0.0,0.0,0.0,0.0,0.0,0.0,0.0,0.0,0.0,0.0,0.0,0.0,0.0,0.0,0.0,0.0,0.0,0.0,0.0,0.0,0.0,0.0,0.0,0.0,0.0,0.0,0.0,0.0,0.0,0.0,0.0,0.0,0.0,0.0,0.0,0.0,0.0,0.0,0.0,0.0,0.0,0.0,0.0,0.0,0.0,0.0,0.0,0.0,0.0,0.0,-1.382,-1.4543,-1.6988,-1.8592,-1.9275,-1.9625,-1.9809,-1.9809,-1.9657,-1.8757,0.0,0.0,0.0,0.0,0.0,0.0,0.0,0.0,0.0,0.0,0.0,0.0,0.0,0.0,0.0,0.0,0.0,0.0,0.0,0.0,0.0,0.0,0.0,0.0,0.0,0.0,0.0,0.0,0.0,0.0,0.0,0.0,0.0,0.0,0.0,0.0,0.0,0.0,0.0,0.0,0.0,0.0,-1.434,-1.4872,0.0,0.0,0.0,-1.4802,-1.5288,0.0,0.0,0.0,0.0,0.0,0.0,0.0,0.0,0.0,0.0,0.0,0.0,0.0,0.0,0.0,0.0,0.0,0.0,0.0,0.0,0.0,0.0,0.0,0.0,0.0,0.0,0.0,0.0,0.0,0.0,0.0,0.0,0.0,0.0,0.0,0.0,0.0,0.0,0.0,0.0,0.0,0.0,0.0,0.0,0.0,0.0,0.0,0.0,0.0,0.0,0.0,0.0,0.0,0.0,0.0,0.0,0.0,-1.4848,-1.7773,-1.9279,-1.9294,-1.965,-1.9809,-1.9796,-1.9509,0.0,0.0,0.0,0.0,0.0,0.0,0.0,0.0,0.0,0.0,0.0,0.0,0.0,0.0,0.0,0.0,0.0,0.0,0.0,0.0,0.0,0.0,0.0,0.0,0.0,0.0,0.0,-0.5762,0.0,0.0,0.0,0.0,0.0,0.0,0.0,0.0,0.0,0.0,0.0,0.0,0.0,0.0,-1.4872,-1.5296,-1.5848,-1.6167,0.0,0.0,-1.6239,-1.6471,-1.6342,-1.5614,0.0,0.0,0.0,0.0,0.0,0.0,0.0,0.0,0.0,0.0,0.0,0.0,0.0,0.0,0.0,0.0,0.0,0.0,0.0,0.0,0.0,0.0,0.0,0.0,0.0,0.0,0.0,0.0,0.0,0.0,0.0,0.0,0.0,0.0,0.0,0.0,0.0,0.0,0.0,0.0,0.0,0.0,0.0,0.0,0.0,0.0,0.0,0.0,0.0,0.0,0.0,0.0,0.0,0.0,0.0,-1.5674,-1.8048,-1.9279,-1.9305,-1.9625,-1.9809,-1.9815,-2.0078,-1.9038,0.0,0.0,0.0,0.0,0.0,0.0,0.0,0.0,0.0,0.0,0.0,0.0,0.0,0.0,0.0,0.0,0.0,0.0,0.0,0.0,0.0,0.0,0.0,0.0,0.0,0.0,0.0,0.0,0.0,0.0,0.0,0.0,0.0,0.0,0.0,0.0,0.0,0.0,0.0,0.0,0.0,-1.6148,-1.5341,-1.7287,-1.8529,0.0,0.0,-1.8291,-1.675,-1.782,-1.7482,-1.3456,0.0,0.0,0.0,0.0,0.0,0.0,0.0,0.0,0.0,0.0,0.0,0.0,0.0,0.0,0.0,0.0,0.0,0.0,0.0,0.0,0.0,0.0,0.0,0.0,0.0,0.0,0.0,0.0,0.0,0.0,0.0,0.0,0.0,0.0,0.0,0.0,0.0,0.0,0.0,0.0,0.0,0.0,0.0,0.0,0.0,0.0,0.0,0.0,0.0,0.0,0.0,0.0,0.0,-1.4903,-1.571,-1.8085,-1.9279,-1.9305,-1.9557,-1.9707,-1.9809,-2.0002,-1.8992,0.0,0.0,0.0,0.0,0.0,0.0,0.0,0.0,0.0,0.0,0.0,0.0,0.0,0.0,0.0,0.0,0.0,0.0,0.0,0.0,0.0,0.0,0.0,0.0,0.0,0.0,0.0,0.0,-0.7402,-0.7539,-0.8418,0.0,0.0,0.0,0.0,0.0,0.0,0.0,0.0,0.0,0.0,-1.6596,-1.6771,-1.8097,0.0,0.0,-1.8824,-1.8995,-1.8875,-1.8479,-1.7343,-1.4738,-1.371,0.0,0.0,0.0,0.0,0.0,0.0,0.0,0.0,0.0,0.0,0.0,0.0,0.0,0.0,0.0,0.0,0.0,0.0,0.0,0.0,0.0,0.0,0.0,0.0,0.0,0.0,0.0,0.0,0.0,0.0,0.0,0.0,0.0,0.0,0.0,0.0,0.0,0.0,0.0,0.0,0.0,0.0,0.0,0.0,0.0,0.0,0.0,0.0,0.0,0.0,0.0,0.0,-1.5025,-1.6041,-1.8195,-1.9279,-1.9279,-1.9499,-1.9656,-1.9784,-1.9938,-1.8892,0.0,0.0,0.0,0.0,0.0,0.0,0.0,0.0,0.0,0.0,0.0,0.0,0.0,0.0,0.0,0.0,0.0,0.0,0.0,0.0,0.0,0.0,0.0,0.0,0.0,0.0,0.0,0.0,-0.8262,-0.832,-0.8945,0.0,0.0,0.0,0.0,0.0,0.0,0.0,0.0,0.0,0.0,-1.6899,-1.8,-1.8846,-1.9388,-1.9385,-1.9395,-1.9429,-1.9519,-1.874,-1.7402,-1.523,0.0,0.0,0.0,0.0,0.0,0.0,0.0,0.0,0.0,0.0,0.0,0.0,0.0,0.0,0.0,0.0,0.0,0.0,0.0,0.0,0.0,0.0,0.0,0.0,0.0,0.0,0.0,0.0,0.0,0.0,-0.9173,0.0,0.0,0.0,0.0,0.0,0.0,0.0,0.0,0.0,0.0,0.0,0.0,0.0,0.0,0.0,0.0,0.0,0.0,0.0,0.0,0.0,0.0,0.0,-1.6853,-1.8463,-1.9279,-1.9305,-1.9492,-1.9656,-1.9803,-1.9938,-1.8912,-1.6558,0.0,0.0,0.0,0.0,0.0,0.0,0.0,0.0,0.0,0.0,0.0,0.0,0.0,0.0,0.0,0.0,0.0,0.0,0.0,0.0,0.0,0.0,0.0,0.0,0.0,0.0,-1.0195,-0.9492,-0.8984,0.0,0.0,0.0,0.0,0.0,0.0,0.0,0.0,0.0,0.0,-1.5936,-1.7133,-1.8749,-1.9719,-2.0231,-2.025,-2.0269,-1.9683,-1.8127,-1.8498,-1.7899,0.0,0.0,0.0,0.0,0.0,0.0,0.0,0.0,0.0,0.0,0.0,0.0,0.0,0.0,0.0,0.0,0.0,0.0,0.0,0.0,0.0,0.0,0.0,0.0,0.0,0.0,0.0,-1.3337,-1.2708,0.0,0.0,0.0,0.0,0.0,0.0,0.0,0.0,0.0,0.0,0.0,-1.6251,-1.7061,0.0,0.0,0.0,0.0,0.0,0.0,0.0,0.0,0.0,0.0,0.0,0.0,-1.5294,-1.689,-1.8482,-1.9279,-1.9279,-1.9357,-1.9525,-1.9797,-1.9841,-1.8807,-1.6554,0.0,0.0,0.0,0.0,0.0,0.0,0.0,0.0,0.0,0.0,0.0,0.0,0.0,0.0,0.0,0.0,0.0,0.0,0.0,0.0,0.0,0.0,0.0,0.0,0.0,-1.0312,0.0,0.0,0.0,0.0,0.0,0.0,0.0,0.0,0.0,0.0,0.0,-1.4484,-1.5884,-1.726,-1.8563,-1.97,-2.0096,-2.0288,0.0,0.0,0.0,0.0,0.0,0.0,0.0,0.0,0.0,0.0,0.0,0.0,0.0,0.0,-1.6488,-1.3673,-1.2654,-1.2258,-1.226,0.0,0.0,0.0,0.0,0.0,0.0,0.0,0.0,0.0,0.0,0.0,0.0,0.0,0.0,-1.5486,0.0,-1.4744,0.0,0.0,0.0,0.0,0.0,0.0,0.0,0.0,-1.8187,-1.8353,-1.8072,-1.8897,-1.8792,0.0,-1.774,-1.6675,0.0,0.0,0.0,0.0,0.0,0.0,0.0,0.0,-1.5698,-1.7275,-1.8629,-1.9279,-1.9305,-1.9365,-1.955,-1.9784,-1.9606,-1.8834,-1.742,-1.6311,-1.4798,0.0,0.0,0.0,0.0,0.0,0.0,0.0,0.0,0.0,0.0,0.0,0.0,0.0,0.0,0.0,0.0,0.0,0.0,0.0,0.0,0.0,0.0,0.0,-1.0312,0.0,0.0,0.0,0.0,0.0,0.0,0.0,0.0,0.0,-1.2342,-1.4,-1.5752,-1.7183,-1.8323,-1.9351,-2.0181,0.0,0.0,0.0,0.0,0.0,0.0,0.0,-1.8734,-1.7936,-1.7363,-1.6794,-1.623,-1.7314,-1.8097,-1.7501,0.0,0.0,-1.5332,-1.4412,-1.4027,-1.4008,-1.4027,-1.4008,-1.4027,-1.4242,-1.4434,0.0,0.0,0.0,0.0,0.0,0.0,0.0,0.0,-1.8305,-1.7783,0.0,-1.6877,0.0,0.0,0.0,0.0,0.0,0.0,0.0,0.0,-2.0812,-2.1046,-2.0078,-2.0052,-2.0052,-2.0094,-2.1024,-2.0784,-1.9275,-1.5885,0.0,0.0,0.0,0.0,0.0,0.0,-1.6555,-1.8096,-1.8967,-1.9315,-1.9323,-1.9492,-1.9663,-1.9802,-1.9313,-1.9016,-1.8942,-1.744,-1.6206,-1.5362,-1.3775,0.0,0.0,0.0,0.0,0.0,0.0,0.0,0.0,0.0,0.0,0.0,0.0,0.0,0.0,0.0,0.0,0.0,0.0,0.0,0.0,-1.0293,0.0,0.0,0.0,0.0,0.0,0.0,0.0,0.0,0.0,0.0,-1.4233,-1.4863,-1.6212,-1.8645,0.0,0.0,0.0,0.0,-2.0347,-2.0358,-2.0974,-2.0881,-1.9314,-2.0366,-2.055,-1.8288,0.0,0.0,-1.8243,-1.8674,-1.8729,-1.707,-1.7518,-1.8144,-1.8837,-1.7517,-1.6487,-1.6445,-1.641,-1.6506,-1.6545,-1.6872,-1.7449,-2.3307,0.0,0.0,0.0,0.0,-2.0553,-2.0668,-2.1409,-2.0668,-1.9872,-1.9146,-1.9075,0.0,0.0,0.0,0.0,0.0,0.0,-2.0065,-2.1183,-2.1475,-2.1322,-2.0869,-2.1383,-2.1366,-2.0869,-2.1351,-2.1481,-2.1198,-1.9906,-1.7712,-1.4807,0.0,0.0,0.0,0.0,-1.7913,-1.893,-1.974,-1.9877,-1.9323,-1.9499,-1.972,-1.9924,-1.9793,-1.949,-1.9004,-1.8578,-1.7699,-1.6277,-1.5219,0.0,0.0,0.0,0.0,0.0,0.0,0.0,0.0,0.0,0.0,0.0,0.0,0.0,0.0,0.0,0.0,0.0,0.0,0.0,-1.0231,-1.023,-1.0484,0.0,0.0,0.0,0.0,0.0,0.0,0.0,0.0,0.0,-1.6604,-1.7406,-1.8184,0.0,0.0,-2.0977,-2.1185,-2.1266,-2.1301,-2.1284,0.0,0.0,0.0,-1.9915,-1.9825,-1.967,-2.0057,-2.0229,-1.983,-1.9973,-1.9971,-1.943,-1.9558,-1.9789,-1.983,-1.8575,-1.744,-1.7353,-1.7353,-1.735,-1.7372,-1.7564,-1.7718,-2.575,-2.3685,-2.3552,-2.3568,-2.3634,-2.2876,-2.2897,-2.3364,-2.2762,-2.224,-2.1786,-2.1772,-2.0961,-1.9553,-1.9086,0.0,0.0,0.0,-2.1384,-2.2452,-2.2167,-2.1948,-2.1823,-2.2241,-2.2224,-2.1837,-2.2233,-2.2516,-2.2674,-2.2552,-2.0961,-1.8018,0.0,0.0,-1.7619,-1.8243,-1.8977,-1.973,-1.9932,-1.9785,-1.9315,-1.9481,-1.9719,-1.9979,-1.9993,-1.9858,-1.9523,-1.9555,-1.8975,-1.7653,-1.6503,-1.525,0.0,0.0,0.0,0.0,0.0,0.0,0.0,0.0,0.0,0.0,0.0,-1.0506,0.0,0.0,0.0,0.0,-1.0468,-1.0912,-1.12,-1.152,0.0,0.0,0.0,0.0,0.0,0.0,0.0,-1.503,-1.6116,-1.7221,-1.8237,-1.9048,-1.9548,-1.9513,-2.0435,-2.1121,-2.1121,0.0,-2.1214,-2.1196,-2.1033,-2.0795,-2.0449,-2.0294,-2.026,-2.0416,-2.045,-2.0484,-2.0537,-2.0539,-2.054,-2.0539,-2.0514,-2.0483,-2.0462,-1.95,-1.8769,-1.8767,-1.8767,-1.8777,-1.8725,-1.8715,-1.8747,-2.753,-2.6764,-2.6459,-2.5997,-2.5482,-2.5222,-2.4873,-2.4506,-2.4491,-2.4508,-2.4508,-2.4537,-2.3805,-2.2507,-2.1416,0.0,0.0,-2.244,-2.2831,-2.3401,-2.311,-2.2946,-2.2933,-2.2868,-2.2833,-2.2859,-2.3427,-2.3721,-2.3696,-2.4008,-2.3446,-2.1996,-2.1198,-2.0723,-2.0566,-1.9932,-1.9968,-2.0676,-1.9932,-1.9459,-1.9338,-1.9492,-1.9707,-1.9979,-1.9998,-2.0073,-2.0288,-2.0286,-1.9967,-1.9184,-1.7591,-1.6334,-1.5488,0.0,0.0,0.0,0.0,0.0,0.0,0.0,0.0,0.0,0.0,0.0,0.0,0.0,0.0,0.0,-1.1594,0.0,-1.2807,-1.3551,0.0,0.0,0.0,-1.5187,-1.4475,-1.5804,-1.6821,-1.688,0.0,0.0,0.0,0.0,-2.0392,-2.0316,-2.0441,-2.0513,-2.0494,-2.0628,-2.0599,-2.0648,-2.1159,-2.1292,-2.0584,-2.0972,-2.1177,-2.0624,-2.0563,-2.0605,-2.0605,-2.0605,-2.0605,-2.0586,-2.0561,-2.0511,-2.0511,-2.0389,-2.042,-2.0324,-2.0334,-2.0331,-2.0203,-2.0167,-2.0146,-2.9182,-2.8436,-2.8361,-2.7218,-2.5508,-2.5447,-2.507,-2.4506,-2.4508,-2.4508,-2.4521,-2.4834,-2.4893,-2.48,-2.4771,-2.4913,-2.5162,-2.543,-2.547,-2.5409,-2.5321,-2.5146,-2.4885,-2.4282,-2.3987,-2.3977,-2.3797,-2.3721,-2.3732,-2.4054,-2.4016,-2.3621,-2.3419,-2.2703,-2.1565,-2.1914,-2.2217,-2.2419,-2.1629,-2.0655,-1.9576,-1.9416,-1.958,-1.9979,-1.9906,-1.9982,-2.0281,-2.0302,-2.0219,-1.9984,-1.8476,-1.7207,-1.6352,-1.3943,0.0,0.0,0.0,0.0,0.0,0.0,0.0,0.0,0.0,-1.2305,-0.9531,0.0,-1.2324,0.0,-1.2141,-1.2815,-1.3635,-1.3884,0.0,0.0,-1.6025,-1.6459,-1.6955,-1.7369,-1.7877,-1.8541,-1.8962,-1.9444,-2.0109,-2.0317,-2.042,-2.0461,-2.1058,-2.1456,-2.1476,-2.1515,-2.1561,-2.1465,-2.1133,-2.0795,-2.0605,-2.0717,-2.0801,-2.0604,-2.0605,-2.0605,-2.0605,-2.0605,-2.0605,-2.0605,-2.0586,-2.0585,-2.0566,-2.0563,-2.0566,-2.0541,-2.0476,-2.0387,-2.0372,-2.037,-2.0385,-3.0485,-3.0063,-3.0051,-2.9228,-2.7835,-2.6952,-2.6268,-2.5738,-2.5552,-2.5584,-2.5752,-2.5836,-2.6034,-2.6305,-2.6165,-2.6197,-2.6322,-2.6519,-2.649,-2.6329,-2.6168,-2.6009,-2.5798,-2.5374,-2.5147,-2.5141,-2.469,-2.4455,-2.4457,-2.4366,-2.4294,-2.4199,-2.4294,-2.3842,-2.2914,-2.296,-2.3006,-2.3006,-2.2226,-2.122,-2.0067,-1.9985,-2.014,-2.0481,-2.0481,-2.0584,-2.0823,-2.0823,-2.0502,-1.9768,-1.8549,-1.7657,-1.7168,-1.5173,-1.3984,0.0,0.0,0.0,0.0,0.0,0.0,0.0,0.0,0.0,0.0,0.0,-1.3963,0.0,-1.4246,0.0,-1.5613,-1.6056,-1.6519,-1.7122,-1.7849,-1.8334,-1.8461,-1.884,-1.9293,-1.9762,-1.9819,-2.0013,-2.0482,-2.0512,-2.0509,-2.0559,-2.0951,-2.1263,-2.1264,-2.1308,-2.1309,-2.1289,-2.0918,-2.0605,-2.0605,-2.0605,-2.0605,-2.0605,-2.0605,-2.0605,-2.0605,-2.0605,-2.0605,-2.0605,-2.0605,-2.0605,-2.0605,-2.0605,-2.0605,-2.0586,-2.054,-2.0501,-2.0464,-2.0441,-2.0437,-3.1494,-3.1403,-3.1403,-3.1232,-3.0835,-2.904,-2.7968,-2.7409,-2.7022,-2.7067,-2.7417,-2.7148,-2.7168,-2.7387,-2.6771,-2.6631,-2.6914,-2.6924,-2.6914,-2.6903,-2.6609,-2.6475,-2.6457,-2.6367,-2.6312,-2.6299,-2.5816,-2.56,-2.5573,-2.5059,-2.466,-2.4413,-2.4586,-2.4512,-2.421,-2.352,-2.3116,-2.2988,-2.2299,-2.1545,-2.0707,-2.086,-2.1086,-2.1285,-2.1304,-2.1364,-2.1477,-2.1481,-2.0812,-1.9347,-1.8552,-1.8118,-1.8026,-1.6482,-1.5898,0.0,-1.5879,0.0,0.0,0.0,0.0,0.0,0.0,0.0,0.0,-1.5332,-1.6128,-1.672,-1.6869,-1.7276,-1.8055,-1.8736,-1.8882,-1.8369,-1.9577,-2.0197,-1.9521,-2.0115,-2.0586,-2.0586,-2.0585,-2.0586,-2.0585,-2.0605,-2.0605,-2.0605,-2.0625,-2.0684,-2.0625,-2.0644,-2.0664,-2.0605,-2.0605,-2.0605,-2.0605,-2.0605,-2.0605,-2.0605,-2.0605,-2.0605,-2.0605,-2.0605,-2.0605,-2.0605,-2.0605,-2.0605,-2.0605,-2.0605,-2.0605,-2.0605,-2.0586,-2.0586,-2.0537,-2.0512,-2.0485,-3.2008,-3.1403,-3.1403,-3.1359,-3.1252,-3.0595,-2.9538,-2.8251,-2.784,-2.788,-2.8174,-2.8128,-2.831,-2.8637,-2.8503,-2.8501,-2.8546,-2.8546,-2.8565,-2.8528,-2.8482,-2.8448,-2.8411,-2.7782,-2.7482,-2.7449,-2.6883,-2.6609,-2.6609,-2.6507,-2.6106,-2.5427,-2.5446,-2.5121,-2.4481,0.0,0.0,0.0,-2.2841,-2.2432,-2.1764,-2.1772,-2.1949,-2.2288,-2.1662,0.0,-2.1496,-2.1481,-2.107,-2.013,-1.9965,0.0,0.0,0.0,0.0,0.0,0.0,0.0,0.0,0.0,0.0,0.0,-1.6621,-1.6797,-1.6309,-1.7656,-1.8318,-1.7735,-1.83,-1.9029,-1.9809,-1.9451,-1.9409,-1.995,-2.029,-2.0437,-2.0331,-2.0443,-2.0534,-2.0534,-2.0514,-2.0515,-2.0536,-2.0564,-2.0605,-2.0605,-2.0605,-2.0605,-2.0605,-2.0605,-2.0605,-2.0605,-2.0605,-2.0605,-2.0605,-2.0605,-2.0605,-2.0605,-2.0605,-2.0605,-2.0605,-2.0605,-2.0605,-2.0605,-2.0605,-2.0605,-2.0605,-2.0605,-2.0605,-2.0605,-2.0605,-2.0605,-2.0585,-2.0586,-2.0585,-3.2963,0.0,-3.2577,-3.2577,0.0,-3.1973,-3.1181,-3.0222,-2.9444,-2.9308,-2.9638,-2.9808,-3.0008,-3.0155,-2.9769,-2.9574,-2.9574,-2.917,-2.8987,-2.8987,-2.8987,-2.8987,-2.8987,-2.8721,-2.8518,-2.8367,-2.7768,-2.7446,-2.7318,-2.7065,-2.6702,-2.6282,-2.6388,-2.6045,-2.5247,-2.4748,-2.4206,-2.3602,-2.3685,-2.339,-2.2693,-2.279,-2.2988,-2.3176,0.0,0.0,0.0,0.0,0.0,0.0,0.0,0.0,0.0,0.0,0.0,-1.9824,-1.9473,-1.9023,-1.8633,-1.8613,-1.8809,-1.9238,-1.9668,-1.9746,-1.9277,-2.0078,-2.037,-1.9889,-2.0238,-2.0461,-2.0386,-2.0047,-2.0006,-2.0429,-2.0508,-2.0513,-2.0539,-2.0484,-2.0446,-2.0465,-2.048,-2.0508,-2.0508,-2.0543,-2.0605,-2.0605,-2.0605,-2.0605,-2.0605,-2.0605,-2.0605,-2.0605,-2.0605,-2.0605,-2.0605,-2.0605,-2.0605,-2.0605,-2.0605,-2.0605,-2.0605,-2.0605,-2.0605,-2.0605,-2.0605,-2.0605,-2.0605,-2.0605,-2.0605,-2.0605,-2.0605,-2.0605,-2.0605,-2.0605,-2.0605,-3.3829,-3.3868,-3.3815,-3.3807,-3.3733,-3.3109,-3.267,-3.2317,0.0,0.0,0.0,-3.1265,-3.1403,-3.136,-3.0705,-3.0411,-3.0356,-2.9574,-2.9225,-2.9207,-2.9078,-2.9028,-2.9078,-2.9246,-2.9235,-2.9041,-2.8557,-2.8233,-2.8069,-2.7572,-2.728,-2.7203,-2.733,-2.7031,-2.6265,-2.5321,-2.4717,-2.4543,-2.4519,-2.4201,-2.3622,-2.3879,-2.405,-2.4093,-2.4173,-2.4186,-2.4141,-2.4164,-2.3136,-2.0908,-2.0956,-2.0986,-2.0873,-2.0967,-2.168,-2.3047,-2.3125,-2.2812,-2.2168,-2.2129,-2.2109,-2.2129,-2.2109,-2.2051,-2.1934,-2.1914,-2.1874,-2.1825,-2.1823,-2.1483,-2.0732,-2.056,-2.0512,-2.0509,-2.0508,-2.0507,-2.048,-2.0427,-2.0374,-2.0381,-2.0437,-2.0481,-2.048,-2.0542,-2.0605,-2.0605,-2.0605,-2.0605,-2.0605,-2.0605,-2.0605,-2.0605,-2.0605,-2.0605,-2.0605,-2.0605,-2.0605,-2.0605,-2.0605,-2.0605,-2.0605,-2.0605,-2.0605,-2.0605,-2.0605,-2.0605,-2.0605,-2.0605,-2.0605,-2.0605,-2.0605,-2.0605,-2.0605,-2.0605,-2.0605,-3.3923,-3.4123,-3.3889,-3.3807,-3.3788,-3.3678,-3.3615,-3.3401,-3.1614,-3.1007,-3.1352,-3.139,-3.1403,-3.1397,-3.1286,-3.125,-3.1176,-3.0393,-3.0026,0.0,-2.9335,-2.9123,-2.933,-2.9156,-2.9149,-2.9322,-2.9262,-2.9206,-2.9157,-2.9066,-2.8802,-2.8332,-2.8263,-2.7933,-2.7355,-2.6497,-2.5958,-2.572,-2.493,-2.4587,-2.4765,-2.4845,-2.4995,-2.5151,-2.4582,-2.4277,-2.4285,-2.4251,-2.3689,-2.2617,-2.3248,-2.3363,-2.2674,-2.2683,-2.2852,-2.3086,-2.3164,-2.3105,-2.2949,-2.293,-2.2949,-2.3008,-2.2969,-2.2637,-2.1973,-2.1914,-2.1894,-2.1914,-2.1973,-2.1835,-2.1639,-2.1074,-2.066,-2.0569,-2.0527,-2.0498,-2.0501,-2.0444,-2.0402,-2.0385,-2.0366,-2.0441,-2.043,-2.0555,-2.0684,-2.0625,-2.082,-2.0684,-2.0762,-2.0605,-2.0605,-2.0605,-2.0605,-2.0605,-2.0605,-2.0605,-2.0605,-2.0605,-2.0605,-2.0605,-2.0605,-2.0605,-2.0605,-2.0605,-2.0605,-2.0605,-2.0605,-2.0605,-2.0605,-2.0605,-2.0605,-2.0605,-2.0605,-2.0605,-2.0605,-3.4242,-3.4195,-3.4049,-3.3923,-3.3807,-3.3807,-3.3807,-3.3738,-3.2871,-3.2556,-3.2687,-3.2706,-3.2706,-3.2651,-3.2247,-3.2063,-3.2008,-3.1201,-3.0852,-3.0809,-3.0182,-2.9927,-3.0006,-2.9609,-2.9385,-2.9402,-2.9384,-2.933,-2.9211,-2.933,-2.9316,-2.9118,-2.8916,-2.8611,-2.821,-2.7421,-2.6943,-2.6842,-2.5499,-2.4853,-2.5048,-2.5177,-2.5325,-2.5453,-2.5139,-2.4966,-2.4896,-2.4899,-2.4494,-2.3597,-2.3918,-2.3982,-2.3689,-2.3688,-2.3924,-2.4425,-2.4484,-2.4489,-2.4512,-2.4512,-2.4512,-2.4531,-2.4082,-2.3652,-2.3301,-2.3262,-2.3262,-2.3262,-2.3262,-2.3066,-2.2656,-2.2207,-2.1951,-2.1914,-2.1876,-2.1823,-2.1781,-2.1701,-2.1478,-2.1061,-2.1047,-2.093,-2.0467,-2.0924,-2.1289,-2.1328,-2.1641,-2.1914,-2.1889,-2.1562,-2.1113,-2.0703,-2.0605,-2.0605,-2.0605,-2.0605,-2.0605,-2.0605,-2.0605,-2.0605,-2.0605,-2.0605,-2.0605,-2.0605,-2.0605,-2.0605,-2.0605,-2.0605,-2.0605,-2.0605,-2.0605,-2.0605,-2.0605,-2.0605,-2.0605,-3.4994,-3.4596,-3.4708,-3.4488,-3.4064,-3.388,-3.3807,-3.3807,-3.3807,-3.3807,-3.3807,-3.3807,-3.3807,-3.3733,-3.3146,-3.2889,-3.2779,-3.2096,-3.1765,-3.1697,-3.1205,-3.0982,-3.0957,-3.0293,-2.9861,-2.9716,-2.9475,-2.9225,-2.9134,-2.9299,-2.9532,-2.9715,-2.9513,-2.93,-2.9136,-2.8345,-2.7943,-2.7848,-2.6443,-2.5608,-2.5471,-2.5461,-2.5456,-2.5509,-2.5576,-2.5564,-2.5465,-2.5493,-2.5162,-2.4461,-2.4401,-2.4404,-2.4467,-2.4477,-2.4812,-2.5499,-2.5602,-2.5613,-2.5703,-2.5703,-2.5625,-2.541,-2.4785,-2.4414,-2.4414,-2.4414,-2.4297,-2.4141,-2.4004,-2.3769,-2.3242,-2.3105,-2.3123,-2.3095,-2.3042,-2.287,-2.2888,-2.2825,-2.2604,-2.193,-2.1948,-2.1751,-2.1338,-2.167,-2.2129,-2.2266,-2.2734,-2.3084,-2.3011,-2.2534,-2.1855,-2.1133,-2.0723,-2.0605,-2.0605,-2.0605,-2.0605,-2.0605,-2.0605,-2.0605,-2.0605,-2.0605,-2.0605,-2.0605,-2.0605,-2.0605,-2.0605,-2.0605,-2.0605,-2.0605,-2.0605,-2.0605,-2.0605,-2.0605,-2.0605,-3.6461,-3.5867,-3.622,-3.5853,-3.4881,-3.4169,-3.3875,-3.3875,-3.3825,-3.3807,-3.3917,-3.3825,-3.3857,-3.3807,-3.3715,-3.366,-3.3608,-3.3092,-3.2832,-3.2803,-3.2295,-3.218,-3.2262,-3.1139,-3.0619,-3.0678,-2.9728,-2.9351,-2.952,-2.9468,-2.9626,-2.9962,-3.0184,-3.0244,-3.0136,-2.9373,-2.8969,-2.8956,-2.814,-2.7341,-2.6552,-2.5848,-2.5511,-2.5595,-2.564,-2.564,-2.5567,-2.5535,-2.5418,-2.5293,-2.5236,-2.5278,-2.527,-2.5332,-2.5457,-2.5577,-2.5602,-2.5613,-2.5684,-2.5703,-2.5371,-2.4609,-2.4531,-2.4453,-2.4453,-2.4434,-2.4062,-2.3574,-2.3301,-2.3359,-2.3144,-2.3242,-2.332,-2.3265,-2.3186,-2.2951,-2.2964,-2.2859,-2.2853,-2.2795,-2.2872,-2.2927,-2.2713,-2.2867,-2.3006,-2.313,-2.3318,-2.3455,-2.3363,-2.3144,-2.2773,-2.1934,-2.1191,-2.0723,-2.0644,-2.0605,-2.0605,-2.0605,-2.0605,-2.0605,-2.0605,-2.0605,-2.0605,-2.0605,-2.0605,-2.0605,-2.0605,-2.0605,-2.0605,-2.0605,-2.0605,-2.0605,-2.0605,-2.0605,-2.0605,-3.7364,-3.6939,-3.7124,-3.6884,-3.6271,-3.5733,-3.5501,-3.5506,-3.5354,-3.5275,-3.5299,-3.5446,-3.4884,-3.3839,-3.3807,-3.3876,-3.4025,-3.3806,-3.3837,-3.3936,-3.3421,-3.3189,-3.3182,-3.2296,-3.1855,-3.1906,-3.1214,-3.0947,-3.0979,-3.0685,-3.0429,-3.026,-3.0355,-3.0404,-3.0365,-3.0038,-2.9877,-2.9907,-2.9126,-2.8585,-2.8226,-2.7032,-2.6359,-2.6361,-2.5931,-2.5605,-2.5547,-2.5482,-2.5401,-2.5361,-2.5324,-2.5339,-2.5344,-2.5413,-2.5479,-2.5543,-2.5608,-2.5662,-2.5703,-2.5703,-2.5547,-2.5195,-2.5156,-2.5156,-2.5176,-2.5176,-2.5019,-2.4727,-2.4629,-2.4648,-2.4609,-2.4648,-2.4645,-2.4557,-2.4546,-2.4479,-2.4393,-2.4405,-2.4291,-2.3852,-2.3756,-2.3612,-2.3305,-2.3571,-2.404,-2.4419,-2.4624,-2.4568,-2.4553,-2.4194,-2.375,-2.3359,-2.2676,-2.1699,-2.0918,-2.0605,-2.0605,-2.0605,-2.0605,-2.0605,-2.0605,-2.0605,-2.0605,-2.0605,-2.0605,-2.0605,-2.0605,-2.0605,-2.0605,-2.0605,-2.0605,-2.0605,-2.0605,-2.0605,-2.0605,-3.8399,-3.7953,-3.7642,-3.7508,-3.7481,-3.6924,-3.6752,-3.6801,-3.6544,-3.6473,-3.657,-3.6758,-3.6062,-3.4841,-3.4488,-3.4389,-3.4353,-3.4405,-3.4574,-3.4766,-3.4429,-3.4278,-3.4182,-3.336,-3.2943,-3.2855,-3.2377,-3.2211,-3.2253,-3.1958,-3.1403,-3.0853,-3.075,-3.0635,-3.041,-3.0419,-3.0442,-3.044,-2.9881,-2.968,-2.9613,-2.8381,-2.7553,-2.7324,-2.6688,-2.6266,-2.6211,-2.5897,-2.5738,-2.5644,-2.5442,-2.5308,-2.5326,-2.5364,-2.5441,-2.5533,-2.5634,-2.5703,-2.5703,-2.5703,-2.5703,-2.5703,-2.5703,-2.5703,-2.5703,-2.5703,-2.5703,-2.5644,-2.5703,-2.5644,-2.5703,-2.5703,-2.5684,-2.5626,-2.5602,-2.5587,-2.5459,-2.5522,-2.5264,-2.4766,-2.466,-2.4499,-2.4055,-2.4393,-2.4959,-2.5396,-2.5581,-2.5682,-2.5593,-2.5078,-2.4687,-2.4434,-2.3867,-2.2852,-2.1348,-2.1035,-2.0918,-2.0586,-2.0566,-2.0566,-2.0584,-2.0566,-2.0586,-2.0586,-2.0586,-2.0605,-2.0605,-2.0605,-2.0605,-2.0605,-2.0605,-2.0605,-2.0605,-2.0605,-2.0605,-3.9789,-3.8746,-3.7686,-3.7764,-3.8271,-3.7267,-3.6946,-3.7327,-3.6931,-3.6918,-3.7216,-3.7273,-3.7141,-3.6931,-3.6212,-3.5419,-3.4809,-3.4964,-3.5072,-3.5105,-3.5277,-3.5409,-3.5364,-3.4297,-3.3761,-3.3704,-3.294,-3.2515,-3.2649,-3.276,-3.2423,-3.1685,-3.1607,-3.121,-3.0585,-3.0521,-3.0498,-3.0502,-3.0533,-3.0593,-3.0544,-2.984,-2.9043,-2.8379,-2.8113,-2.792,-2.7823,-2.7099,-2.6608,-2.6554,-2.5837,-2.5407,-2.5449,-2.5464,-2.551,-2.5593,-2.5661,-2.5703,-2.5703,-2.5703,-2.5703,-2.5703,-2.5703,-2.5703,-2.5703,-2.5703,-2.5703,-2.5703,-2.5703,-2.5703,-2.5703,-2.5703,-2.5684,-2.5609,-2.5604,-2.5587,-2.5522,-2.5561,-2.5597,-2.5485,-2.5482,-2.541,-2.5469,-2.5605,-2.5545,-2.5615,-2.5661,-2.5683,-2.5615,-2.5582,-2.5254,-2.4727,-2.4316,-2.3789,-2.2266,-2.1641,-2.1309,-2.0952,-2.0736,-2.0514,-2.0511,-2.0508,-2.0541,-2.0566,-2.0586,-2.0605,-2.0605,-2.0605,-2.0605,-2.0605,-2.0605,-2.0605,-2.0605,-2.0605,-2.0605,-4.0284,-3.9912,-3.9491,-3.9485,-3.966,-3.9123,-3.8957,-3.9019,-3.8701,-3.862,-3.8757,-3.8948,-3.8745,-3.8222,-3.8115,-3.7219,-3.5798,-3.5822,-3.5695,-3.5411,-3.5472,-3.55,-3.5455,-3.506,-3.4897,-3.4832,-3.4485,-3.4064,-3.3644,-3.3747,-3.3395,-3.2609,-3.207,-3.1658,-3.1332,-3.0815,-3.0584,-3.0638,-3.0663,-3.0744,-3.0801,-3.0566,-3.0254,-2.9922,-2.8818,-2.8177,-2.8115,-2.7727,-2.752,-2.7505,-2.7172,-2.7059,-2.7076,-2.6629,-2.613,-2.5718,-2.5683,-2.5703,-2.5703,-2.5703,-2.5703,-2.5703,-2.5703,-2.5762,-2.5703,-2.5703,-2.5703,-2.5723,-2.5703,-2.5703,-2.5703,-2.5703,-2.5703,-2.5664,-2.5664,-2.5635,-2.5599,-2.563,-2.5638,-2.561,-2.5644,-2.5703,-2.5703,-2.5703,-2.5684,-2.5662,-2.5684,-2.5684,-2.5664,-2.5703,-2.5547,-2.5332,-2.5195,-2.4844,-2.3769,-2.2461,-2.1719,-2.1367,-2.1069,-2.0716,-2.0577,-2.0505,-2.0511,-2.0543,-2.0566,-2.0605,-2.0605,-2.0605,-2.0605,-2.0605,-2.0605,-2.0605,-2.0605,-2.0605,-2.0605,-4.0496,-4.0496,-4.0496,-4.0496,-4.0473,-4.0213,-4.0148,-4.0186,-3.9893,-3.9819,-3.9934,-4.0139,-3.9878,-3.9437,-3.9599,-3.8831,-3.7332,-3.6999,-3.665,-3.6281,-3.6019,-3.5904,-3.5846,-3.5615,-3.55,-3.5481,-3.55,-3.5181,-3.4717,-3.4693,-3.4299,-3.3541,-3.2983,-3.2599,-3.2233,-3.149,-3.1075,-3.1084,-3.09,-3.0815,-3.0898,-3.0918,-3.0918,-3.0742,-2.9683,-2.9019,-2.8929,-2.8628,-2.8449,-2.8429,-2.818,-2.807,-2.808,-2.7652,-2.7124,-2.6602,-2.6562,-2.6543,-2.6543,-2.6543,-2.6562,-2.6543,-2.6562,-2.6543,-2.6543,-2.6523,-2.6523,-2.6523,-2.6523,-2.6465,-2.6172,-2.6133,-2.6016,-2.5781,-2.5703,-2.5664,-2.5607,-2.5636,-2.5636,-2.5608,-2.5635,-2.5664,-2.5703,-2.5703,-2.5703,-2.5703,-2.5703,-2.5703,-2.5703,-2.5703,-2.5703,-2.5703,-2.5644,-2.541,-2.4727,-2.3711,-2.2754,-2.2305,-2.1562,-2.1117,-2.0864,-2.0732,-2.0572,-2.0573,-2.0563,-2.0585,-2.0605,-2.0605,-2.0605,-2.0605,-2.0605,-2.0605,-2.0605,-2.0605,-2.0605,-4.0496,-4.0496,-4.0496,-4.0496,-4.0465,-4.0251,-4.025,-4.0397,-4.0204,-4.0223,-4.0389,-4.0473,-4.0399,-4.0404,-4.0327,-3.9969,-3.9146,-3.8401,-3.7947,-3.7719,-3.7065,-3.6712,-3.6673,-3.6077,-3.5712,-3.5603,-3.5507,-3.5521,-3.5474,-3.5461,-3.5141,-3.461,-3.4386,-3.3877,-3.3201,-3.2455,-3.2005,-3.1877,-3.1363,-3.0996,-3.0918,-3.0937,-3.0918,-3.0918,-3.0762,-3.0621,-3.056,-2.9832,-2.9408,-2.931,-2.8676,-2.8199,-2.8336,-2.8297,-2.8262,-2.8125,-2.8184,-2.8223,-2.8184,-2.8105,-2.8008,-2.8008,-2.8164,-2.8008,-2.7949,-2.8008,-2.8027,-2.7988,-2.7988,-2.7851,-2.7148,-2.6992,-2.6621,-2.5879,-2.5703,-2.5684,-2.5626,-2.5598,-2.5602,-2.5601,-2.5606,-2.5633,-2.5684,-2.5703,-2.5703,-2.5703,-2.5703,-2.5703,-2.5703,-2.5703,-2.5703,-2.5703,-2.5703,-2.5566,-2.5312,-2.4961,-2.4121,-2.329,-2.2404,-2.1742,-2.1628,-2.1477,-2.1072,-2.0961,-2.057,-2.0577,-2.0564,-2.0566,-2.0605,-2.0605,-2.0605,-2.0605,-2.0605,-2.0605,-2.0605,-4.0496,-4.0496,-4.0496,-4.0496,-4.0489,-4.0406,-4.0422,-4.0489,-4.0397,-4.0433,-4.0489,-4.0496,-4.0496,-4.0496,-4.0496,-4.0362,-4.0092,-3.9785,-3.9123,-3.8123,-3.7738,-3.7584,-3.7546,-3.7334,-3.6911,-3.6335,-3.5797,-3.5582,-3.5636,-3.5748,-3.5666,-3.5416,-3.4898,-3.4519,-3.4199,-3.3413,-3.2966,-3.2869,-3.2187,-3.1797,-3.1738,-3.1211,-3.0937,-3.0918,-3.0918,-3.0859,-3.0837,-3.0483,-3.0306,-3.0266,-3.0035,-2.9683,-2.9277,-2.9179,-2.8926,-2.8379,-2.8281,-2.8281,-2.8301,-2.832,-2.8359,-2.832,-2.832,-2.8281,-2.8281,-2.8359,-2.8359,-2.834,-2.8301,-2.8144,-2.7969,-2.7891,-2.7285,-2.5859,-2.5703,-2.5737,-2.5614,-2.5508,-2.552,-2.5593,-2.5602,-2.5633,-2.5684,-2.5703,-2.5703,-2.5703,-2.5703,-2.5703,-2.5703,-2.5703,-2.5703,-2.5703,-2.5703,-2.5703,-2.5508,-2.5371,-2.4961,-2.4199,-2.3343,-2.2643,-2.2481,-2.2105,-2.1696,-2.1318,-2.0925,-2.0663,-2.0635,-2.0566,-2.0586,-2.0605,-2.0605,-2.0605,-2.0605,-2.0605,-2.0605,-4.0496,-4.0496,-4.0496,-4.0496,-4.0496,-4.0496,-4.0496,-4.0496,-4.0496,-4.0496,-4.0496,-4.0496,-4.0496,-4.0496,-4.0496,-4.0496,-4.0496,-4.0496,-3.9938,-3.8969,-3.8565,-3.8488,-3.8411,-3.8123,-3.7788,-3.7218,-3.6458,-3.613,-3.618,-3.6002,-3.591,-3.5808,-3.5409,-3.5176,-3.5098,-3.4336,-3.3887,-3.375,-3.3066,-3.2637,-3.2539,-3.2129,-3.1816,-3.1836,-3.1855,-3.168,-3.1426,-3.1284,-3.1103,-3.0849,-3.0771,-3.0542,-3.0117,-3.0059,-2.9824,-2.9434,-2.9277,-2.9277,-2.9258,-2.9375,-2.9258,-2.9258,-2.9258,-2.9277,-2.9277,-2.9277,-2.9277,-2.9277,-2.9316,-2.9141,-2.8867,-2.8769,-2.8105,-2.6836,-2.6738,-2.6465,-2.6102,-2.5649,-2.5479,-2.5549,-2.5573,-2.5614,-2.5684,-2.5703,-2.5703,-2.5703,-2.5703,-2.5703,-2.5703,-2.5703,-2.5703,-2.5703,-2.5703,-2.5703,-2.5703,-2.5664,-2.5684,-2.5039,-2.4327,-2.3775,-2.3445,-2.2856,-2.2353,-2.2028,-2.1649,-2.1285,-2.1191,-2.0742,-2.0605,-2.0605,-2.0684,-2.0605,-2.0605,-2.0605,-2.0605,-4.0496,-4.0496,-4.0496,-4.0496,-4.0496,-4.0496,-4.0496,-4.0496,-4.0496,-4.0496,-4.0496,-4.0496,-4.0496,-4.0496,-4.0496,-4.0496,-4.0496,-4.0496,-4.0458,-4.0131,-3.9688,-3.9354,-3.9258,-3.8602,-3.8254,-3.8125,-3.7404,-3.7117,-3.7171,-3.6648,-3.604,-3.6152,-3.6133,-3.6016,-3.5781,-3.5137,-3.4766,-3.4648,-3.3906,-3.3496,-3.3457,-3.3301,-3.3262,-3.3242,-3.3184,-3.2891,-3.2363,-3.2226,-3.1816,-3.1035,-3.0898,-3.0859,-3.0879,-3.0898,-3.0762,-3.0684,-3.084,-3.0742,-3.082,-3.0625,-3.0664,-3.0625,-3.0625,-3.0918,-3.0664,-3.0547,-3.0547,-3.0566,-3.0605,-3.041,-2.9805,-2.9629,-2.9219,-2.8613,-2.8125,-2.7644,-2.6864,-2.6136,-2.5943,-2.5758,-2.5676,-2.5767,-2.5957,-2.5879,-2.584,-2.5703,-2.5703,-2.5703,-2.5703,-2.5703,-2.5703,-2.5703,-2.5703,-2.5703,-2.5703,-2.5703,-2.5684,-2.5449,-2.4907,-2.4627,-2.4204,-2.3628,-2.3139,-2.2803,-2.2377,-2.2018,-2.1758,-2.1445,-2.1074,-2.0996,-2.0918,-2.0703,-2.0742,-2.0898,-2.1113,-4.0496,-4.0496,-4.0496,-4.0496,-4.0496,-4.0496,-4.0496,-4.0496,-4.0496,-4.0496,-4.0496,-4.0496,-4.0496,-4.0496,-4.0496,-4.0496,-4.0496,-4.0496,-4.0496,-4.0477,-4.0323,-4.0189,-4.0034,-3.9412,-3.9054,-3.8984,-3.8385,-3.8044,-3.8073,-3.7862,-3.7519,-3.6973,-3.6953,-3.6621,-3.6035,-3.5781,-3.5664,-3.5547,-3.4785,-3.4355,-3.4258,-3.375,-3.3398,-3.3379,-3.3437,-3.334,-3.3105,-3.3066,-3.2383,-3.1055,-3.0918,-3.0918,-3.0918,-3.0918,-3.0918,-3.0918,-3.0918,-3.0918,-3.0918,-3.0918,-3.0918,-3.0918,-3.0898,-3.0918,-3.0918,-3.0898,-3.0858,-3.0792,-3.0746,-3.0669,-3.0435,-3.0377,-3.0247,-3.0097,-2.9118,-2.8026,-2.7234,-2.7196,-2.7177,-2.6653,-2.7064,-2.7097,-2.6797,-2.6621,-2.6465,-2.6016,-2.5879,-2.5879,-2.6035,-2.6016,-2.6133,-2.582,-2.5742,-2.5703,-2.5703,-2.5703,-2.5664,-2.5605,-2.5386,-2.5247,-2.4846,-2.4385,-2.4013,-2.3715,-2.3134,-2.2699,-2.2711,-2.2578,-2.2148,-2.1582,-2.1562,-2.1543,-2.1543,-2.166,-2.2012,-4.0496,-4.0496,-4.0496,-4.0496,-4.0496,-4.0496,-4.0496,-4.0496,-4.0496,-4.0496,-4.0496,-4.0496,-4.0496,-4.0496,-4.0496,-4.0496,-4.0496,-4.0496,-4.0496,-4.0531,-4.0528,-4.0556,-4.0468,-4.0112,-4.0014,-3.9996,-3.9304,-3.9014,-3.8955,-3.8769,-3.832,-3.793,-3.7832,-3.7383,-3.6641,-3.6543,-3.6328,-3.5976,-3.5469,-3.5254,-3.5176,-3.4766,-3.457,-3.4492,-3.4473,-3.4375,-3.3984,-3.3555,-3.2734,-3.1738,-3.1445,-3.1289,-3.0937,-3.0918,-3.0918,-3.0918,-3.0918,-3.0918,-3.0918,-3.0918,-3.0879,-3.0859,-3.0858,-3.0858,-3.082,-3.0796,-3.077,-3.072,-3.0679,-3.0679,-3.0695,-3.0745,-3.0786,-3.0586,-2.989,-2.8923,-2.8002,-2.8004,-2.7868,-2.7629,-2.7784,-2.8092,-2.7598,-2.7559,-2.7305,-2.7012,-2.6973,-2.6934,-2.6914,-2.6777,-2.668,-2.6562,-2.6504,-2.6641,-2.6465,-2.6367,-2.6094,-2.5957,-2.5704,-2.5618,-2.5372,-2.4996,-2.475,-2.4371,-2.3857,-2.3513,-2.3543,-2.3398,-2.2832,-2.2461,-2.2441,-2.2441,-2.2441,-2.2422,-2.2773,-4.0554,-4.065,-4.065,-4.0689,-4.0823,-4.0785,-4.0958,-4.0823,-4.0766,-4.0804,-4.0843,-4.0612,-4.0612,-4.0631,-4.0593,-4.0504,-4.0534,-4.0537,-4.0533,-4.0584,-4.0672,-4.0731,-4.0747,-4.0714,-4.0734,-4.0745,-4.0157,-3.9968,-3.9863,-3.9297,-3.8887,-3.875,-3.873,-3.8262,-3.7539,-3.7324,-3.6855,-3.6328,-3.5996,-3.5859,-3.584,-3.5723,-3.5664,-3.5664,-3.5664,-3.5341,-3.4736,-3.4105,-3.3321,-3.2519,-3.2383,-3.1973,-3.1328,-3.123,-3.1133,-3.1113,-3.1133,-3.1074,-3.0918,-3.0898,-3.0838,-3.0768,-3.0816,-3.0816,-3.0738,-3.0707,-3.0702,-3.0663,-3.0611,-3.0614,-3.0657,-3.0789,-3.0806,-3.0702,-3.0692,-3.0367,-2.9682,-2.8846,-2.8354,-2.8293,-2.8365,-2.8503,-2.8418,-2.8437,-2.8359,-2.7695,-2.7715,-2.7676,-2.7656,-2.7617,-2.7676,-2.7793,-2.7773,-2.7812,-2.75,-2.7148,-2.6738,-2.6413,-2.604,-2.5838,-2.573,-2.5461,-2.5322,-2.5009,-2.4568,-2.4362,-2.4372,-2.4043,-2.3574,-2.332,-2.3281,-2.3301,-2.332,-2.3301,-2.3496,-4.0912,-4.1527,-4.1508,-4.1912,-4.2489,-4.2527,-4.2508,-4.2431,-4.1797,-4.1854,-4.2104,-4.115,-4.0989,-4.147,-4.0935,-4.0533,-4.0765,-4.0765,-4.067,-4.0761,-4.0857,-4.0911,-4.0933,-4.0952,-4.0983,-4.0966,-4.0949,-4.0879,-4.0781,-4.0566,-4.0254,-3.9668,-3.957,-3.918,-3.8398,-3.7773,-3.7246,-3.6914,-3.6387,-3.6094,-3.6074,-3.6035,-3.6016,-3.5996,-3.5948,-3.5777,-3.5588,-3.5392,-3.4928,-3.4181,-3.351,-3.3042,-3.27,-3.2634,-3.236,-3.1913,-3.1757,-3.1531,-3.1074,-3.1035,-3.0877,-3.0917,-3.0955,-3.069,-3.0641,-3.0745,-3.0678,-3.0574,-3.0533,-3.0637,-3.0611,-3.0638,-3.0706,-3.0746,-3.0716,-3.0607,-3.0425,-3.0273,-2.9809,-2.9474,-2.9719,-3.0058,-2.9414,-2.9336,-2.9062,-2.8516,-2.8359,-2.834,-2.8418,-2.8535,-2.8652,-2.8848,-2.875,-2.8652,-2.8223,-2.7832,-2.7402,-2.7061,-2.6681,-2.6385,-2.6265,-2.5967,-2.5827,-2.5618,-2.5314,-2.5172,-2.4972,-2.5117,-2.4746,-2.4453,-2.4141,-2.416,-2.416,-2.416,-2.418,-4.1239,-4.2354,-4.197,-4.2297,-4.3028,-4.3085,-4.3085,-4.3008,-4.2643,-4.2662,-4.2854,-4.2047,-4.2008,-4.2362,-4.1981,-4.1835,-4.1755,-4.1484,-4.1162,-4.099,-4.0964,-4.1025,-4.1101,-4.1102,-4.1102,-4.1094,-4.1151,-4.1191,-4.1191,-4.1172,-4.0879,-4.0547,-4.0488,-4.0019,-3.9336,-3.8691,-3.8359,-3.7812,-3.707,-3.6621,-3.6601,-3.6191,-3.5975,-3.5928,-3.5855,-3.5752,-3.5652,-3.5698,-3.5489,-3.5084,-3.4666,-3.4072,-3.3436,-3.3258,-3.3,-3.273,-3.2599,-3.2481,-3.2148,-3.207,-3.2088,-3.1891,-3.1903,-3.1893,-3.1818,-3.1773,-3.1487,-3.1215,-3.1057,-3.0965,-3.058,-3.0578,-3.0669,-3.0642,-3.0656,-3.0597,-3.0607,-3.0672,-3.0636,-3.0201,-3.0406,-3.0484,-3.0332,-3.0117,-3.0098,-2.9687,-2.9707,-2.9687,-2.9766,-2.9844,-2.9726,-2.9746,-2.9609,-2.9375,-2.8945,-2.8496,-2.8066,-2.776,-2.7502,-2.7314,-2.7195,-2.6775,-2.6371,-2.5998,-2.5586,-2.5479,-2.5352,-2.5586,-2.5644,-2.5273,-2.5,-2.5019,-2.498,-2.4902,-2.498,-4.17,-4.322,-4.2489,-4.2673,-4.3412,-4.3528,-4.3585,-4.3528,-4.3335,-4.3431,-4.3374,-4.3278,-4.2989,-4.323,-4.3104,-4.3181,-4.3034,-4.2665,-4.2127,-4.1747,-4.1441,-4.1435,-4.1445,-4.1308,-4.1191,-4.1191,-4.1191,-4.1191,-4.1191,-4.1191,-4.1133,-4.1133,-4.1152,-4.0723,-4.0215,-3.9883,-3.9414,-3.8769,-3.7949,-3.75,-3.7441,-3.6875,-3.6543,-3.6165,-3.5833,-3.569,-3.5611,-3.5616,-3.5606,-3.5616,-3.5655,-3.4961,-3.4099,-3.3604,-3.3469,-3.3535,-3.3479,-3.3314,-3.3125,-3.3203,-3.3201,-3.3299,-3.323,-3.3176,-3.3048,-3.2846,-3.2512,-3.2158,-3.1874,-3.1644,-3.0937,-3.1091,-3.1086,-3.1035,-3.104,-3.0933,-3.0862,-3.0851,-3.0843,-3.0634,-3.0664,-3.07,-3.0762,-3.0684,-3.082,-3.0918,-3.0918,-3.0918,-3.0898,-3.08,-3.05,-3.0351,-3.015,-3.0077,-2.9707,-2.9585,-2.9084,-2.8727,-2.845,-2.8218,-2.8044,-2.7512,-2.6944,-2.6152,-2.5777,-2.574,-2.5632,-2.5586,-2.5644,-2.5684,-2.5625,-2.541,-2.5469,-2.5605,-2.5611,-4.2566,-4.4085,-4.3951,-4.4393,-4.5114,-4.5152,-4.5094,-4.5056,-4.4363,-4.4528,-4.4902,-4.3778,-4.3605,-4.3851,-4.3427,-4.336,-4.3565,-4.343,-4.3281,-4.293,-4.248,-4.2187,-4.2109,-4.1601,-4.1308,-4.1191,-4.1191,-4.1191,-4.1191,-4.1191,-4.1191,-4.1191,-4.1191,-4.1016,-4.0762,-4.0351,-3.9961,-3.9629,-3.8848,-3.8418,-3.8301,-3.7949,-3.7422,-3.6715,-3.6067,-3.5687,-3.5556,-3.5585,-3.5611,-3.5611,-3.5611,-3.5476,-3.5192,-3.5059,-3.4796,-3.4448,-3.4311,-3.4125,-3.3789,-3.3535,-3.3418,-3.3323,-3.3464,-3.3378,-3.3281,-3.3209,-3.3155,-3.286,-3.2684,-3.2568,-3.2589,-3.2303,-3.254,-3.2667,-3.2578,-3.2558,-3.2486,-3.2101,-3.1427,-3.0945,-3.0906,-3.084,-3.0859,-3.0879,-3.0918,-3.0918,-3.0918,-3.0918,-3.0898,-3.082,-3.0664,-3.0585,-3.0562,-3.0558,-3.0476,-3.05,-3.0308,-2.9908,-2.9557,-2.9126,-2.8816,-2.8208,-2.7562,-2.7016,-2.6501,-2.6298,-2.6123,-2.5827,-2.5664,-2.5723,-2.5723,-2.5703,-2.5664,-2.5636,-2.5601,-4.3431,-4.4874,-4.4509,-4.4797,-4.5498,-4.5594,-4.5594,-4.5556,-4.5171,-4.519,-4.5267,-4.4767,-4.4622,-4.4899,-4.4793,-4.4541,-4.4355,-4.4355,-4.4121,-4.3691,-4.3262,-4.3066,-4.2969,-4.2207,-4.1914,-4.1719,-4.1465,-4.125,-4.1191,-4.1191,-4.1191,-4.1191,-4.1191,-4.1191,-4.1133,-4.082,-4.0566,-4.0371,-3.9746,-3.9277,-3.9121,-3.8574,-3.7598,-3.7005,-3.6225,-3.5688,-3.5534,-3.5528,-3.5574,-3.5579,-3.5554,-3.5585,-3.5611,-3.5563,-3.5451,-3.5211,-3.512,-3.5027,-3.4766,-3.4746,-3.4785,-3.474,-3.4576,-3.4536,-3.4455,-3.4429,-3.4067,-3.3641,-3.3026,-3.2897,-3.2879,-3.2986,-3.2977,-3.304,-3.313,-3.3158,-3.3033,-3.2752,-3.2146,-3.1397,-3.109,-3.0958,-3.0781,-3.082,-3.0898,-3.0918,-3.0918,-3.0918,-3.0918,-3.0801,-3.0684,-3.0652,-3.0625,-3.0631,-3.068,-3.0793,-3.0878,-3.0629,-3.0392,-2.9977,-2.9722,-2.9187,-2.8718,-2.8231,-2.7737,-2.7249,-2.6637,-2.6368,-2.608,-2.5832,-2.5859,-2.5879,-2.5742,-2.5655,-2.5648,-4.4239,-4.5537,-4.4855,-4.4951,-4.5537,-4.5594,-4.5594,-4.5594,-4.5575,-4.5556,-4.5594,-4.5545,-4.5576,-4.5757,-4.5784,-4.5644,-4.5254,-4.5254,-4.4902,-4.4453,-4.4082,-4.3965,-4.3711,-4.3164,-4.2676,-4.2598,-4.2246,-4.1523,-4.123,-4.1191,-4.1191,-4.1191,-4.1191,-4.1191,-4.1152,-4.1094,-4.1191,-4.0976,-4.0586,-4.0195,-3.9766,-3.8691,-3.7724,-3.747,-3.6686,-3.6215,-3.5938,-3.5942,-3.5764,-3.5665,-3.5554,-3.555,-3.56,-3.554,-3.5604,-3.578,-3.5743,-3.579,-3.582,-3.5801,-3.563,-3.5586,-3.571,-3.5674,-3.5573,-3.5242,-3.509,-3.4487,-3.3987,-3.3583,-3.3699,-3.3487,-3.3519,-3.3573,-3.361,-3.349,-3.3611,-3.3451,-3.3117,-3.238,-3.1599,-3.1145,-3.1011,-3.082,-3.0898,-3.0918,-3.0918,-3.0918,-3.0898,-3.0742,-3.0657,-3.0611,-3.0594,-3.0603,-3.0671,-3.0812,-3.0857,-3.0756,-3.0629,-3.036,-3.0326,-3.0245,-2.9733,-2.9195,-2.9032,-2.8491,-2.7718,-2.7051,-2.6935,-2.6741,-2.6353,-2.6164,-2.6219,-2.6034,-2.5912,-4.4701,-4.5594,-4.5498,-4.5518,-4.5603,-4.5603,-4.5594,-4.5594,-4.5594,-4.5594,-4.5594,-4.5603,-4.5661,-4.5814,-4.5994,-4.6088,-4.6094,-4.6016,-4.5879,-4.5566,-4.5117,-4.4844,-4.4707,-4.3945,-4.3613,-4.3476,-4.334,-4.2519,-4.1758,-4.1426,-4.1269,-4.1289,-4.125,-4.1191,-4.1191,-4.1191,-4.1191,-4.1172,-4.1074,-4.0996,-4.0801,-3.9941,-3.9434,-3.9052,-3.8365,-3.7533,-3.6857,-3.676,-3.6563,-3.5853,-3.5678,-3.565,-3.5655,-3.5548,-3.5585,-3.5661,-3.5671,-3.5657,-3.5732,-3.576,-3.5763,-3.5783,-3.5733,-3.5659,-3.5611,-3.5544,-3.5423,-3.5423,-3.5115,-3.4962,-3.4853,-3.5038,-3.5175,-3.5056,-3.4867,-3.4955,-3.5002,-3.4286,-3.3923,-3.3508,-3.2784,-3.1857,-3.1309,-3.1094,-3.0918,-3.0918,-3.0918,-3.0957,-3.0918,-3.0801,-3.0598,-3.0561,-3.0587,-3.06,-3.0671,-3.0812,-3.0859,-3.084,-3.0742,-3.0639,-3.0578,-3.0511,-3.0447,-3.0001,-2.986,-2.948,-2.8612,-2.8074,-2.7934,-2.7627,-2.7229,-2.6994,-2.6851,-2.6617,-2.6371,-4.4931,-4.5696,-4.5715,-4.5696,-4.57,-4.5635,-4.5594,-4.5594,-4.5594,-4.5594,-4.5594,-4.5594,-4.5696,-4.5855,-4.603,-4.6155,-4.6269,-4.6289,-4.6289,-4.6289,-4.5898,-4.5703,-4.5527,-4.4883,-4.4433,-4.4316,-4.3945,-4.3398,-4.2598,-4.2129,-4.1875,-4.1816,-4.1465,-4.1191,-4.1348,-4.123,-4.1191,-4.1191,-4.1191,-4.1191,-4.0976,-4.041,-3.986,-3.9698,-3.8876,-3.8244,-3.7851,-3.7693,-3.7587,-3.7033,-3.6721,-3.6353,-3.6222,-3.5885,-3.5534,-3.5568,-3.5562,-3.56,-3.5682,-3.5696,-3.5693,-3.5682,-3.5667,-3.5597,-3.5564,-3.5522,-3.55,-3.5481,-3.5481,-3.55,-3.55,-3.55,-3.5521,-3.554,-3.5564,-3.5558,-3.55,-3.5308,-3.4802,-3.4405,-3.3944,-3.3025,-3.2199,-3.1953,-3.1797,-3.1641,-3.1504,-3.1328,-3.1191,-3.0996,-3.0761,-3.0517,-3.0561,-3.0608,-3.0702,-3.0801,-3.0879,-3.0859,-3.077,-3.0675,-3.0611,-3.0545,-3.0486,-3.0425,-3.0207,-2.9762,-2.9264,-2.8945,-2.8656,-2.8369,-2.8093,-2.7887,-2.7671,-2.7484,-2.7156,-4.4944,-4.5524,-4.5738,-4.5776,-4.5759,-4.5624,-4.5594,-4.5594,-4.5594,-4.5594,-4.5612,-4.5643,-4.5743,-4.5862,-4.5981,-4.6093,-4.623,-4.6247,-4.6269,-4.6289,-4.6289,-4.625,-4.6035,-4.5547,-4.5312,-4.5293,-4.4883,-4.4492,-4.416,-4.3594,-4.3027,-4.2715,-4.2305,-4.1992,-4.1836,-4.168,-4.1523,-4.1191,-4.1191,-4.1191,-4.1094,-4.0625,-4.0293,-3.995,-3.949,-3.8969,-3.8686,-3.8633,-3.8627,-3.8043,-3.7584,-3.719,-3.7091,-3.6697,-3.6175,-3.6074,-3.5938,-3.5801,-3.5732,-3.5666,-3.565,-3.562,-3.5607,-3.5548,-3.5526,-3.5509,-3.55,-3.55,-3.55,-3.55,-3.55,-3.55,-3.5494,-3.5501,-3.5508,-3.5488,-3.5468,-3.5335,-3.5258,-3.5007,-3.4607,-3.4287,-3.3582,-3.3117,-3.2793,-3.248,-3.2168,-3.1836,-3.1572,-3.1361,-3.1018,-3.0746,-3.0586,-3.0664,-3.0762,-3.084,-3.0898,-3.0898,-3.0801,-3.0703,-3.0623,-3.0574,-3.0507,-3.0457,-3.0402,-3.0223,-2.982,-2.9583,-2.9361,-2.9283,-2.9133,-2.8736,-2.848,-2.8287,-2.7907,-4.4783,-4.4836,-4.5535,-4.5733,-4.5618,-4.5603,-4.5594,-4.5594,-4.5594,-4.5594,-4.562,-4.5715,-4.5763,-4.5826,-4.5901,-4.6008,-4.6115,-4.6115,-4.6196,-4.6269,-4.6289,-4.6289,-4.6211,-4.6152,-4.6094,-4.6094,-4.5762,-4.582,-4.584,-4.4961,-4.4297,-4.3672,-4.3281,-4.3418,-4.3105,-4.2441,-4.1855,-4.1465,-4.1269,-4.1191,-4.1191,-4.1055,-4.0996,-4.0996,-4.0918,-4.0601,-3.9692,-3.9603,-3.9335,-3.8668,-3.8244,-3.8042,-3.7943,-3.761,-3.7142,-3.6769,-3.6442,-3.628,-3.6091,-3.5714,-3.5522,-3.5509,-3.5515,-3.5521,-3.5538,-3.5522,-3.5514,-3.55,-3.55,-3.55,-3.55,-3.55,-3.55,-3.55,-3.55,-3.55,-3.55,-3.5488,-3.5431,-3.5425,-3.5204,-3.4836,-3.4691,-3.4183,-3.372,-3.3398,-3.3223,-3.291,-3.2179,-3.1859,-3.1412,-3.1063,-3.0753,-3.0742,-3.0859,-3.0918,-3.0918,-3.0918,-3.0859,-3.0742,-3.0645,-3.0584,-3.0529,-3.0462,-3.0404,-3.0404,-3.0385,-3.0084,-2.9959,-3.0265,-3.0138,-2.9573,-2.9162,-2.8908,-2.8502,-4.426,-4.4641,-4.5495,-4.5801,-4.5723,-4.5635,-4.5594,-4.5594,-4.5594,-4.5594,-4.5603,-4.5648,-4.573,-4.5796,-4.5814,-4.5891,-4.5981,-4.6077,-4.614,-4.6199,-4.625,-4.6289,-4.6289,-4.6289,-4.6289,-4.6289,-4.6289,-4.6289,-4.6172,-4.584,-4.5742,-4.5156,-4.4316,-4.3769,-4.3398,-4.3047,-4.2363,-4.1933,-4.1484,-4.1211,-4.1191,-4.1191,-4.1191,-4.1191,-4.1191,-4.1055,-4.0659,-4.0542,-4.0242,-3.9793,-3.9209,-3.8965,-3.8762,-3.839,-3.7957,-3.7507,-3.7142,-3.6902,-3.6755,-3.6151,-3.5507,-3.55,-3.5488,-3.5521,-3.5564,-3.5521,-3.5507,-3.55,-3.55,-3.55,-3.55,-3.55,-3.55,-3.55,-3.55,-3.55,-3.55,-3.55,-3.5488,-3.5469,-3.547,-3.5332,-3.5262,-3.518,-3.4725,-3.4316,-3.418,-3.3886,-3.3132,-3.2498,-3.211,-3.1681,-3.1388,-3.1141,-3.125,-3.1113,-3.0957,-3.0957,-3.0976,-3.0781,-3.0653,-3.0628,-3.0567,-3.0472,-3.0404,-3.0404,-3.0404,-3.0404,-3.04,-3.043,-3.0406,-3.0224,-2.9866,-2.9501,-2.9143,-4.3832,-4.4306,-4.5429,-4.5839,-4.5733,-4.5643,-4.5594,-4.5594,-4.5594,-4.5594,-4.5594,-4.5603,-4.5651,-4.573,-4.574,-4.5807,-4.5909,-4.5995,-4.6082,-4.6174,-4.6269,-4.6289,-4.6289,-4.6289,-4.6289,-4.6289,-4.6289,-4.6289,-4.6289,-4.6289,-4.6172,-4.5781,-4.5195,-4.4726,-4.4375,-4.3633,-4.3066,-4.2656,-4.2051,-4.1582,-4.1582,-4.1308,-4.1211,-4.1191,-4.1191,-4.1172,-4.1035,-4.0909,-4.0785,-4.0485,-4.0109,-3.9779,-3.9471,-3.9123,-3.8681,-3.8277,-3.7957,-3.7714,-3.7525,-3.7105,-3.6015,-3.5663,-3.5848,-3.5759,-3.5611,-3.5541,-3.5514,-3.5534,-3.5515,-3.5519,-3.5558,-3.55,-3.55,-3.55,-3.55,-3.55,-3.55,-3.55,-3.55,-3.5488,-3.5489,-3.5515,-3.5512,-3.5454,-3.5291,-3.5002,-3.5021,-3.4655,-3.3968,-3.34,-3.3019,-3.257,-3.2159,-3.1911,-3.1699,-3.1641,-3.1562,-3.1367,-3.1269,-3.082,-3.0667,-3.0656,-3.0595,-3.0451,-3.0404,-3.0404,-3.0404,-3.0404,-3.0404,-3.039,-3.0371,-3.0352,-3.0294,-2.996,-2.9902,-4.3603,-4.3633,-4.5213,-4.5788,-4.5643,-4.5603,-4.5594,-4.5594,-4.5594,-4.5594,-4.5594,-4.5594,-4.5594,-4.561,-4.5635,-4.5729,-4.5862,-4.5912,-4.6033,-4.622,-4.6269,-4.6289,-4.6289,-4.6289,-4.6289,-4.6289,-4.6289,-4.6289,-4.6289,-4.6289,-4.6289,-4.6289,-4.5957,-4.5879,-4.6074,-4.5332,-4.4492,-4.3672,-4.2832,-4.2461,-4.209,-4.1641,-4.1426,-4.1191,-4.1191,-4.1191,-4.1152,-4.0996,-4.0867,-4.0707,-4.0556,-4.0316,-4.0204,-4.0208,-3.9842,-3.9284,-3.915,-3.874,-3.8148,-3.7969,-3.7295,-3.6251,-3.6485,-3.6535,-3.5985,-3.5769,-3.5894,-3.6217,-3.5965,-3.5783,-3.5654,-3.5635,-3.5788,-3.5846,-3.5904,-3.5769,-3.5808,-3.5885,-3.5962,-3.5596,-3.5501,-3.5528,-3.5604,-3.5629,-3.5628,-3.5626,-3.5778,-3.5406,-3.4711,-3.4186,-3.3767,-3.3398,-3.2949,-3.2676,-3.2461,-3.2305,-3.2168,-3.1934,-3.1711,-3.1407,-3.1017,-3.0895,-3.0765,-3.0502,-3.0404,-3.0404,-3.0404,-3.0404,-3.0404,-3.0404,-3.0404,-3.0385,-3.0404,-3.0365,-3.0231,-4.364,-4.3685,-4.5227,-4.5839,-4.5725,-4.5635,-4.5594,-4.5594,-4.5594,-4.5594,-4.5594,-4.5594,-4.5594,-4.5594,-4.561,-4.5696,-4.5813,-4.589,-4.603,-4.6171,-4.6248,-4.6289,-4.6289,-4.6289,-4.6289,-4.6289,-4.6289,-4.6289,-4.6289,-4.6289,-4.6289,-4.6289,-4.6289,-4.6289,-4.6055,-4.5488,-4.4746,-4.4453,-4.373,-4.3027,-4.248,-4.2148,-4.1777,-4.1308,-4.1269,-4.125,-4.1191,-4.0996,-4.0874,-4.0793,-4.0672,-4.0588,-4.0519,-4.0496,-4.0362,-3.9938,-3.9727,-3.8914,-3.8663,-3.8664,-3.8845,-3.7925,-3.739,-3.7553,-3.7342,-3.7325,-3.7318,-3.7199,-3.6993,-3.699,-3.7199,-3.718,-3.7238,-3.7173,-3.7077,-3.6635,-3.6538,-3.6635,-3.6615,-3.5846,-3.5514,-3.5514,-3.554,-3.5577,-3.5596,-3.5657,-3.5735,-3.5827,-3.532,-3.4813,-3.4375,-3.4101,-3.375,-3.3476,-3.3262,-3.3164,-3.3047,-3.2891,-3.2666,-3.2395,-3.1982,-3.1457,-3.0999,-3.076,-3.0569,-3.0404,-3.0404,-3.0404,-3.0404,-3.0404,-3.0404,-3.0404,-3.0404,-3.0404,-3.0365,-4.3646,-4.3778,-4.5258,-4.5846,-4.5783,-4.5668,-4.5594,-4.5594,-4.5594,-4.5594,-4.5594,-4.5594,-4.5594,-4.5612,-4.5648,-4.572,-4.583,-4.5927,-4.6042,-4.6171,-4.6247,-4.6289,-4.6289,-4.6289,-4.6289,-4.6289,-4.6289,-4.6289,-4.6289,-4.6289,-4.6289,-4.6289,-4.6289,-4.6289,-4.6113,-4.5762,-4.5488,-4.5215,-4.4629,-4.3945,-4.3476,-4.3008,-4.2461,-4.1914,-4.1621,-4.1543,-4.125,-4.1049,-4.0886,-4.08,-4.071,-4.0603,-4.0534,-4.0496,-4.0496,-4.0285,-4.0054,-3.9438,-3.9457,-3.9677,-3.9687,-3.9135,-3.8829,-3.8489,-3.8316,-3.8029,-3.8023,-3.803,-3.815,-3.8082,-3.8046,-3.8104,-3.8111,-3.8015,-3.7861,-3.7399,-3.7231,-3.7327,-3.6942,-3.6173,-3.5615,-3.5577,-3.55,-3.5494,-3.5515,-3.5582,-3.5645,-3.5721,-3.5816,-3.5383,-3.4996,-3.4805,-3.4726,-3.4609,-3.4336,-3.4062,-3.3965,-3.3848,-3.3541,-3.3193,-3.2759,-3.2204,-3.1612,-3.1093,-3.105,-3.0904,-3.0519,-3.0404,-3.0404,-3.0404,-3.0404,-3.0404,-3.0404,-3.0404,-3.0404,-4.3607,-4.3799,-4.5223,-4.5793,-4.5719,-4.5626,-4.5594,-4.5594,-4.5594,-4.5594,-4.5594,-4.5594,-4.5594,-4.5618,-4.5725,-4.5832,-4.5905,-4.6027,-4.6167,-4.625,-4.6289,-4.6289,-4.6289,-4.6289,-4.6289,-4.6289,-4.6289,-4.6289,-4.6289,-4.6289,-4.6289,-4.6289,-4.6289,-4.6289,-4.623,-4.6172,-4.6074,-4.5801,-4.5449,-4.4863,-4.4433,-4.4023,-4.3301,-4.2695,-4.2285,-4.1914,-4.1523,-4.1094,-4.089,-4.0742,-4.0635,-4.0547,-4.0504,-4.0496,-4.0496,-4.0477,-4.0439,-4.0304,-4.0246,-4.0439,-4.0496,-4.0089,-3.9782,-3.9136,-3.882,-3.8787,-3.8822,-3.8721,-3.8697,-3.8443,-3.8296,-3.8375,-3.8467,-3.8428,-3.8409,-3.8164,-3.7957,-3.77,-3.7212,-3.6615,-3.6038,-3.5769,-3.5538,-3.55,-3.5507,-3.5528,-3.5579,-3.5604,-3.5689,-3.5797,-3.5531,-3.5605,-3.5586,-3.5762,-3.5488,-3.4941,-3.4844,-3.4726,-3.418,-3.379,-3.3367,-3.3015,-3.2497,-3.2057,-3.1756,-3.1365,-3.0673,-3.0404,-3.0404,-3.0404,-3.0404,-3.0404,-3.0404,-3.0404,-3.0404,-4.2753,-4.2922,-4.4407,-4.5035,-4.5087,-4.5434,-4.5594,-4.5594,-4.5594,-4.5594,-4.5594,-4.5594,-4.5594,-4.5612,-4.5752,-4.5836,-4.5946,-4.6059,-4.6173,-4.625,-4.6289,-4.6289,-4.6289,-4.6289,-4.6289,-4.6289,-4.6289,-4.6289,-4.6289,-4.6289,-4.6289,-4.6289,-4.6289,-4.6289,-4.6289,-4.6289,-4.6289,-4.623,-4.5937,-4.5586,-4.5215,-4.4766,-4.4043,-4.3476,-4.2812,-4.2422,-4.2051,-4.1384,-4.1107,-4.0846,-4.0713,-4.0616,-4.0496,-4.0496,-4.0496,-4.0496,-4.0496,-4.0477,-4.0496,-4.0496,-4.0566,-4.0667,-4.0388,-4.0398,-4.0106,-3.9864,-3.9774,-3.958,-3.9462,-3.9345,-3.9326,-3.9374,-3.9367,-3.9353,-3.9321,-3.9189,-3.8948,-3.8507,-3.7988,-3.725,-3.6654,-3.6038,-3.5788,-3.55,-3.5507,-3.552,-3.5521,-3.5547,-3.5585,-3.571,-3.5791,-3.5864,-3.5934,-3.5951,-3.5996,-3.5586,-3.5605,-3.5527,-3.4961,-3.4487,-3.4206,-3.3828,-3.3367,-3.2872,-3.2352,-3.1506,-3.0577,-3.05,-3.0673,-3.0462,-3.0423,-3.0404,-3.0404,-3.0404,-3.0404,-4.2383,-4.2617,-4.4066,-4.4827,-4.5099,-4.5452,-4.5594,-4.5594,-4.5594,-4.5594,-4.5594,-4.5594,-4.5594,-4.5607,-4.5751,-4.5857,-4.5927,-4.611,-4.625,-4.6269,-4.6289,-4.6289,-4.6289,-4.6289,-4.6289,-4.6289,-4.6289,-4.6289,-4.6289,-4.6289,-4.6289,-4.6289,-4.6289,-4.6289,-4.6289,-4.6289,-4.6289,-4.6289,-4.6191,-4.5918,-4.5641,-4.5384,-4.4871,-4.4197,-4.3473,-4.3198,-4.2783,-4.2047,-4.1716,-4.1345,-4.1189,-4.0891,-4.0669,-4.0496,-4.0496,-4.0496,-4.0496,-4.053,-4.0554,-4.0527,-4.0623,-4.0672,-4.066,-4.062,-4.0632,-4.0472,-4.0448,-4.0371,-4.041,-4.0427,-4.0484,-4.054,-4.0484,-4.0435,-4.0364,-4.0291,-3.9902,-3.9465,-3.8777,-3.7988,-3.7276,-3.6577,-3.6115,-3.5769,-3.55,-3.5507,-3.5514,-3.5508,-3.5553,-3.5616,-3.5714,-3.5786,-3.5871,-3.5937,-3.5957,-3.5996,-3.5918,-3.584,-3.5664,-3.5237,-3.5006,-3.4708,-3.4281,-3.3563,-3.2776,-3.2025,-3.1385,-3.1058,-3.1038,-3.0885,-3.0692,-3.0519,-3.0481,-3.0404,-3.0404,-4.2285,-4.2383,-4.3919,-4.4904,-4.5552,-4.5594,-4.5594,-4.5594,-4.5594,-4.5594,-4.5594,-4.5594,-4.5612,-4.5669,-4.5805,-4.589,-4.6014,-4.6173,-4.6269,-4.6289,-4.6289,-4.6289,-4.6289,-4.6289,-4.6289,-4.6289,-4.6289,-4.6289,-4.6289,-4.6289,-4.6289,-4.6289,-4.6289,-4.6289,-4.6289,-4.6289,-4.6289,-4.6289,-4.625,-4.6105,-4.6067,-4.5948,-4.5708,-4.4959,-4.4549,-4.4292,-4.3655,-4.3208,-4.2879,-4.2305,-4.1895,-4.1512,-4.0997,-4.0516,-4.0516,-4.0496,-4.0496,-4.0574,-4.0596,-4.0566,-4.0617,-4.0647,-4.0616,-4.0604,-4.0623,-4.0655,-4.0596,-4.0566,-4.0512,-4.0496,-4.0527,-4.0568,-4.0575,-4.0561,-4.0544,-4.0513,-4.0319,-3.987,-3.9323,-3.8604,-3.8065,-3.7373,-3.6815,-3.6488,-3.6,-3.575,-3.55,-3.55,-3.5509,-3.5562,-3.5621,-3.5698,-3.5759,-3.5831,-3.5898,-3.5918,-3.5976,-3.5937,-3.5914,-3.5816,-3.546,-3.5298,-3.5195,-3.428,-3.334,-3.3045,-3.2564,-3.2122,-3.1756,-3.1718,-3.141,-3.0827,-3.0615,-3.0654,-3.0462,-4.1422,-4.1472,-4.2937,-4.4322,-4.5526,-4.5594,-4.5594,-4.5594,-4.5594,-4.5594,-4.5594,-4.5612,-4.5668,-4.5749,-4.5852,-4.5944,-4.608,-4.6211,-4.6289,-4.6289,-4.6289,-4.6289,-4.6289,-4.6289,-4.6289,-4.6289,-4.6289,-4.6289,-4.6289,-4.6289,-4.6289,-4.6289,-4.6289,-4.6289,-4.6289,-4.6289,-4.6289,-4.6289,-4.6201,-4.6149,-4.6084,-4.6077,-4.5864,-4.5418,-4.5122,-4.4754,-4.4171,-4.3629,-4.3304,-4.2892,-4.2834,-4.2332,-4.1566,-4.09,-4.0573,-4.0496,-4.0535,-4.0575,-4.0623,-4.061,-4.0591,-4.0623,-4.061,-4.0547,-4.053,-4.0545,-4.0557,-4.0512,-4.0496,-4.0496,-4.0519,-4.0568,-4.0623,-4.0643,-4.0649,-4.0649,-4.0649,-4.0228,-3.9769,-3.9323,-3.8796,-3.8238,-3.7661,-3.7123,-3.6615,-3.6154,-3.5692,-3.5519,-3.55,-3.5515,-3.557,-3.5626,-3.5616,-3.5679,-3.5777,-3.5869,-3.5924,-3.5948,-3.5914,-3.5878,-3.5843,-3.5609,-3.5317,-3.4653,-3.3936,-3.3757,-3.3449,-3.2872,-3.2602,-3.2564,-3.2256,-3.1718,-3.141,-3.1352,-3.0942,-4.1126,-4.1196,-4.2577,-4.4112,-4.5419,-4.5594,-4.5594,-4.5594,-4.5594,-4.5635,-4.5677,-4.5692,-4.5733,-4.5834,-4.5938,-4.6005,-4.6119,-4.6246,-4.6289,-4.6289,-4.6289,-4.6289,-4.6289,-4.6289,-4.6289,-4.6289,-4.6289,-4.6289,-4.6289,-4.6289,-4.6289,-4.6289,-4.6289,-4.6289,-4.6289,-4.6289,-4.6289,-4.6289,-4.6152,-4.6077,-4.6024,-4.5986,-4.5901,-4.5586,-4.5383,-4.5092,-4.4983,-4.4469,-4.4139,-4.3639,-4.3307,-4.2948,-4.2258,-4.1604,-4.1181,-4.0969,-4.0816,-4.0556,-4.0642,-4.0623,-4.0584,-4.0636,-4.0582,-4.0534,-4.0512,-4.0527,-4.0527,-4.0496,-4.0496,-4.0496,-4.0496,-4.0545,-4.0604,-4.0642,-4.0674,-4.0687,-4.0687,-4.0501,-4.0207,-3.9977,-3.9477,-3.8931,-3.8354,-3.7834,-3.7288,-3.6577,-3.6096,-3.5731,-3.5654,-3.55,-3.5534,-3.5552,-3.5566,-3.5621,-3.5717,-3.5819,-3.5889,-3.591,-3.591,-3.591,-3.5853,-3.5706,-3.5386,-3.4946,-3.468,-3.4661,-3.4276,-3.3737,-3.3513,-3.3468,-3.3103,-3.2641,-3.2372,-3.2045,-3.1602,-4.1182,-4.134,-4.2604,-4.4032,-4.5342,-4.5556,-4.5601,-4.5637,-4.5627,-4.5688,-4.5809,-4.582,-4.582,-4.5901,-4.6013,-4.6072,-4.615,-4.6267,-4.6289,-4.6289,-4.6289,-4.6289,-4.6289,-4.6289,-4.6289,-4.6289,-4.6289,-4.6289,-4.6289,-4.6289,-4.6289,-4.6289,-4.6289,-4.6289,-4.6289,-4.6289,-4.6289,-4.623,-4.6115,-4.5992,-4.5905,-4.5838,-4.5749,-4.5665,-4.5594,-4.5594,-4.5594,-4.546,-4.5075,-4.4536,-4.3833,-4.3459,-4.3028,-4.245,-4.1893,-4.1585,-4.115,-4.09,-4.0745,-4.0597,-4.0657,-4.0676,-4.0577,-4.0512,-4.0496,-4.0496,-4.0496,-4.0496,-4.0496,-4.0496,-4.0496,-4.0508,-4.0589,-4.0666,-4.0703,-4.0732,-4.0713,-4.069,-4.0584,-4.0446,-4.005,-3.9503,-3.9123,-3.8604,-3.7969,-3.7238,-3.6635,-3.6231,-3.5904,-3.5635,-3.5515,-3.5534,-3.5534,-3.5601,-3.5663,-3.5736,-3.5816,-3.5873,-3.5875,-3.589,-3.5882,-3.5726,-3.5626,-3.554,-3.5363,-3.5175,-3.5058,-3.4661,-3.4507,-3.4295,-3.416,-3.3757,-3.3179,-3.2814,-3.2314,-4.1462,-4.1972,-4.2795,-4.3695,-4.4594,-4.5287,-4.5657,-4.5754,-4.5761,-4.5828,-4.5901,-4.6001,-4.605,-4.6047,-4.6089,-4.6152,-4.623,-4.6289,-4.6289,-4.6289,-4.6289,-4.6289,-4.6289,-4.6289,-4.6289,-4.6289,-4.6289,-4.6289,-4.6289,-4.6289,-4.6289,-4.6289,-4.6289,-4.6289,-4.6289,-4.6289,-4.6226,-4.6168,-4.6044,-4.59,-4.5867,-4.579,-4.5718,-4.5648,-4.5594,-4.5594,-4.5594,-4.5594,-4.5498,-4.5152,-4.4605,-4.4201,-4.3797,-4.3297,-4.2681,-4.2162,-4.17,-4.1274,-4.1046,-4.0694,-4.0674,-4.0733,-4.0629,-4.0504,-4.0496,-4.0496,-4.0496,-4.0496,-4.0496,-4.0496,-4.0496,-4.0496,-4.0559,-4.069,-4.0747,-4.0771,-4.077,-4.0736,-4.066,-4.0577,-4.0403,-4.0149,-4.0035,-3.9534,-3.9008,-3.8238,-3.7392,-3.6969,-3.6385,-3.5981,-3.5635,-3.5566,-3.5592,-3.5521,-3.5527,-3.5631,-3.5714,-3.5765,-3.5847,-3.5893,-3.589,-3.5775,-3.569,-3.563,-3.5568,-3.5405,-3.5295,-3.5199,-3.5199,-3.5007,-3.5173,-3.4923,-3.4257,-3.3603,-3.3103]},{"header":{"parameterUnit":"m.s-1","parameterCategory":1,"la1":31.0,"la2":29.5877,"lo1":-88.7671,"lo2":-86.6584,"dy":0.0162,"dx":0.0185,"nx":115,"ny":88,"refTime":"2026-03-09T12:00:00:Z","depth":0,"parameterNumber":3,"parameterNumberName":"V-component_of_WINDS"},"data":[0.0,0.0,0.0,0.0,0.0,0.0,0.0,0.0,0.0,0.0,0.0,0.0,0.0,0.0,0.0,0.0,0.0,0.0,0.0,0.0,0.0,0.0,0.0,0.0,0.0,0.0,0.0,0.0,0.0,0.0,0.0,0.0,0.0,0.0,0.0,0.0,0.0,0.0,0.0,0.0,0.0,0.0,0.0,0.0,0.0,0.0,0.0,0.0,0.0,0.0,0.0,0.0,0.0,0.0,0.0,0.0,0.0,0.0,0.0,0.0,0.0,0.0,0.0,0.0,0.0,0.0,0.0,0.0,0.0,0.0,0.0,0.0,0.0,0.0,0.0,0.0,0.0,0.0,0.0,0.0,0.0,0.0,0.0,0.0,0.0,0.0,0.0,0.0,0.0,0.0,0.0,0.0,0.0,0.0,0.0,0.0,0.0,0.0,0.0,0.0,0.0,0.0,0.0,0.0,0.0,0.0,0.0,0.0,0.0,0.0,0.0,0.0,0.0,0.0,0.0,0.0,0.0,0.0,0.0,0.0,0.0,0.0,0.0,0.0,0.0,0.0,0.0,0.0,0.0,0.0,0.0,0.0,0.0,0.0,0.0,0.0,0.0,0.0,0.0,0.0,0.0,0.0,0.0,0.0,0.0,0.0,0.0,0.0,0.0,0.0,0.0,0.0,0.0,0.0,0.0,0.0,0.0,0.0,0.0,0.0,0.0,0.0,0.0,0.0,0.0,0.0,0.0,0.0,0.0,0.0,0.0,0.0,0.0,0.0,0.0,0.0,0.0,0.0,0.0,0.0,0.0,0.0,0.0,0.0,0.0,0.0,0.0,0.0,0.0,0.0,0.0,0.0,0.0,0.0,0.0,0.0,0.0,0.0,0.0,0.0,0.0,0.0,0.0,0.0,0.0,0.0,0.0,0.0,0.0,0.0,0.0,0.0,0.0,0.0,0.0,0.0,0.0,0.0,0.0,0.0,0.0,0.0,0.0,0.0,0.0,0.0,0.0,0.0,0.0,0.0,0.0,0.0,0.0,0.0,0.0,0.0,0.0,0.0,0.0,0.0,0.0,0.0,0.0,0.0,0.0,0.0,0.0,0.0,0.0,0.0,0.0,0.0,0.0,0.0,0.0,0.0,0.0,0.0,0.0,0.0,0.0,0.0,0.0,0.0,0.0,0.0,0.0,0.0,0.0,0.0,0.0,0.0,0.0,0.0,0.0,0.0,0.0,0.0,0.0,0.0,0.0,0.0,0.0,0.0,0.0,0.0,0.0,0.0,0.0,0.0,0.0,0.0,0.0,0.0,0.0,0.0,0.0,0.0,0.0,0.0,0.0,0.0,0.0,0.0,0.0,0.0,0.0,0.0,0.0,0.0,0.0,0.0,0.0,0.0,0.0,0.0,0.0,0.0,0.0,0.0,0.0,0.0,0.0,0.0,0.0,0.0,0.0,0.0,0.0,0.0,0.0,0.0,0.0,0.0,0.0,0.0,0.0,0.0,0.0,0.0,0.0,0.0,0.0,0.0,0.0,0.0,0.0,0.0,0.0,0.0,0.0,0.0,0.0,0.0,0.0,0.0,0.0,0.0,0.0,0.0,0.0,0.0,0.0,0.0,0.0,0.0,0.0,0.0,0.0,0.0,0.0,0.0,0.0,0.0,0.0,0.0,0.0,0.0,0.0,0.0,0.0,0.0,0.0,0.0,0.0,0.0,0.0,0.0,0.0,0.0,0.0,0.0,0.0,0.0,0.0,0.0,0.0,0.0,0.0,0.0,0.0,0.0,0.0,0.0,0.0,0.0,0.0,0.0,0.0,0.0,0.0,0.0,0.0,0.0,0.0,0.0,0.0,0.0,0.0,0.0,0.0,0.0,0.0,0.0,0.0,0.0,0.0,0.0,0.0,0.0,0.0,0.0,0.0,0.0,0.0,0.0,0.0,0.0,0.0,0.0,0.0,0.0,0.0,0.0,0.0,0.0,0.0,0.0,0.0,0.0,0.0,0.0,0.0,0.0,0.0,0.0,0.0,0.0,0.0,0.0,0.0,0.0,0.0,0.0,0.0,0.0,0.0,0.0,0.0,0.0,0.0,0.0,0.0,0.0,0.0,0.0,0.0,0.0,0.0,0.0,0.0,0.0,0.0,0.0,0.0,0.0,0.0,0.0,0.0,0.0,0.0,0.0,0.0,0.0,0.0,0.0,0.0,0.0,0.0,0.0,0.0,0.0,0.0,0.0,0.0,0.0,0.0,0.0,0.0,0.0,0.0,0.0,0.0,0.0,0.0,0.0,0.0,0.0,0.0,0.0,0.0,0.0,0.0,0.0,0.0,0.0,0.0,0.0,0.0,0.0,0.0,0.0,0.0,0.0,0.0,0.0,0.0,0.0,0.0,0.0,0.0,0.0,0.0,0.0,0.0,0.0,0.0,0.0,0.0,0.0,0.0,0.0,0.0,0.0,0.0,0.0,0.0,0.0,0.0,0.0,0.0,0.0,0.0,0.0,0.0,0.0,0.0,0.0,0.0,0.0,0.0,0.0,0.0,0.0,0.0,0.0,0.0,0.0,0.0,0.0,0.0,0.0,0.0,0.0,0.0,0.0,0.0,0.0,0.0,0.0,0.0,0.0,0.0,0.0,0.0,0.0,0.0,0.0,0.0,0.0,0.0,0.0,0.0,0.0,0.0,0.0,0.0,0.0,0.0,0.0,0.0,0.0,0.0,0.0,0.0,0.0,0.0,0.0,0.0,0.0,0.0,0.0,0.0,0.0,0.0,0.0,0.0,0.0,0.0,0.0,0.0,0.0,0.0,0.0,0.0,0.0,0.0,0.0,0.0,0.0,0.0,0.0,0.0,0.0,0.0,0.0,0.0,0.0,0.0,0.0,0.0,0.0,0.0,0.0,0.0,0.0,0.0,0.0,0.0,0.0,0.0,0.0,0.0,0.0,0.0,0.0,0.0,0.0,0.0,0.0,0.0,0.0,0.0,0.0,0.0,0.0,0.0,0.0,0.0,0.0,0.0,0.0,0.0,0.0,0.0,0.0,0.0,0.0,0.0,0.0,0.0,0.0,0.0,0.0,0.0,0.0,0.0,0.0,0.0,0.0,0.0,0.0,0.0,0.0,0.0,0.0,0.0,0.0,0.0,0.0,0.0,0.0,0.0,0.0,0.0,0.0,0.0,0.0,0.0,0.0,0.0,0.0,0.0,0.0,0.0,0.0,0.0,0.0,0.0,0.0,0.0,0.0,0.0,0.0,0.0,0.0,0.0,0.0,0.0,0.0,0.0,0.0,0.0,0.0,0.0,0.0,0.0,0.0,0.0,0.0,0.0,0.0,0.0,0.0,0.0,0.0,0.0,0.0,0.0,0.0,0.0,0.0,0.0,0.0,0.0,0.0,0.0,0.0,0.0,0.0,0.0,0.0,0.0,0.0,0.0,0.0,0.0,0.0,0.0,0.0,0.0,0.0,0.0,0.0,0.0,0.0,0.0,0.0,0.0,0.0,0.0,0.0,0.0,0.0,0.0,0.0,0.0,0.0,0.0,0.0,0.0,0.0,0.0,0.0,0.0,0.0,0.0,0.0,0.0,0.0,0.0,0.0,0.0,0.0,0.0,0.0,0.0,0.0,0.0,0.0,0.0,0.0,0.0,0.0,0.0,0.0,0.0,0.0,0.0,0.0,0.0,0.0,0.0,0.0,0.0,0.0,0.0,0.0,0.0,0.0,0.0,0.0,0.0,0.0,0.0,0.0,0.0,0.0,0.0,0.0,0.0,0.0,0.0,0.0,0.0,0.0,0.0,0.0,0.0,0.0,0.0,0.0,0.0,0.0,0.0,0.0,0.0,0.0,0.0,0.0,0.0,0.0,0.0,0.0,0.0,0.0,0.0,0.0,0.0,0.0,0.0,0.0,0.0,0.0,0.0,0.0,0.0,0.0,0.0,0.0,0.0,0.0,0.0,0.0,0.0,0.0,0.0,0.0,0.0,0.0,0.0,0.0,0.0,0.0,0.0,0.0,0.0,0.0,0.0,0.0,0.0,0.0,0.0,0.0,0.0,0.0,0.0,0.0,0.0,0.0,0.0,0.0,0.0,0.0,0.0,0.0,0.0,0.0,0.0,0.0,0.0,0.0,0.0,0.0,0.0,0.0,0.0,0.0,0.0,0.0,0.0,0.0,0.0,0.0,0.0,0.0,0.0,0.0,0.0,0.0,0.0,0.0,0.0,0.0,0.0,0.0,0.0,0.0,0.0,0.0,0.0,0.0,0.0,0.0,0.0,0.0,-0.2194,0.0,0.0,0.0,0.0,0.0,0.0,0.0,0.0,0.0,0.0,0.0,0.0,0.0,0.0,0.0,0.0,0.0,0.0,0.0,0.0,0.0,0.0,0.0,0.0,0.0,0.0,0.0,0.0,0.0,0.0,0.0,0.0,0.0,0.0,0.0,0.0,0.0,0.0,0.0,0.0,0.0,0.0,0.0,0.0,0.0,0.0,0.0,0.0,0.0,0.0,0.0,0.0,0.0,0.0,0.0,0.0,0.0,0.0,0.0,0.0,0.0,0.0,0.0,0.0,0.0,0.0,0.0,0.0,0.0,0.0,0.0,0.0,0.0,0.0,0.0,0.0,0.0,0.0,0.0,0.0,0.0,0.0,0.0,0.0,0.0,0.0,0.0,0.0,0.0,0.0,0.0,0.0,0.0,0.0,0.0,0.0,0.0,0.0,0.0,0.0,0.0,0.0,0.0,0.0,0.0,0.0,0.0,0.0,0.0,0.0,-0.2491,-0.2423,-0.2281,-0.2171,-0.208,0.0,0.0,0.0,0.0,0.0,0.0,0.0,0.0,0.0,0.0,0.0,0.0,0.0,0.0,0.0,0.0,0.0,0.0,0.0,0.0,0.0,0.0,0.0,0.0,0.0,0.0,0.0,0.0,0.0,0.0,0.0,0.0,0.0,0.0,0.0,0.0,0.0,0.0,0.0,0.0,0.0,0.0,0.0,0.0,0.0,0.0,0.0,0.0,0.0,0.0,0.0,0.0,0.0,0.0,0.0,0.0,0.0,0.0,0.0,0.0,0.0,0.0,0.0,0.0,0.0,0.0,0.0,0.0,0.0,0.0,0.0,0.0,0.0,0.0,0.0,0.0,0.0,0.0,0.0,0.0,0.0,0.0,0.0,0.0,0.0,0.0,0.0,0.0,0.0,0.0,0.0,0.0,0.0,0.0,0.0,0.0,0.0,0.0,0.0,0.0,0.0,0.0,0.0,0.0,0.0,0.0,0.0,0.0,0.0,0.0,0.0,0.0,-0.2278,-0.2214,-0.212,0.0,0.0,0.0,0.0,0.0,0.0,0.0,0.0,0.0,0.0,0.0,0.0,0.0,0.0,0.0,0.0,0.0,0.0,0.0,0.0,0.0,0.0,0.0,0.0,0.0,0.0,0.0,0.0,0.0,0.0,0.0,0.0,0.0,0.0,0.0,0.0,0.0,0.0,0.0,0.0,0.0,0.0,0.0,0.0,0.0,0.0,0.0,0.0,0.0,0.0,0.0,0.0,0.0,0.0,0.0,0.0,0.0,0.0,0.0,0.0,0.0,0.0,0.0,0.0,0.0,0.0,0.0,0.0,0.0,0.0,0.0,0.0,0.0,0.0,0.0,0.0,0.0,0.0,0.0,0.0,0.0,0.0,0.0,0.0,0.0,0.0,0.0,0.0,0.0,0.0,0.0,0.0,0.0,0.0,0.0,0.0,0.0,0.0,0.0,0.0,0.0,0.0,0.0,0.0,0.0,0.0,0.0,0.0,0.0,0.0,-0.2238,-0.2638,-0.2534,0.0,-0.2445,0.0,0.0,0.0,0.0,0.0,0.0,0.0,0.0,0.0,0.0,0.0,0.0,0.0,0.0,0.0,0.0,0.0,0.0,0.0,0.0,0.0,0.0,0.0,0.0,0.0,0.0,0.0,0.0,0.0,0.0,0.0,0.0,0.0,0.0,0.0,0.0,0.0,0.0,0.0,0.0,0.0,0.0,0.0,0.0,0.0,0.0,0.0,0.0,0.0,0.0,0.0,0.0,0.0,0.0,0.0,0.0,0.0,0.0,0.0,0.0,0.0,0.0,0.0,0.0,0.0,0.0,0.0,0.0,0.0,0.0,0.0,0.0,0.0,0.0,0.0,0.0,0.0,0.0,0.0,0.0,0.0,0.0,0.0,0.0,0.0,0.0,0.0,0.0,0.0,0.0,0.0,0.0,0.0,0.0,0.0,0.0,0.0,0.0,0.0,0.0,0.0,0.0,0.0,0.0,0.0,0.0,0.0,0.0,0.0,0.0,0.0,-0.2403,-0.2361,-0.2379,0.0,0.0,0.0,0.0,0.0,0.0,0.0,0.0,0.0,0.0,0.0,0.0,0.0,0.0,0.0,0.0,0.0,0.0,0.0,0.0,0.0,0.0,0.0,0.0,0.0,0.0,0.0,0.0,0.0,0.0,0.0,0.0,0.0,0.0,0.0,0.0,0.0,0.0,0.0,0.0,0.0,0.0,0.0,0.0,0.0,0.0,0.0,0.0,0.0,0.0,0.0,0.0,0.0,0.0,0.0,0.0,0.0,0.0,0.0,0.0,0.0,0.0,0.0,0.0,0.0,0.0,0.0,0.0,0.0,0.0,0.0,0.0,0.0,0.0,0.0,0.0,0.0,0.0,0.0,0.0,0.0,0.0,0.0,0.0,0.0,0.0,0.0,0.0,0.0,0.0,0.0,0.0,0.0,0.0,0.0,0.0,0.0,0.0,0.0,0.0,0.0,0.0,0.0,0.0,0.0,0.0,0.0,0.0,0.0,0.0,-0.2297,0.0,-0.2346,-0.2305,-0.2312,-0.2406,0.0,0.0,0.0,0.0,0.0,0.0,0.0,0.0,0.0,0.0,0.0,0.0,0.0,0.0,0.0,0.0,0.0,0.0,0.0,0.0,0.0,0.0,0.0,0.0,0.0,0.0,0.0,0.0,0.0,0.0,0.0,0.0,0.0,0.0,0.0,0.0,0.0,0.0,0.0,0.0,0.0,0.0,0.0,0.0,0.0,0.0,0.0,0.0,0.0,0.0,0.0,0.0,0.0,0.0,0.0,0.0,0.0,0.0,0.0,0.0,0.0,0.0,0.0,0.0,0.0,0.0,0.0,0.0,0.0,0.0,0.0,0.0,0.0,0.0,0.0,0.0,0.0,0.0,0.0,0.0,0.0,0.0,0.0,0.0,0.0,0.0,0.0,0.0,0.0,0.0,0.0,0.0,0.0,0.0,0.0,0.0,0.0,0.0,0.0,0.0,0.0,0.0,0.0,0.0,0.0,0.0,0.0,0.0,0.0,-0.2363,-0.2366,-0.2658,-0.2563,-0.2399,0.0,0.0,0.0,0.0,0.0,0.0,0.0,0.0,0.0,0.0,0.0,0.0,0.0,0.0,0.0,0.0,0.0,0.0,0.0,0.0,0.0,0.0,0.0,0.0,0.0,0.0,0.0,0.0,0.0,0.0,0.0,0.0,0.0,0.0,0.0,0.0,0.0,0.0,0.0,0.0,0.0,0.0,0.0,0.0,0.0,0.0,0.0,0.0,0.0,0.0,0.0,0.0,0.0,0.0,0.0,0.0,0.0,0.0,0.0,0.0,0.0,0.0,0.0,0.0,0.0,0.0,0.0,0.0,0.0,0.0,0.0,0.0,0.0,0.0,0.0,0.0,0.0,0.0,0.0,0.0,0.0,0.0,0.0,0.0,0.0,0.0,0.0,0.0,0.0,0.0,0.0,0.0,0.0,0.0,0.0,0.0,0.0,0.0,0.0,0.0,0.0,0.0,0.0,0.0,0.0,0.0,0.0,0.0,0.0,-0.2364,-0.2259,-0.2398,-0.2795,-0.2496,-0.2337,0.0,0.0,0.0,0.0,0.0,0.0,0.0,0.0,0.0,0.0,0.0,0.0,0.0,0.0,0.0,0.0,0.0,0.0,0.0,0.0,0.0,0.0,0.0,0.0,0.0,0.0,0.0,0.0,0.0,0.0,0.0,0.0,0.0,0.0,0.0,0.0,0.0,0.0,0.0,0.0,0.0,0.0,0.0,0.0,0.0,0.0,0.0,0.0,0.0,0.0,0.0,0.0,0.0,0.0,0.0,0.0,0.0,0.0,0.0,0.0,0.0,0.0,0.0,0.0,0.0,0.0,0.0,0.0,0.0,0.0,0.0,0.0,0.0,0.0,0.0,0.0,0.0,0.0,0.0,0.0,0.0,0.0,0.0,0.0,0.0,0.0,0.0,0.0,0.0,0.0,0.0,0.0,0.0,0.0,0.0,0.0,0.0,0.0,0.0,0.0,0.0,0.0,0.0,0.0,0.0,0.0,0.0,0.0,0.0,-0.2424,0.0,-0.2506,0.0,-0.241,-0.2235,0.0,0.0,0.0,0.0,0.0,0.0,0.0,0.0,0.0,0.0,0.0,0.0,0.0,0.0,0.0,0.0,0.0,0.0,0.0,0.0,0.0,0.0,0.0,0.0,0.0,0.0,0.0,0.0,0.0,0.0,0.0,0.0,0.0,0.0,0.0,0.0,0.0,0.0,0.0,0.0,0.0,0.0,0.0,0.0,0.0,0.0,0.0,0.0,0.0,0.0,0.0,0.0,0.0,0.0,0.0,0.0,0.0,0.0,0.0,0.0,0.0,0.0,0.0,0.0,0.0,0.0,0.0,0.0,0.0,0.0,0.0,0.0,0.0,0.0,0.0,0.0,0.0,0.0,0.0,0.0,0.0,0.0,0.0,0.0,0.0,0.0,0.0,0.0,0.0,0.0,0.0,0.0,0.0,0.0,0.0,0.0,0.0,0.0,0.0,0.0,0.0,0.0,0.0,0.0,0.0,0.0,0.0,0.0,-0.2776,-0.2862,-0.274,-0.263,-0.2508,-0.2302,-0.2086,0.0,0.0,0.0,0.0,0.0,0.0,0.0,0.0,0.0,0.0,0.0,0.0,0.0,0.0,0.0,0.0,0.0,0.0,0.0,0.0,0.0,0.0,0.0,0.0,0.0,0.0,0.0,0.0,0.0,0.0,0.0,0.0,0.0,0.0,0.0,0.0,0.0,0.0,0.0,0.0,0.0,0.0,0.0,0.0,0.0,0.0,0.0,0.0,0.0,0.0,0.0,0.0,0.0,0.0,0.0,0.0,0.0,0.0,0.0,0.0,0.0,0.0,0.0,0.0,0.0,0.0,0.0,0.0,0.0,0.0,0.0,0.0,0.0,0.0,0.0,0.0,0.0,0.0,0.0,0.0,0.0,0.0,0.0,0.0,0.0,0.0,0.0,0.0,0.0,0.0,0.0,0.0,0.0,0.0,0.0,0.0,0.0,0.0,0.0,0.0,0.0,0.0,0.0,0.0,0.0,0.0,0.0,0.0,0.0,-0.257,-0.2568,-0.2598,-0.263,-0.2266,-0.213,0.0,0.0,0.0,0.0,0.0,0.0,0.0,0.0,0.0,0.0,0.0,0.0,0.0,0.0,0.0,0.0,0.0,0.0,0.0,0.0,0.0,0.0,0.0,0.0,0.0,0.0,0.0,0.0,0.0,0.0,0.0,0.0,0.0,0.0,0.0,0.0,0.0,0.0,0.0,0.0,0.0,0.0,0.0,0.0,0.0,0.0,0.0,0.0,0.0,0.0,0.0,0.0,0.0,0.0,0.0,0.0,0.0,0.0,0.0,0.0,0.0,0.0,0.0,0.0,0.0,0.0,0.0,0.0,0.0,0.0,0.0,0.0,0.0,0.0,0.0,0.0,0.0,0.0,0.0,0.0,0.0,0.0,0.0,0.0,0.0,0.0,0.0,0.0,0.0,0.0,0.0,0.0,0.0,0.0,0.0,0.0,0.0,0.0,0.0,0.0,0.0,0.0,0.0,0.0,0.0,0.0,0.0,0.0,0.0,-0.2749,-0.2717,-0.271,-0.2679,-0.2423,-0.2269,-0.2293,0.0,0.0,0.0,0.0,0.0,0.0,0.0,0.0,0.0,0.0,0.0,0.0,0.0,0.0,0.0,0.0,0.0,0.0,0.0,0.0,0.0,0.0,0.0,0.0,0.0,0.0,0.0,0.0,0.0,0.0,0.0,0.0,0.0,0.0,0.0,0.0,0.0,0.0,0.0,0.0,0.0,0.0,0.0,0.0,0.0,0.0,0.0,0.0,0.0,0.0,0.0,0.0,0.0,0.0,0.0,0.0,0.0,0.0,0.0,0.0,0.0,0.0,0.0,0.0,0.0,0.0,0.0,0.0,0.0,0.0,0.0,0.0,0.0,0.0,0.0,0.0,0.0,0.0,0.0,0.0,0.0,0.0,0.0,0.0,0.0,0.0,0.0,0.0,0.0,0.0,0.0,0.0,0.0,0.0,0.0,0.0,0.0,0.0,0.0,0.0,0.0,0.0,0.0,0.0,0.0,0.0,0.0,0.0,-0.3352,-0.321,-0.3012,-0.2751,-0.271,-0.2513,0.0,0.0,0.0,0.0,0.0,0.0,0.0,0.0,0.0,0.0,0.0,0.0,0.0,0.0,0.0,0.0,0.0,0.0,0.0,0.0,0.0,0.0,0.0,0.0,0.0,0.0,0.0,0.0,0.0,0.0,0.0,0.0,0.0,0.0,0.0,0.0,0.0,0.0,0.0,0.0,0.0,0.0,0.0,0.0,0.0,0.0,0.0,0.0,0.0,0.0,0.0,0.0,0.0,0.0,0.0,0.0,0.0,0.0,0.0,0.0,0.0,0.0,0.0,0.0,0.0,0.0,0.0,0.0,0.0,0.0,0.0,0.0,0.0,0.0,0.0,0.0,0.0,0.0,0.0,0.0,0.0,0.0,0.0,0.0,0.0,0.0,0.0,0.0,0.0,0.0,0.0,0.0,0.0,0.0,0.0,0.0,0.0,0.0,0.0,0.0,0.0,0.0,0.0,0.0,0.0,0.0,0.0,0.0,0.0,-0.4067,-0.3687,-0.3392,-0.3214,-0.287,-0.2696,0.0,0.0,0.0,0.0,0.0,0.0,0.0,0.0,0.0,0.0,0.0,0.0,0.0,0.0,0.0,0.0,0.0,0.0,0.0,0.0,0.0,0.0,0.0,0.0,0.0,0.0,0.0,0.0,0.0,0.0,0.0,0.0,0.0,0.0,0.0,0.0,0.0,0.0,0.0,0.0,0.0,0.0,0.0,0.0,0.0,0.0,0.0,0.0,0.0,0.0,0.0,0.0,0.0,0.0,0.0,0.0,0.0,0.0,0.0,0.0,0.0,0.0,0.0,0.0,0.0,0.0,0.0,0.0,0.0,0.0,0.0,0.0,0.0,0.0,0.0,0.0,0.0,0.0,0.0,0.0,0.0,0.0,0.0,0.0,0.0,0.0,0.0,0.0,0.0,0.0,0.0,0.0,0.0,0.0,0.0,0.0,0.0,0.0,0.0,0.0,0.0,0.0,0.0,0.0,0.0,0.0,0.0,0.0,-0.4006,-0.4582,-0.3943,-0.3563,-0.3492,-0.3215,-0.2996,0.0,0.0,0.0,0.0,0.0,0.0,0.0,0.0,0.0,0.0,0.0,0.0,0.0,0.0,0.0,0.0,0.0,0.0,0.0,0.0,0.0,0.0,0.0,0.0,0.0,0.0,0.0,0.0,0.0,0.0,0.0,0.0,0.0,0.0,0.0,0.0,0.0,0.0,0.0,0.0,0.0,0.0,0.0,0.0,0.0,0.0,0.0,0.0,0.0,0.0,0.0,0.0,0.0,0.0,0.0,0.0,0.0,0.0,0.0,0.0,0.0,0.0,0.0,0.0,0.0,0.0,0.0,0.0,0.0,0.0,0.0,0.0,0.0,0.0,0.0,0.0,0.0,0.0,0.0,0.0,0.0,0.0,0.0,0.0,0.0,0.0,0.0,0.0,0.0,0.0,0.0,0.0,0.0,0.0,0.0,0.0,0.0,0.0,0.0,0.0,0.0,0.0,0.0,0.0,0.0,0.0,0.0,0.0,-0.4271,-0.4787,-0.4032,-0.36,-0.36,-0.3587,-0.3317,0.0,0.0,0.0,0.0,0.0,0.0,0.0,0.0,0.0,0.0,0.0,0.0,0.0,0.0,0.0,0.0,0.0,0.0,0.0,0.0,0.0,0.0,0.0,0.0,0.0,0.0,0.0,0.0,0.0,0.0,0.0,0.0,0.0,0.0,0.0,0.0,0.0,0.0,0.0,0.0,0.0,0.0,0.0,0.0,0.0,0.0,0.0,0.0,0.0,0.0,0.0,0.0,0.0,0.0,0.0,0.0,0.0,0.0,0.0,0.0,0.0,0.0,0.0,0.0,0.0,0.0,0.0,0.0,0.0,0.0,0.0,0.0,0.0,0.0,0.0,0.0,0.0,0.0,0.0,0.0,0.0,0.0,0.0,0.0,0.0,0.0,0.0,0.0,0.0,0.0,0.0,0.0,0.0,0.0,0.0,0.0,0.0,0.0,0.0,0.0,0.0,0.0,0.0,0.0,0.0,0.0,0.0,0.0,-0.4053,-0.4172,-0.3799,-0.36,-0.36,-0.3463,-0.3259,0.0,0.0,0.0,0.0,0.0,0.0,0.0,0.0,0.0,0.0,0.0,0.0,0.0,0.0,0.0,0.0,0.0,0.0,0.0,0.0,0.0,0.0,0.0,0.0,0.0,0.0,0.0,0.0,0.0,0.0,0.0,0.0,0.0,0.0,0.0,0.0,0.0,0.0,0.0,0.0,0.0,0.0,0.0,0.0,0.0,0.0,0.0,0.0,-0.0499,0.0,0.0,0.0,0.0,0.0,0.0,0.0,0.0,0.0,0.0,0.0,0.0,0.0,0.0,0.0,0.0,0.0,0.0,0.0,0.0,0.0,0.0,0.0,0.0,0.0,0.0,0.0,0.0,0.0,0.0,0.0,0.0,0.0,0.0,0.0,0.0,0.0,0.0,0.0,0.0,0.0,0.0,0.0,0.0,0.0,0.0,0.0,0.0,0.0,0.0,0.0,0.0,0.0,0.0,0.0,0.0,0.0,0.0,0.0,-0.4615,-0.4593,-0.4202,-0.3858,-0.3622,-0.35,-0.333,0.0,0.0,0.0,0.0,0.0,0.0,0.0,0.0,0.0,0.0,0.0,0.0,0.0,0.0,0.0,0.0,0.0,0.0,0.0,0.0,0.0,0.0,0.0,0.0,0.0,0.0,0.0,0.0,0.0,0.0,0.0,0.0,0.0,0.0,0.0,0.0,0.0,0.0,0.0,0.0,0.0,0.0,0.0,0.0,0.0,0.0,0.0,0.0,0.0,0.0,0.0,0.0,0.0,0.0,0.0,0.0,0.0,0.0,0.0,0.0,0.0,0.0,0.0,0.0,0.0,0.0,0.0,0.0,0.0,0.0,0.0,0.0,0.0,0.0,0.0,0.0,0.0,0.0,0.0,0.0,0.0,0.0,0.0,0.0,0.0,0.0,0.0,0.0,0.0,0.0,0.0,0.0,0.0,0.0,0.0,0.0,0.0,0.0,0.0,0.0,0.0,0.0,0.0,0.0,0.0,0.0,0.0,-0.5258,-0.5244,-0.5283,-0.4718,-0.4176,-0.3729,-0.3644,-0.3436,-0.3114,0.0,0.0,0.0,0.0,0.0,0.0,0.0,0.0,0.0,0.0,0.0,0.0,0.0,0.0,0.0,0.0,0.0,0.0,0.0,0.0,0.0,0.0,0.0,0.0,0.0,0.0,0.0,0.0,0.0,0.0,0.0,0.0,0.0,0.0,0.0,0.0,0.0,0.0,0.0364,0.0398,0.0,0.0,0.0,0.0,0.0,0.0,0.0,0.0,0.0109,0.0,0.0,0.0,0.0,0.0,0.0,0.0,0.0,0.0,0.0,0.0,0.0,0.0,0.0,0.0,0.0,0.0,0.0,0.0,0.0,0.0,0.0,0.0,0.0,0.0,0.0,0.0,0.0,0.0,0.0,0.0,0.0,0.0,0.0,0.0,0.0,0.0,0.0,0.0,0.0,0.0,0.0,0.0,0.0,0.0,0.0,0.0,0.0,0.0,0.0,0.0,0.0,0.0,0.0,0.0,0.0,-0.5305,-0.5091,-0.5082,-0.5283,-0.4718,-0.4347,-0.4264,-0.384,-0.3436,-0.3111,0.0,0.0,0.0,0.0,0.0,0.0,0.0,0.0,0.0,0.0,0.0,0.0,0.0,0.0,0.0,0.0,0.0,0.0,0.0,0.0,0.0,0.0,0.0,0.0,0.0,0.0,0.0,0.0,0.0,0.0,0.0,0.0,0.0,0.0,0.0,0.0,0.0,0.0,0.0,0.0392,0.031,0.0,0.0,0.0,0.0,0.0,0.0,0.0,0.0,0.0393,0.0,0.0,0.0,0.0,0.0,0.0,0.0,0.0,0.0,0.0,0.0,0.0,0.0,0.0,0.0,0.0,0.0,0.0,0.0,0.0,0.0,0.0,0.0,0.0,0.0,0.0,0.0,0.0,0.0,0.0,0.0,0.0,0.0,0.0,0.0,0.0,0.0,0.0,0.0,0.0,0.0,0.0,0.0,0.0,0.0,0.0,0.0,0.0,0.0,0.0,0.0,0.0,0.0,0.0,0.0,-0.5283,-0.562,-0.5773,-0.5765,-0.5195,-0.4718,-0.4408,-0.3821,-0.3378,0.0,0.0,0.0,0.0,0.0,0.0,0.0,0.0,0.0,0.0,0.0,0.0,0.0,0.0,0.0,0.0,0.0,0.0,0.0,0.0,0.0,0.0,0.0,0.0,0.0,0.0,0.0,0.0,0.0,0.0,0.0,0.0,0.0,0.0,0.0,0.0,0.0,0.0,0.0,0.0,0.0315,0.0307,0.0042,0.0,0.0,0.0,0.0,0.0,0.0,0.0786,0.0585,0.0,0.0,0.0,0.0,0.0,0.0,0.0,0.0,0.0,0.0,0.0,0.0,0.0,0.0,0.0,0.0,0.0,0.0,0.0,0.0,0.0,0.0,0.0,0.0,0.0,0.0,0.0,0.0,0.0,0.0,0.0,0.0,0.0,0.0,0.0,0.0,0.0,0.0,0.0,0.0,0.0,0.0,0.0,0.0,0.0,0.0,0.0,0.0,0.0,0.0,0.0,0.0,0.0,0.0,0.0,-0.5306,-0.6122,-0.6473,-0.6331,-0.5653,-0.5065,-0.4583,-0.3836,-0.3331,0.0,0.0,0.0,0.0,0.0,0.0,0.0,0.0,0.0,0.0,0.0,0.0,0.0,0.0,0.0,0.0,0.0,0.0,0.0,0.0,0.0,0.0,0.0,0.0,0.0,0.0,0.0,0.0,0.0,0.0,0.0,0.0,0.0,0.0,0.0,0.0,0.0,0.0,0.0,0.0,0.0,0.0283,0.0151,0.0369,0.0,0.0,0.0,0.0,0.139,0.1168,0.0,0.0,0.0,0.0,0.0,0.0,0.0,0.0,0.0,0.0,0.0,0.0,0.0,0.0,0.0,0.0,0.0,0.0,0.0,0.0,0.0,0.0,0.0,0.0,0.0,0.0,0.0,0.0,0.0,0.0,0.0,0.0,0.0,0.0,0.0,0.0,0.0,0.0,0.0,0.0,0.0,0.0,0.0,0.0,0.0,0.0,0.0,0.0,0.0,0.0,0.0,0.0,0.0,0.0,0.0,0.0,-0.5293,-0.5927,-0.6454,-0.6841,-0.5867,-0.526,-0.5173,-0.4142,-0.344,0.0,0.0,0.0,0.0,0.0,0.0,0.0,0.0,0.0,0.0,0.0,0.0,0.0,0.0,0.0,0.0,0.0,0.0,0.0,0.0,0.0,0.0,0.0,0.0,0.0,0.0,0.0,0.0,0.0,0.0,0.0,0.0,0.0,0.0,0.0,0.0,0.0,0.0,0.0,0.0,0.0,0.0185,0.0564,0.0849,0.1167,0.0,0.0,0.0,0.2342,0.218,0.0,0.0,0.0,0.0,0.0,0.0,0.0,0.0,0.0,0.0,0.0,0.0,0.0,0.0,0.0,0.0,0.0,0.0,0.0,0.0,0.0,0.0,0.0,0.0,0.0,0.0,0.0,0.0,0.0,0.0,0.0,0.0,0.0,0.0,0.0,0.0,0.0,0.0,0.0,0.0,0.0,0.0,0.0,0.0,0.0,0.0,0.0,0.0,0.0,0.0,0.0,0.0,0.0,0.0,0.0,-0.503,-0.5329,-0.6204,-0.6767,-0.6944,-0.5883,-0.5308,-0.5308,-0.4089,-0.3286,0.0,0.0,0.0,0.0,0.0,0.0,0.0,0.0,0.0,0.0,0.0,0.0,0.0,0.0,0.0,0.0,0.0,0.0,0.0,0.0,0.0,0.0,0.0,0.0,0.0,0.0,0.0,0.0,0.0,0.0,0.0,0.0,0.0,0.0,0.0,0.0,0.0,0.0,0.0,0.0,0.0,0.0,0.0673,0.1219,0.0,0.0,0.0,0.266,0.2713,0.0,0.0,0.0,0.0,0.0,0.0,0.0,0.0,0.0,0.0,0.0,0.0,0.0,0.0,0.0,0.0,0.0,0.0,0.0,0.0,0.0,0.0,0.0,0.0,0.0,0.0,0.0,0.0,0.0,0.0,0.0,0.0,0.0,0.0,0.0,0.0,0.0,0.0,0.0,0.0,0.0,0.0,0.0,0.0,0.0,0.0,0.0,0.0,0.0,0.0,0.0,0.0,0.0,0.0,0.0,0.0,0.0,-0.5404,-0.6447,-0.6993,-0.6951,-0.5867,-0.5308,-0.5281,-0.4036,0.0,0.0,0.0,0.0,0.0,0.0,0.0,0.0,0.0,0.0,0.0,0.0,0.0,0.0,0.0,0.0,0.0,0.0,0.0,0.0,0.0,0.0,0.0,0.0,0.0,0.0,0.0,0.0,0.0,0.0,0.0,0.0,0.0,0.0,0.0,0.0,0.0,0.0,0.0,0.0,0.0,0.0,0.0942,0.1053,0.1683,0.2146,0.0,0.0,0.2717,0.2867,0.2442,0.2004,0.0,0.0,0.0,0.0,0.0,0.0,0.0,0.0,0.0,0.0,0.0,0.0,0.0,0.0,0.0,0.0,0.0,0.0,0.0,0.0,0.0,0.0,0.0,0.0,0.0,0.0,0.0,0.0,0.0,0.0,0.0,0.0,0.0,0.0,0.0,0.0,0.0,0.0,0.0,0.0,0.0,0.0,0.0,0.0,0.0,0.0,0.0,0.0,0.0,0.0,0.0,0.0,0.0,0.0,0.0,-0.5705,-0.6547,-0.6993,-0.6979,-0.5883,-0.5308,-0.5286,-0.4176,-0.3378,0.0,0.0,0.0,0.0,0.0,0.0,0.0,0.0,0.0,0.0,0.0,0.0,0.0,0.0,0.0,0.0,0.0,0.0,0.0,0.0,0.0,0.0,0.0,0.0,0.0,0.0,0.0,0.0,0.0,0.0,0.0,0.0,0.0,0.0,0.0,0.0,0.0,0.0,0.0,0.0,0.0,0.1182,0.1986,0.2314,0.2604,0.0,0.0,0.2611,0.2859,0.2307,0.1837,0.1786,0.0,0.0,0.0,0.0,0.0,0.0,0.0,0.0,0.0,0.0,0.0,0.0,0.0,0.0,0.0,0.0,0.0,0.0,0.0,0.0,0.0,0.0,0.0,0.0,0.0,0.0,0.0,0.0,0.0,0.0,0.0,0.0,0.0,0.0,0.0,0.0,0.0,0.0,0.0,0.0,0.0,0.0,0.0,0.0,0.0,0.0,0.0,0.0,0.0,0.0,0.0,0.0,0.0,-0.5424,-0.5718,-0.656,-0.6993,-0.6979,-0.6237,-0.5674,-0.5308,-0.4526,-0.3735,0.0,0.0,0.0,0.0,0.0,0.0,0.0,0.0,0.0,0.0,0.0,0.0,0.0,0.0,0.0,0.0,0.0,0.0,0.0,0.0,0.0,0.0,0.0,0.0,0.0,0.0,0.0,0.0,0.0,0.0,0.0,0.0,0.0,0.0,0.0,0.0,0.0,0.0,0.0,0.0,0.0,0.2019,0.2338,0.2725,0.0,0.0,0.3129,0.2924,0.28,0.2679,0.2341,0.1598,0.1471,0.0,0.0,0.0,0.0,0.0,0.0,0.0,0.0,0.0,0.0,0.0,0.0,0.0,0.0,0.0,0.0,0.0,0.0,0.0,0.0,0.0,0.0,0.0,0.0,0.0,0.0,0.0,0.0,0.0,0.0,0.0,0.0,0.0,0.0,0.0,0.0,0.0,0.0,0.0,0.0,0.0,0.0,0.0,0.0,0.0,0.0,0.0,0.0,0.0,0.0,0.0,0.0,-0.5487,-0.5838,-0.66,-0.6993,-0.6993,-0.6477,-0.5916,-0.5324,-0.4718,-0.393,0.0,0.0,0.0,0.0,0.0,0.0,0.0,0.0,0.0,0.0,0.0,0.0,0.0,0.0,0.0,0.0,0.0,0.0,0.0,0.0,0.0,0.0,0.0,0.0,0.0,0.0,0.0,0.0,0.0,0.0,0.0,0.0,0.0,0.0,0.0,0.0,0.0,0.0,0.0,0.0,0.0,0.2544,0.271,0.3112,0.3419,0.344,0.3267,0.3056,0.2852,0.278,0.2484,0.1769,0.0,0.0,0.0,0.0,0.0,0.0,0.0,0.0,0.0,0.0,0.0,0.0,0.0,0.0,0.0,0.0,0.0,0.0,0.0,0.0,0.0,0.0,0.0,0.0,0.0,0.0,0.0,0.0,0.0,0.0,-0.4712,0.0,0.0,0.0,0.0,0.0,0.0,0.0,0.0,0.0,0.0,0.0,0.0,0.0,0.0,0.0,0.0,0.0,0.0,0.0,0.0,0.0,0.0,0.0,-0.6176,-0.672,-0.6993,-0.6979,-0.6498,-0.5916,-0.5329,-0.4718,-0.3934,-0.2938,0.0,0.0,0.0,0.0,0.0,0.0,0.0,0.0,0.0,0.0,0.0,0.0,0.0,0.0,0.0,0.0,0.0,0.0,0.0,0.0,0.0,0.0,0.0,0.0,0.0,0.0,0.0,0.0,0.0,0.0,0.0,0.0,0.0,0.0,0.0,0.0,0.0,0.0,0.0,0.2382,0.2694,0.3222,0.3455,0.359,0.3593,0.312,0.281,0.3033,0.2394,0.198,0.0,0.0,0.0,0.0,0.0,0.0,0.0,0.0,0.0,0.0,0.0,0.0,0.0,0.0,0.0,0.0,0.0,0.0,0.0,0.0,0.0,0.0,0.0,0.0,0.0,0.0,0.0,-0.6649,-0.6112,0.0,0.0,0.0,0.0,0.0,0.0,0.0,0.0,0.0,0.0,0.0,-0.8709,-0.9628,0.0,0.0,0.0,0.0,0.0,0.0,0.0,0.0,0.0,0.0,0.0,0.0,-0.5605,-0.6189,-0.6727,-0.6993,-0.6993,-0.6831,-0.6273,-0.5351,-0.5108,-0.432,-0.2956,0.0,0.0,0.0,0.0,0.0,0.0,0.0,0.0,0.0,0.0,0.0,0.0,0.0,0.0,0.0,0.0,0.0,0.0,0.0,0.0,0.0,0.0,0.0,0.0,0.0,0.0,0.0,0.0,0.0,0.0,0.0,0.0,0.0,0.0,0.0,0.0,0.0,0.2052,0.2587,0.2888,0.3148,0.3451,0.3566,0.36,0.0,0.0,0.0,0.0,0.0,0.0,0.0,0.0,0.0,0.0,0.0,0.0,0.0,0.0,0.2098,0.1785,0.1877,0.201,0.1997,0.0,0.0,0.0,0.0,0.0,0.0,0.0,0.0,0.0,0.0,0.0,0.0,0.0,0.0,-0.8234,0.0,-0.7964,0.0,0.0,0.0,0.0,0.0,0.0,0.0,0.0,-0.9392,-0.9913,-0.994,-1.0746,-1.085,0.0,-0.9935,-0.9196,0.0,0.0,0.0,0.0,0.0,0.0,0.0,0.0,-0.5752,-0.633,-0.678,-0.6993,-0.6979,-0.681,-0.6258,-0.5324,-0.4843,-0.4111,-0.3111,-0.2383,-0.1915,0.0,0.0,0.0,0.0,0.0,0.0,0.0,0.0,0.0,0.0,0.0,0.0,0.0,0.0,0.0,0.0,0.0,0.0,0.0,0.0,0.0,0.0,0.0,0.0,0.0,0.0,0.0,0.0,0.0,0.0,0.0,0.0,0.0,0.1721,0.2124,0.2548,0.2991,0.3046,0.3173,0.3536,0.0,0.0,0.0,0.0,0.0,0.0,0.0,0.3072,0.2322,0.2479,0.2585,0.2263,0.2107,0.1962,0.1839,0.0,0.0,0.2326,0.2396,0.2442,0.2438,0.2442,0.2438,0.2442,0.2463,0.2496,0.0,0.0,0.0,0.0,0.0,0.0,0.0,0.0,-0.9631,-0.953,0.0,-0.9476,0.0,0.0,0.0,0.0,0.0,0.0,0.0,0.0,-1.0863,-1.1338,-1.1592,-1.1636,-1.1636,-1.1602,-1.1297,-1.0705,-0.9795,-0.7662,0.0,0.0,0.0,0.0,0.0,0.0,-0.6025,-0.6587,-0.688,-0.7006,-0.6985,-0.6498,-0.5894,-0.526,-0.4017,-0.3396,-0.3361,-0.249,-0.199,-0.1971,-0.0963,0.0,0.0,0.0,0.0,0.0,0.0,0.0,0.0,0.0,0.0,0.0,0.0,0.0,0.0,0.0,0.0,0.0,0.0,0.0,0.0,0.0011,0.0,0.0,0.0,0.0,0.0,0.0,0.0,0.0,0.0,0.0,0.2016,0.2421,0.2877,0.3246,0.0,0.0,0.0,0.0,0.286,0.343,0.3651,0.3612,0.3275,0.3499,0.3347,0.2347,0.0,0.0,0.1456,0.1449,0.1495,0.1156,0.1668,0.2389,0.3047,0.301,0.2889,0.29,0.2875,0.2892,0.2899,0.2956,0.3057,-0.8714,0.0,0.0,0.0,0.0,-0.9393,-1.0108,-1.1027,-1.1339,-1.1243,-1.086,-1.0985,0.0,0.0,0.0,0.0,0.0,0.0,-0.9517,-1.0389,-1.0942,-1.1486,-1.2018,-1.2377,-1.2367,-1.2018,-1.1472,-1.0886,-1.0225,-0.8785,-0.7359,-0.6001,0.0,0.0,0.0,0.0,-0.652,-0.6867,-0.7209,-0.7235,-0.6985,-0.6477,-0.5701,-0.4691,-0.4297,-0.3833,-0.3351,-0.2384,-0.1821,-0.1711,-0.0681,0.0,0.0,0.0,0.0,0.0,0.0,0.0,0.0,0.0,0.0,0.0,0.0,0.0,0.0,0.0,0.0,0.0,0.0,0.0,0.0257,0.029,0.0297,0.0,0.0,0.0,0.0,0.0,0.0,0.0,0.0,0.0,0.2112,0.2718,0.3165,0.0,0.0,0.2715,0.293,0.2446,0.2121,0.2284,0.0,0.0,0.0,0.2225,0.2149,0.1937,0.1998,0.1837,0.1148,0.1047,0.1069,0.0955,0.1111,0.1471,0.2106,0.2693,0.2997,0.304,0.304,0.3059,0.3044,0.3077,0.3104,-0.9372,-0.865,-0.8894,-0.9552,-1.0399,-1.0789,-1.1635,-1.2719,-1.2878,-1.2808,-1.2578,-1.2602,-1.2132,-1.1289,-1.0689,0.0,0.0,0.0,-0.983,-1.0589,-1.1173,-1.1639,-1.2035,-1.2329,-1.2319,-1.2011,-1.1085,-1.0499,-1.0154,-0.9198,-0.8125,-0.6962,0.0,0.0,-0.6413,-0.664,-0.6907,-0.7181,-0.7255,-0.7201,-0.7006,-0.6471,-0.5631,-0.4452,-0.4387,-0.4085,-0.3442,-0.2596,-0.2015,-0.17,-0.0829,-0.0333,0.0,0.0,0.0,0.0,0.0,0.0,0.0,0.0,0.0,0.0,0.0,0.0172,0.0,0.0,0.0,0.0,0.016,0.0345,0.0501,0.073,0.0,0.0,0.0,0.0,0.0,0.0,0.0,0.0919,0.1339,0.1696,0.1937,0.2402,0.2791,0.3025,0.2645,0.2336,0.2336,0.0,0.153,0.1761,0.184,0.1865,0.1789,0.1775,0.1706,0.1472,0.1251,0.0984,0.0627,0.056,0.0538,0.056,0.0739,0.1006,0.1364,0.2071,0.2575,0.2596,0.2596,0.266,0.2882,0.2943,0.299,-1.002,-0.9841,-1.0422,-1.1135,-1.195,-1.2575,-1.3295,-1.4077,-1.4104,-1.4114,-1.4114,-1.4024,-1.3572,-1.2734,-1.1267,0.0,0.0,-1.0197,-1.0375,-1.0819,-1.1428,-1.1755,-1.178,-1.1778,-1.176,-1.171,-1.0431,-0.9795,-0.9755,-0.9126,-0.8505,-0.7979,-0.7715,-0.7594,-0.7511,-0.7255,-0.7268,-0.7551,-0.7255,-0.7011,-0.6943,-0.6498,-0.5674,-0.4452,-0.4456,-0.4198,-0.36,-0.3009,-0.2452,-0.189,-0.1269,-0.066,-0.0118,0.0,0.0,0.0,0.0,0.0,0.0,0.0,0.0,0.0,0.0,0.0,0.0,0.0,0.0,0.0,0.043,0.0,0.0797,0.1305,0.0,0.0,0.0,0.0912,0.0711,0.0707,0.0698,0.07,0.0,0.0,0.0,0.0,0.1986,0.2495,0.2081,0.1727,0.1725,0.1217,0.1034,0.1512,0.1735,0.1793,0.1575,0.1628,0.1504,0.0923,0.0359,0.0,0.0,0.0,0.0,0.0,0.0449,0.0828,0.0828,0.1292,0.1674,0.1644,0.1757,0.2002,0.2458,0.2588,0.2742,-1.0621,-1.0385,-1.0533,-1.11,-1.1894,-1.2069,-1.2877,-1.4077,-1.4114,-1.4114,-1.4051,-1.3449,-1.2752,-1.1929,-1.1061,-1.0639,-1.0551,-1.0049,-1.0161,-1.072,-1.0879,-1.1229,-1.1703,-1.1517,-1.1409,-1.134,-1.0317,-0.9795,-0.9769,-0.9113,-0.8711,-0.8597,-0.8524,-0.8263,-0.7849,-0.7976,-0.8114,-0.8188,-0.7846,-0.7263,-0.6432,-0.6662,-0.6033,-0.4452,-0.4848,-0.4613,-0.3644,-0.3034,-0.2639,-0.2476,-0.1474,-0.0826,-0.0696,-0.0243,0.0,0.0,0.0,0.0,0.0,0.0,0.0,0.0,0.0,0.0,0.0,0.0,0.0,0.0,0.0424,0.0966,0.1614,0.1828,0.0,0.0,0.149,0.1458,0.0777,0.0701,0.0702,0.0708,0.0911,0.1062,0.1054,0.1488,0.1674,0.1386,0.1219,0.1101,0.1102,0.061,0.0259,0.0,0.0,0.0476,0.0,0.0475,0.0,0.0247,0.0,0.0,0.0,0.0,0.0,0.0,0.0112,0.0202,0.0,0.0359,0.0,0.0493,0.114,0.1828,0.1984,0.2006,0.2053,-1.1096,-1.0942,-1.0975,-1.144,-1.2248,-1.2354,-1.3061,-1.4157,-1.453,-1.4475,-1.4092,-1.3093,-1.2244,-1.1506,-1.0938,-1.0551,-1.0236,-0.9882,-0.9904,-1.0272,-1.0572,-1.0906,-1.1251,-1.1099,-1.1032,-1.0997,-1.0007,-0.9541,-0.948,-0.8718,-0.8454,-0.8778,-0.8454,-0.8326,-0.8312,-0.8357,-0.8402,-0.8402,-0.809,-0.754,-0.6812,-0.6808,-0.6205,-0.4964,-0.4964,-0.461,-0.3718,-0.3368,-0.3018,-0.2624,-0.1766,-0.1157,-0.0825,-0.0298,0.0,0.0,0.0,0.0,0.0,0.0,0.0,0.0,0.0,0.0,0.0,0.0,0.0198,0.0,0.0949,0.0,0.216,0.2239,0.201,0.1498,0.1483,0.1282,0.0746,0.0534,0.0379,0.0388,0.0432,0.0502,0.0514,0.0784,0.0873,0.0538,0.048,0.051,0.0487,0.0186,0.0,0.0,0.0,0.0,0.0,0.0,0.0,0.0,0.0,0.0,0.0,0.0,0.0,0.0,0.0,0.0,0.0,0.0,0.0,0.0,0.0515,0.103,0.1341,0.1385,0.1451,-1.1463,-1.143,-1.143,-1.1833,-1.2576,-1.2854,-1.3453,-1.4306,-1.4863,-1.4658,-1.3819,-1.2767,-1.1919,-1.1204,-1.085,-1.0356,-0.9829,-0.98,-0.9829,-0.9858,-1.0414,-1.0697,-1.0689,-1.0653,-1.0631,-1.0559,-0.9588,-0.9097,-0.9056,-0.8203,-0.8102,-0.8645,-0.8078,-0.8053,-0.8633,-0.8416,-0.8328,-0.8395,-0.8116,-0.7789,-0.7409,-0.6904,-0.6246,-0.5455,-0.4967,-0.4419,-0.3835,-0.3812,-0.3436,-0.2676,-0.2114,-0.1545,-0.0866,-0.0306,0.0,0.0,0.0,0.0,0.0,0.0,0.0,0.0,0.0,0.0,0.0,0.0,0.0405,0.1389,0.1476,0.174,0.2317,0.2383,0.2151,0.1587,0.1133,0.0838,0.0618,0.0307,0.0112,0.0112,0.0135,0.0112,0.0157,0.0045,0.0,0.0,0.0,0.0,0.0,0.0,0.0,0.0,0.0,0.0,0.0,0.0,0.0,0.0,0.0,0.0,0.0,0.0,0.0,0.0,0.0,0.0,0.0,0.0,0.0,0.0,0.0,0.0,0.065,0.0784,0.0962,-1.165,-1.143,-1.143,-1.1491,-1.1724,-1.2439,-1.3461,-1.455,-1.3805,-1.3,-1.2251,-1.2012,-1.1474,-1.0743,-1.0657,-1.055,-1.0425,-1.0425,-1.0432,-1.0419,-1.0543,-1.0636,-1.0622,-1.0353,-1.0207,-1.0127,-0.9093,-0.855,-0.855,-0.8357,-0.82,-0.8078,-0.8084,-0.8011,-0.7895,0.0,0.0,0.0,-0.8342,-0.7861,-0.6967,-0.6812,-0.6216,-0.5043,-0.4802,0.0,-0.3839,-0.3812,-0.3668,-0.3369,-0.2473,0.0,0.0,0.0,0.0,0.0,0.0,0.0,0.0,0.0,0.0,0.0,-0.0018,0.0,0.0,0.0,0.026,0.0813,0.0859,0.1122,0.1711,0.1766,0.157,0.1111,0.0952,0.0691,0.0222,0.0491,0.0717,0.0739,0.0739,0.0716,0.0672,0.0337,0.0,0.0,0.0,0.0,0.0,0.0,0.0,0.0,0.0,0.0,0.0,0.0,0.0,0.0,0.0,0.0,0.0,0.0,0.0,0.0,0.0,0.0,0.0,0.0,0.0,0.0,0.0,0.0022,0.0135,0.0,0.0202,-1.1997,0.0,-1.1857,-1.1857,0.0,-1.2193,-1.2916,-1.3892,-1.3574,-1.2972,-1.2201,-1.1779,-1.1369,-1.0975,-1.0835,-1.0801,-1.0801,-1.0653,-1.0586,-1.0586,-1.0586,-1.0586,-1.0586,-0.9995,-0.9924,-1.029,-0.9156,-0.8819,-0.9207,-0.8729,-0.8387,-0.8161,-0.7879,-0.7591,-0.7329,-0.7566,-0.7982,-0.8591,-0.8242,-0.7713,-0.7073,-0.6401,-0.5731,-0.5006,0.0,0.0,0.0,0.0,0.0,0.0,0.0,0.0,0.0,0.0,0.0,0.0,0.0,0.0,0.0,0.0,0.0,0.0,0.0,0.0,0.0,0.0,0.0222,0.0738,0.0795,0.105,0.1604,0.1424,0.1158,0.0914,0.0895,0.0761,0.056,0.0984,0.1318,0.1319,0.1073,0.0895,0.0895,0.0381,0.0,0.0,0.0,0.0,0.0,0.0,0.0,0.0,0.0,0.0,0.0,0.0,0.0,0.0,0.0,0.0,0.0,0.0,0.0,0.0,0.0,0.0,0.0,0.0,0.0,0.0,0.0,0.0,0.0,0.0,0.0,-1.2187,-1.2077,-1.2224,-1.2305,-1.2278,-1.2051,-1.2337,-1.2975,0.0,0.0,0.0,-1.169,-1.143,-1.1375,-1.1176,-1.1069,-1.1049,-1.0801,-1.0673,-1.0667,-1.062,-1.053,-1.0333,-0.9786,-0.9817,-1.032,-0.9382,-0.9242,-0.9905,-0.9125,-0.8569,-0.822,-0.7644,-0.718,-0.6793,-0.7141,-0.7734,-0.8391,-0.7967,-0.7486,-0.6969,-0.5788,-0.503,-0.482,-0.3559,-0.3184,-0.377,-0.3342,-0.3226,-0.3452,-0.2573,-0.1928,-0.1643,-0.0618,0.0,0.0,0.0,0.0,0.0,0.0,0.0,0.0,0.0,0.0,0.0,0.0,0.0191,0.0691,0.0738,0.0938,0.1427,0.1033,0.0784,0.0873,0.0895,0.0918,0.1073,0.1585,0.1962,0.1895,0.1451,0.1051,0.1073,0.0448,0.0,0.0,0.0,0.0,0.0,0.0,0.0,0.0,0.0,0.0,0.0,0.0,0.0,0.0,0.0,0.0,0.0,0.0,0.0,0.0,0.0,0.0,0.0,0.0,0.0,0.0,0.0,0.0,0.0,0.0,0.0,-1.1805,-1.1087,-1.1959,-1.2305,-1.2298,-1.2258,-1.2318,-1.2447,-1.2733,-1.241,-1.1567,-1.1464,-1.143,-1.1389,-1.1349,-1.1335,-1.1309,-1.1062,-1.0929,0.0,-1.0713,-1.0206,-0.953,-1.011,-1.0072,-0.9492,-0.9296,-0.9279,-0.9368,-0.9269,-0.8668,-0.7757,-0.7639,-0.7127,-0.619,-0.6087,-0.6412,-0.7163,-0.7503,-0.7079,-0.5774,-0.4942,-0.4239,-0.3619,-0.2665,-0.2177,-0.2312,-0.2817,-0.3066,-0.2978,-0.2469,-0.2095,-0.1909,-0.0743,0.0,0.0,0.0,0.0,0.0,0.0,0.0,0.0,0.0,0.0,0.0,0.0,0.0048,0.0,0.0,0.0143,0.0236,0.0,0.0383,0.0831,0.0896,0.1097,0.1636,0.2239,0.2595,0.2571,0.2051,0.1654,0.1541,0.0695,0.0,0.0,0.0,0.0,0.0,0.0,0.0,0.0,0.0,0.0,0.0,0.0,0.0,0.0,0.0,0.0,0.0,0.0,0.0,0.0,0.0,0.0,0.0,0.0,0.0,0.0,0.0,0.0,0.0,0.0,0.0,-1.0714,-1.0864,-1.131,-1.1805,-1.2305,-1.2305,-1.2305,-1.2321,-1.2413,-1.2253,-1.1897,-1.1904,-1.1904,-1.1884,-1.1737,-1.167,-1.165,-1.1356,-1.1229,-1.1176,-1.0429,-0.9905,-0.9533,-0.93,-0.923,-0.9306,-0.93,-0.953,-0.9951,-0.953,-0.8788,-0.7768,-0.6809,-0.6212,-0.6125,-0.5985,-0.6066,-0.6413,-0.6476,-0.5995,-0.4925,-0.4213,-0.3503,-0.2788,-0.1951,-0.191,-0.2672,-0.2644,-0.2926,-0.3579,-0.3122,-0.2759,-0.2568,-0.1708,-0.1018,-0.064,-0.0614,-0.0401,-0.0027,0.0,0.0,0.0,0.0,0.0,0.0,0.0,0.0,0.0,0.0,0.0,0.0,0.0,0.0263,0.0933,0.129,0.1765,0.2409,0.305,0.3354,0.3242,0.2468,0.19,0.1813,0.0754,0.0,0.0,0.0,0.0143,0.0478,0.0,0.0,0.0,0.0,0.0,0.0,0.0,0.0,0.0,0.0,0.0,0.0,0.0,0.0,0.0,0.0,0.0,0.0,0.0,0.0,0.0,0.0,0.0,0.0,0.0,0.0,-0.9828,-1.0494,-1.086,-1.1539,-1.2398,-1.2331,-1.2305,-1.2305,-1.2305,-1.2305,-1.2305,-1.2305,-1.2305,-1.2278,-1.2064,-1.1971,-1.1931,-1.1405,-1.1171,-1.1069,-0.9951,-0.9288,-0.9096,-0.8508,-0.8598,-0.9085,-0.94,-0.9849,-1.0174,-0.9626,-0.8748,-0.765,-0.6004,-0.5463,-0.5994,-0.5864,-0.578,-0.5761,-0.532,-0.4804,-0.4234,-0.3522,-0.276,-0.198,-0.1228,-0.1452,-0.2676,-0.2399,-0.2756,-0.3874,-0.362,-0.3321,-0.314,-0.2546,-0.1871,-0.1197,-0.109,-0.0783,0.0,0.0,0.0,0.0,0.0,0.0,0.0,0.0,0.0,0.0,0.0,0.0,0.0,0.0,0.0328,0.1185,0.1712,0.2328,0.3166,0.359,0.3732,0.3498,0.2501,0.1688,0.1445,0.0662,0.0,0.0,0.0124,0.0302,0.0854,0.0467,0.0,0.0,0.0,0.0,0.0,0.0,0.0,0.0,0.0,0.0,0.0,0.0,0.0,0.0,0.0,0.0,0.0,0.0,0.0,0.0,0.0,0.0,0.0,0.0,0.0,-0.9642,-0.9821,-1.0858,-1.1953,-1.2609,-1.2394,-1.2288,-1.2288,-1.2311,-1.2305,-1.2345,-1.2311,-1.2281,-1.2305,-1.2271,-1.2251,-1.2108,-1.1032,-1.0509,-1.0343,-0.9108,-0.8098,-0.7597,-0.8672,-0.8997,-0.858,-0.9695,-0.9963,-0.945,-0.9291,-0.8425,-0.6883,-0.5833,-0.5401,-0.545,-0.5278,-0.5206,-0.5171,-0.4237,-0.3751,-0.3614,-0.2774,-0.1952,-0.1229,-0.0503,-0.0476,-0.1396,-0.1898,-0.2559,-0.3302,-0.3434,-0.3412,-0.3327,-0.2635,-0.1892,-0.1201,-0.109,-0.0783,0.0,0.0,0.0,0.0,0.0,0.0,0.0,0.0,0.0,0.0,0.0,0.0,0.0,0.0,0.0,0.1601,0.1876,0.2488,0.3458,0.3365,0.2983,0.2976,0.1875,0.1001,0.0992,0.0424,0.0301,0.0808,0.0356,0.0281,0.0867,0.0,0.0,0.0,0.0,0.0,0.0,0.0,0.0,0.0,0.0,0.0,0.0,0.0,0.0,0.0,0.0,0.0,0.0,0.0,0.0,0.0,0.0,0.0,0.0,0.0,0.0,-0.8241,-0.8783,-0.9342,-1.0099,-1.0959,-1.1567,-1.1835,-1.188,-1.2563,-1.2839,-1.2717,-1.2119,-1.2012,-1.2274,-1.2305,-1.1996,-1.1385,-1.0862,-1.0305,-0.9691,-0.8449,-0.7662,-0.7432,-0.7791,-0.7869,-0.766,-0.8767,-0.913,-0.8737,-0.8186,-0.72,-0.6053,-0.5557,-0.5395,-0.5388,-0.533,-0.5,-0.4436,-0.3964,-0.3257,-0.2314,-0.1772,-0.1208,-0.0575,-0.0594,-0.1006,-0.173,-0.251,-0.3231,-0.3932,-0.4039,-0.407,-0.4042,-0.3289,-0.2538,-0.1786,-0.0922,-0.0308,0.0,0.0,0.0,0.0,0.0,0.0,0.0,0.0,0.0,0.0,0.0,0.0,0.0,0.0,0.0403,0.126,0.1474,0.1873,0.2779,0.2673,0.2446,0.2323,0.1583,0.0979,0.0839,0.0386,0.0367,0.0853,0.0484,0.0322,0.0911,0.0475,0.0,0.0,0.0,0.0,0.0,0.0,0.0,0.0,0.0,0.0,0.0,0.0,0.0,0.0,0.0,0.0,0.0,0.0,0.0,0.0,0.0,0.0,0.0,0.0,0.0,-0.7377,-0.8197,-0.8518,-0.9091,-0.9912,-1.1025,-1.1324,-1.1163,-1.2227,-1.2559,-1.2148,-1.137,-1.1241,-1.1531,-1.1539,-1.1091,-1.0421,-1.011,-0.9588,-0.8789,-0.7672,-0.7169,-0.7149,-0.7167,-0.7153,-0.7284,-0.8035,-0.8293,-0.7967,-0.7085,-0.6211,-0.5544,-0.5457,-0.5436,-0.5362,-0.5193,-0.4686,-0.4008,-0.3438,-0.2499,-0.1455,-0.0991,-0.0541,-0.0119,-0.0757,-0.1492,-0.2264,-0.3036,-0.3789,-0.4493,-0.4515,-0.4377,-0.4153,-0.3649,-0.2899,-0.1925,-0.0727,0.0,0.0,0.0,0.0,0.0,0.0,0.0,0.0,0.0,0.0,0.0,0.0,0.0,0.0,0.0,0.0,0.0979,0.109,0.1397,0.2115,0.2065,0.185,0.1705,0.1158,0.0775,0.0604,0.0293,0.0272,0.0859,0.0502,0.028,0.081,0.0,0.0,0.0,0.0,0.0,0.0,0.0,0.0,0.0,0.0,0.0,0.0247,0.0,0.0,0.0,0.0,0.0,0.0,0.0,0.0,0.0,0.0,0.0,0.0,0.0,0.0,-0.7599,-0.8412,-0.9265,-0.9679,-1.021,-1.1039,-1.0813,-0.9958,-1.1071,-1.0979,-1.0146,-0.9857,-0.9822,-0.9852,-0.9745,-0.9532,-0.9246,-0.8475,-0.8016,-0.7783,-0.6857,-0.6363,-0.6395,-0.6978,-0.7253,-0.7241,-0.787,-0.7881,-0.7126,-0.6294,-0.5754,-0.5551,-0.5431,-0.5433,-0.5152,-0.4425,-0.4015,-0.3678,-0.2369,-0.1403,-0.1167,-0.0488,0.0,0.0,-0.0828,-0.1647,-0.2434,-0.3177,-0.3917,-0.4622,-0.4527,-0.4138,-0.3463,-0.3352,-0.2625,-0.1285,-0.042,0.0,0.0,0.0,0.0,0.0,0.0,0.0,0.0,0.0,0.0,0.0,0.0,0.0,0.0,0.0,0.0,0.0894,0.1034,0.1397,0.2065,0.1507,0.1202,0.1085,0.0584,0.0,0.0,0.0028,0.0307,0.0699,0.042,0.0224,0.0699,0.0419,0.0,0.0,0.0,0.0,0.0,0.0,0.0,0.0434,0.052,0.0739,0.0828,0.0,0.0493,0.0,0.0,0.0,0.0,0.0,0.0,0.0,0.0,0.0,0.0,0.0,0.0,-0.7285,-0.7578,-0.79,-0.8123,-0.834,-0.9393,-0.9578,-0.9323,-1.0415,-1.071,-1.0204,-0.9531,-0.9123,-0.9044,-0.8188,-0.8081,-0.8429,-0.8065,-0.7547,-0.6883,-0.6454,-0.63,-0.6331,-0.6537,-0.6665,-0.6692,-0.6938,-0.6853,-0.635,-0.5421,-0.4879,-0.4583,-0.4044,-0.3712,-0.3639,-0.3341,-0.2911,-0.2277,-0.1573,-0.104,0.0,-0.0167,0.0,0.0,-0.0755,-0.16,-0.246,-0.319,-0.3745,-0.3988,-0.397,-0.3502,-0.2667,-0.2183,-0.1484,-0.0505,-0.014,0.0,0.0,0.0,0.0,0.0,0.0,0.0,0.0,0.0,0.0,0.0,0.0,0.0,0.0,0.0,0.0,0.0,0.0,0.0699,0.1146,0.0867,0.0559,0.0866,0.0,0.0,0.0,0.0,0.0,0.0308,0.0,0.0,0.0,0.0,0.0,0.0,0.0,0.0,0.0,0.0,0.0,0.0,0.0483,0.052,0.0606,0.0962,0.0806,0.0403,0.0,0.0,0.0,0.0,0.0,0.0,0.0,0.0,0.0,0.0,0.0,-0.7095,-0.7095,-0.7095,-0.7095,-0.7228,-0.8364,-0.8671,-0.8496,-0.9531,-0.9836,-0.9357,-0.8623,-0.8249,-0.8068,-0.7339,-0.7197,-0.7638,-0.7612,-0.7165,-0.6479,-0.6392,-0.6371,-0.6361,-0.632,-0.63,-0.6296,-0.63,-0.6085,-0.5538,-0.4914,-0.4325,-0.3747,-0.3067,-0.2745,-0.2678,-0.2409,-0.1901,-0.1357,-0.1045,-0.0572,0.0,0.0,0.0,0.0,-0.0486,-0.1172,-0.2086,-0.2851,-0.3241,-0.3239,-0.318,-0.2734,-0.1902,-0.1147,-0.0533,0.0,0.0,0.0,0.0,0.0,0.0,0.0,0.0,0.0,0.0,0.0,0.0,0.0,0.0,0.0,0.0,0.0,0.0,0.0,0.0,0.0,0.095,0.0671,0.0643,0.0922,0.0699,0.0,0.0,0.0,0.0,0.0,0.0,0.0,0.0,0.0,0.0,0.0,0.0,0.0,0.0,0.0,0.0,0.0,0.0918,0.0807,0.0774,0.1109,0.1168,0.0718,0.0381,0.0202,0.0,0.0,0.0,0.0,0.0,0.0,0.0,0.0,0.0,-0.7095,-0.7095,-0.7095,-0.7095,-0.7272,-0.8281,-0.8189,-0.7533,-0.8408,-0.8321,-0.7577,-0.7228,-0.7305,-0.717,-0.7156,-0.7048,-0.6991,-0.6944,-0.6819,-0.6651,-0.6536,-0.6515,-0.6508,-0.6402,-0.6337,-0.6278,-0.6261,-0.5705,-0.4828,-0.4472,-0.3849,-0.3066,-0.2706,-0.2443,-0.2577,-0.1701,-0.1292,-0.1044,-0.0479,0.0,0.0,0.0,0.0,0.0,0.0,-0.0468,-0.1267,-0.2053,-0.2476,-0.2468,-0.232,-0.1879,-0.1144,-0.0463,0.0,0.0,0.0,0.0,0.0,0.0,0.0,0.0,0.0,0.0,0.0,0.0,0.0,0.0,0.0,0.0,0.0,0.0,0.0,0.0,0.0,0.0,0.0979,0.1174,0.109,0.1118,0.0978,0.0755,0.0,0.0,0.0,0.0,0.0,0.0,0.0,0.0,0.0,0.0,0.0,0.0,0.0,0.0,0.0,0.0712,0.1297,0.1544,0.1489,0.169,0.1844,0.1512,0.0808,0.0606,0.0292,0.0,0.0,0.0,0.0,0.0,0.0,0.0,0.0,-0.7095,-0.7095,-0.7095,-0.7095,-0.7139,-0.7489,-0.7401,-0.7139,-0.7533,-0.7448,-0.7139,-0.7095,-0.7095,-0.7095,-0.7095,-0.7071,-0.7024,-0.697,-0.6898,-0.6722,-0.6654,-0.6627,-0.662,-0.6583,-0.6508,-0.6284,-0.559,-0.504,-0.4494,-0.3285,-0.2338,-0.1934,-0.1295,-0.0904,0.0,-0.0547,-0.0396,-0.0359,-0.014,0.0,0.0,0.0,0.0,0.0,0.0,-0.0135,-0.0437,-0.1231,-0.1655,-0.1685,-0.1607,-0.1199,0.0,-0.0127,0.0,0.0,0.0,0.0,0.0,0.0,0.0,0.0,0.0,0.0,0.0,0.0,0.0,0.0,0.0,0.0,0.0,0.0,0.0,0.0,0.0,0.0505,0.1595,0.2232,0.2093,0.1285,0.109,0.0755,0.0,0.0,0.0,0.0,0.0,0.0,0.0,0.0,0.0,0.0,0.0,0.0,0.0,0.0,0.0,0.0,0.13,0.1807,0.1868,0.2323,0.2472,0.2147,0.1463,0.0925,0.063,0.0,0.0,0.0,0.0,0.0,0.0,0.0,0.0,-0.7095,-0.7095,-0.7095,-0.7095,-0.7095,-0.7095,-0.7095,-0.7095,-0.7095,-0.7095,-0.7095,-0.7095,-0.7095,-0.7095,-0.7095,-0.7095,-0.7095,-0.7095,-0.6997,-0.6871,-0.68,-0.6787,-0.6773,-0.6722,-0.6366,-0.5853,-0.5124,-0.4316,-0.3484,-0.2281,-0.1411,-0.0938,-0.0309,0.0,0.0,0.0,0.0,0.0,0.0,0.0,0.0,0.0,0.0,0.0,0.0,0.0,0.0,-0.0546,-0.0814,-0.0808,-0.0806,-0.0533,0.0,0.0,0.0,0.0,0.0,0.0,0.0,0.0,0.0,0.0,0.0,0.0,0.0,0.0,0.0,0.0,0.0,0.0,0.0,0.0,0.0,0.0,0.0,0.0,0.1911,0.2611,0.2538,0.1703,0.1284,0.0755,0.0,0.0,0.0,0.0,0.0,0.0,0.0,0.0,0.0,0.0,0.0,0.0,0.0,0.0,0.0,0.0,0.1169,0.1584,0.1819,0.2806,0.3316,0.2656,0.1965,0.1348,0.0,0.0,0.0,0.0,0.0,0.0,0.0,0.0,0.0,-0.7095,-0.7095,-0.7095,-0.7095,-0.7095,-0.7095,-0.7095,-0.7095,-0.7095,-0.7095,-0.7095,-0.7095,-0.7095,-0.7095,-0.7095,-0.7095,-0.7095,-0.7095,-0.7088,-0.7031,-0.6953,-0.6939,-0.6922,-0.659,-0.5931,-0.5189,-0.4676,-0.3533,-0.2029,-0.152,-0.1022,-0.0197,0.0,0.0,0.0,0.0,0.0,0.0,0.0,0.0,0.0,0.0,0.0,0.0,0.0,0.0,0.0,0.0,0.0,0.0,0.0,0.0,0.0,0.0,0.0,0.0,0.0,0.0,0.0,0.0,0.0,0.0,0.0,0.0,0.0,0.0,0.0,0.0,0.0,0.0,0.0,0.0,0.0,0.0,0.0,0.0814,0.1937,0.2229,0.2184,0.2055,0.1542,0.0844,0.0,0.0,0.0,0.0,0.0,0.0,0.0,0.0,0.0,0.0,0.0,0.0,0.0,0.0,0.0,0.0,0.1305,0.1722,0.2118,0.3084,0.3846,0.3205,0.2352,0.1781,0.0,0.0,0.0,0.0,0.0,0.0,0.0,0.0,0.0,-0.7095,-0.7095,-0.7095,-0.7095,-0.7095,-0.7095,-0.7095,-0.7095,-0.7095,-0.7095,-0.7095,-0.7095,-0.7095,-0.7095,-0.7095,-0.7095,-0.7095,-0.7095,-0.7095,-0.7092,-0.7065,-0.7041,-0.6789,-0.5978,-0.5315,-0.4787,-0.34,-0.216,-0.1579,-0.0826,0.0,0.0,0.0,0.0,0.0,0.0,0.0,0.0,0.0,0.0,0.0,0.0,0.0,0.0,0.0,0.0,0.0,0.0,0.0,0.0,0.0,0.0,0.0,0.0,0.0,0.0,0.0,0.0,0.0,0.0,0.0,0.0,0.0,0.0,0.0,0.0,0.0303,0.0739,0.0973,0.0937,0.093,0.0895,0.066,0.0197,0.0413,0.1071,0.1964,0.22,0.2199,0.2127,0.1566,0.0828,0.0,0.0,0.0,0.0,0.0,0.0,0.0,0.0,0.0,0.0,0.0,0.0,0.0,0.0,0.0,0.0,0.1497,0.207,0.2584,0.3319,0.383,0.3836,0.261,0.1836,0.1389,0.0,0.0,0.0,0.0,0.0,0.0,0.0,0.0,-0.7095,-0.7095,-0.7095,-0.7095,-0.7095,-0.7095,-0.7095,-0.7095,-0.7095,-0.7095,-0.7095,-0.7095,-0.7095,-0.7095,-0.7095,-0.7095,-0.7095,-0.7095,-0.7095,-0.701,-0.6555,-0.6378,-0.6048,-0.5058,-0.4206,-0.3587,-0.2361,-0.149,-0.0893,-0.0254,0.0,0.0,0.0,0.0,0.0,0.0,0.0,0.0,0.0,0.0,0.0,0.0,0.0,0.0,0.0,0.0112,0.0,0.0,0.0,0.0,0.0,0.0,0.0,0.0,0.0,0.0,0.0,0.0,0.0,0.0,0.0,0.0,0.0269,0.0236,0.0,0.0538,0.0839,0.1173,0.1641,0.1641,0.1307,0.1006,0.0941,0.1101,0.0848,0.1136,0.2173,0.2388,0.2377,0.2174,0.1638,0.0858,0.0,0.0,0.0,0.0,0.0,0.0,0.0,0.0,0.0,0.0,0.0,0.0,0.0,0.0,0.0,0.0,0.1995,0.2523,0.3143,0.3736,0.392,0.3942,0.2824,0.1954,0.1543,0.0,0.0,0.0,0.0,0.0,0.0,0.0,0.0,-0.7105,-0.7122,-0.7122,-0.7129,-0.7152,-0.7146,-0.7176,-0.7152,-0.7142,-0.7149,-0.7156,-0.7115,-0.7115,-0.7119,-0.7112,-0.7051,-0.6874,-0.6738,-0.6647,-0.6201,-0.5445,-0.4821,-0.4688,-0.3876,-0.2938,-0.2135,-0.1753,-0.1003,0.0,0.0,0.0,0.0,0.0,0.0,0.0,0.0,0.0,0.0,0.0,0.0,0.0,0.0,0.0,0.0,0.0,0.0848,0.1441,0.1564,0.1127,0.0,0.0071,0.0,0.0,0.0,0.0,0.0,0.0,0.0,0.0,0.0,0.037,0.0906,0.0538,0.0538,0.1208,0.1475,0.1575,0.1909,0.2376,0.2342,0.1674,0.084,0.0941,0.1575,0.0837,0.1193,0.1945,0.2397,0.2418,0.2444,0.1735,0.084,0.0,0.0,0.0,0.0,0.0,0.0,0.0,0.0,0.0,0.0,0.0,0.0,0.0,0.0,0.0,0.1298,0.2421,0.3201,0.3845,0.4289,0.4294,0.3905,0.2799,0.2105,0.1731,0.0,0.0,0.0,0.0,0.0,0.0,0.0,0.0,-0.7214,-0.7322,-0.7319,-0.739,-0.7492,-0.7499,-0.7495,-0.7482,-0.737,-0.738,-0.7424,-0.721,-0.7227,-0.7312,-0.708,-0.6647,-0.5911,-0.5774,-0.5309,-0.4194,-0.3126,-0.2637,-0.2593,-0.2281,-0.2058,-0.1565,-0.0804,0.0,0.0,0.0,0.0,0.0,0.0,0.0,0.0,0.0,0.0,0.0,0.0,0.0,0.0,0.0,0.0,0.0157,0.0824,0.1758,0.2333,0.201,0.1525,0.1119,0.0621,0.0541,0.0999,0.1211,0.1201,0.1149,0.1144,0.086,0.0,0.0,0.0371,0.1113,0.1149,0.1407,0.2243,0.242,0.2751,0.3213,0.358,0.3355,0.2611,0.2277,0.1844,0.1477,0.1677,0.1872,0.1628,0.109,0.1432,0.1835,0.1265,0.023,0.0,0.0,0.0,0.0,0.0,0.0,0.0,0.0,0.0,0.0,0.0,0.0,0.0,0.0,0.0,0.1625,0.2687,0.3679,0.4336,0.4579,0.4467,0.38,0.28,0.2258,0.1828,0.0,0.0,0.0,0.0,0.0,0.0,0.0,0.0,-0.7272,-0.7468,-0.74,-0.7458,-0.7587,-0.7597,-0.7597,-0.7584,-0.7519,-0.7522,-0.7556,-0.7414,-0.7407,-0.7422,-0.6743,-0.6019,-0.5451,-0.4772,-0.3918,-0.2911,-0.2057,-0.1567,-0.0987,-0.0942,-0.0942,0.0,-0.0359,0.0,0.0,0.0,0.0,0.0,0.0,0.0,0.0,0.0,0.0,0.0,0.0,0.0,0.0,0.0,0.0353,0.0823,0.1761,0.2774,0.3669,0.3398,0.3105,0.28,0.2044,0.1413,0.1643,0.2034,0.2091,0.168,0.1566,0.1099,0.0,0.0,0.035,0.1218,0.1393,0.1951,0.2714,0.3199,0.3657,0.411,0.4399,0.449,0.3992,0.2978,0.238,0.2714,0.2547,0.2778,0.288,0.2078,0.1304,0.1781,0.1195,0.0532,0.0,0.0,0.0,0.0,0.0,0.0,0.0,0.0,0.0,0.0,0.0,0.0,0.0,0.0,0.0,0.2002,0.2921,0.3808,0.4581,0.4601,0.4531,0.3769,0.3,0.2341,0.0,0.0,0.0,0.0,0.0,0.0,0.0,0.0,0.0,-0.7353,-0.7621,-0.7492,-0.7572,-0.7655,-0.7675,-0.7685,-0.7675,-0.7641,-0.7658,-0.7648,-0.7631,-0.758,-0.7331,-0.625,-0.5541,-0.4618,-0.3545,-0.2254,-0.1595,-0.1402,-0.0904,0.0,0.0,0.0,0.0,0.0,0.0,0.0,0.0,0.0,0.0,0.0,0.0,0.0,0.0,0.0,0.0,0.0,0.0,0.0,0.0,0.0,0.1816,0.2466,0.3673,0.453,0.4649,0.4569,0.4649,0.3826,0.2867,0.2347,0.2682,0.2891,0.1978,0.1938,0.1309,0.0,0.0,0.0362,0.1199,0.1451,0.2102,0.3,0.3815,0.428,0.4699,0.5013,0.5331,0.5177,0.43,0.3886,0.3982,0.3262,0.3524,0.4097,0.3379,0.2157,0.174,0.1104,0.0402,0.0,0.0,0.0,0.0,0.0,0.0,0.0,0.0235,0.0666,0.1093,0.125,0.1116,0.107,0.0549,0.1016,0.1883,0.2865,0.3684,0.4473,0.4697,0.4539,0.4054,0.3365,0.2677,0.1905,0.0,0.0,0.0,0.0,0.0,0.0,0.0,0.0838,-0.7506,-0.7773,-0.775,-0.7828,-0.7904,-0.7911,-0.7901,-0.7894,-0.7773,-0.7851,-0.7867,-0.7719,-0.7689,-0.7289,-0.62,-0.4509,-0.276,-0.1517,0.0,0.0,0.0,0.0,0.0,0.0,0.0,0.0,0.0,0.0,0.0,0.0,0.0,0.0,0.0,0.0,0.0,0.0,0.0,0.0,0.0,0.0,0.0,0.0,0.0,0.2447,0.2997,0.4066,0.5354,0.516,0.4688,0.4688,0.453,0.3846,0.335,0.3878,0.3772,0.29,0.2663,0.1938,0.0,0.0,0.0,0.1054,0.1461,0.2297,0.3425,0.4225,0.477,0.5278,0.5506,0.5487,0.4725,0.4792,0.4067,0.3289,0.2993,0.2992,0.2699,0.235,0.2198,0.2367,0.1383,0.0,0.0,0.0,0.0,0.0,0.0,0.0,0.0,0.0,0.1104,0.1569,0.197,0.1702,0.1397,0.0666,0.0496,0.1404,0.2326,0.3158,0.3922,0.4562,0.452,0.4219,0.3695,0.2967,0.2142,0.1297,0.0,0.0,0.0,0.0,0.0,0.0643,0.1118,-0.7658,-0.7913,-0.7848,-0.7899,-0.7971,-0.7988,-0.7988,-0.7982,-0.7914,-0.7917,-0.7931,-0.7843,-0.7417,-0.666,-0.5401,-0.3359,0.0,0.0,0.0,0.0,0.0,0.0,0.0,0.0,0.0,0.0,0.0,0.0,0.0,0.0,0.0,0.0,0.0,0.0,0.0,0.0,0.0,0.0,0.0,0.0,0.0,0.0,0.0,0.2507,0.3209,0.4224,0.5747,0.5906,0.5237,0.4921,0.5234,0.4882,0.453,0.4603,0.4549,0.2926,0.2841,0.2219,0.0,0.0,0.0,0.0644,0.151,0.2529,0.3659,0.4533,0.5396,0.5705,0.5823,0.5653,0.5281,0.5594,0.5039,0.4313,0.4068,0.3998,0.3727,0.3226,0.3201,0.3231,0.197,0.1081,0.0,0.0,0.0,0.0,0.0,0.0,0.0,0.0,0.1541,0.2076,0.2444,0.2108,0.1608,0.0706,0.0202,0.0969,0.1859,0.2689,0.3617,0.4362,0.4709,0.4661,0.4022,0.3406,0.2741,0.2017,0.131,0.0648,0.0,0.0,0.0,0.0672,0.1344,-0.7801,-0.7978,-0.7909,-0.7926,-0.7978,-0.7988,-0.7988,-0.7988,-0.7985,-0.7982,-0.7988,-0.7928,-0.727,-0.5872,-0.4207,0.0,0.0,0.0,0.0,0.0,0.0,0.0,0.0,0.0,0.0,0.0,0.0,0.0,0.0,0.0,0.0,0.0,0.0,0.0,0.0,0.0,0.0,0.0,0.0,0.0,0.0,0.0,0.0864,0.2579,0.2847,0.3726,0.5571,0.5412,0.5146,0.5012,0.5234,0.5392,0.4766,0.5589,0.4885,0.2659,0.2891,0.2228,0.0,0.0,0.1011,0.1165,0.2262,0.3004,0.3857,0.5071,0.6148,0.6081,0.5993,0.5922,0.5828,0.5905,0.5722,0.5393,0.5286,0.5417,0.5023,0.4627,0.4323,0.3761,0.2522,0.17,0.1218,0.0,0.0,0.0,0.0,0.0,0.0,0.0,0.2009,0.2611,0.2811,0.2476,0.1775,0.0706,0.037,0.0604,0.1471,0.2323,0.3321,0.4284,0.4543,0.482,0.4728,0.4131,0.3434,0.2724,0.2031,0.1401,0.0863,0.0657,0.0772,0.145,0.2324,-0.7882,-0.7988,-0.7971,-0.7975,-0.7939,-0.7939,-0.7988,-0.7988,-0.7988,-0.7988,-0.7988,-0.7939,-0.7232,-0.5575,-0.3317,-0.1509,0.0,0.0,0.0,0.0,0.0,0.0,0.0,0.0,0.0,0.0,0.0,0.0,0.0,0.0,0.0,0.0,0.0,0.0,0.0,0.0,0.0,0.0,0.0,0.0,0.0,0.0,0.0,0.1534,0.2011,0.2789,0.4485,0.431,0.3964,0.4641,0.4776,0.4377,0.3826,0.5273,0.4882,0.3945,0.3671,0.3984,0.2773,0.2383,0.2344,0.2345,0.3008,0.3591,0.453,0.5431,0.6286,0.6286,0.6231,0.6204,0.6146,0.6218,0.5768,0.5396,0.5211,0.5146,0.4958,0.5392,0.5183,0.4784,0.3663,0.2472,0.0,0.0,0.0,0.0,0.0,0.0,0.0,0.0,0.2542,0.3145,0.2878,0.2509,0.1775,0.0706,0.0,0.0,0.1107,0.1975,0.2978,0.3915,0.4652,0.4852,0.4863,0.4768,0.4117,0.3416,0.2721,0.2205,0.1755,0.1415,0.1143,0.2095,0.318,-0.6715,-0.688,-0.6883,-0.688,-0.6983,-0.7637,-0.7988,-0.7988,-0.7988,-0.7988,-0.7988,-0.7988,-0.688,-0.487,-0.2765,-0.1259,0.0,0.0,0.0,0.0,0.0,0.0,0.0,0.0,0.0,0.0,0.0,0.0,0.0,0.0,0.0,0.0,0.0,0.0,0.0,0.0,0.0,0.0,0.0,0.0,0.0,0.0,0.0478,0.1516,0.1527,0.2423,0.3228,0.3463,0.333,0.3974,0.4306,0.4584,0.4528,0.5403,0.5747,0.5276,0.5315,0.4766,0.3357,0.3202,0.324,0.3357,0.3709,0.4489,0.5434,0.5944,0.63,0.6296,0.6296,0.63,0.63,0.63,0.6064,0.5709,0.5434,0.5473,0.5464,0.5553,0.5629,0.5257,0.477,0.3435,0.2075,0.0,0.0,0.0,0.0,0.0,0.0,0.0,0.2691,0.3713,0.3145,0.2409,0.1575,0.0,0.0,0.0,0.0839,0.1708,0.2611,0.348,0.4251,0.4921,0.5157,0.498,0.4635,0.4132,0.3487,0.3076,0.2705,0.2378,0.2147,0.2707,0.3666,-0.5121,-0.5539,-0.5869,-0.6179,-0.6584,-0.7584,-0.7988,-0.7988,-0.7988,-0.7988,-0.7889,-0.7587,-0.6276,-0.4618,-0.3215,-0.1912,0.0,-0.0504,-0.0252,0.0,0.0,0.0,0.0,0.0,0.0,0.0,0.0,0.0,0.0,0.0,0.0,0.0,0.0,0.0,0.0,0.0,0.0,0.0,0.0,0.0,0.0,0.0,0.0,0.0915,0.1293,0.1659,0.2536,0.2744,0.2828,0.3496,0.4324,0.4814,0.4965,0.5771,0.6297,0.6077,0.6175,0.543,0.4348,0.3906,0.3865,0.4137,0.4411,0.5273,0.5547,0.6022,0.63,0.63,0.63,0.63,0.63,0.63,0.6219,0.618,0.6141,0.6257,0.6254,0.6111,0.5979,0.5701,0.5095,0.4096,0.2717,0.1337,0.0,0.0,0.0,0.0,0.0792,0.1678,0.2169,0.3062,0.2676,0.0,0.0,0.0,0.0,0.0,0.0,0.1542,0.2477,0.3213,0.3949,0.4586,0.5292,0.5295,0.499,0.4619,0.4257,0.3823,0.3448,0.3306,0.3308,0.3755,0.4077,-0.2984,-0.4268,-0.544,-0.6631,-0.7736,-0.7939,-0.7988,-0.7988,-0.7988,-0.7988,-0.7839,-0.6883,-0.6279,-0.5475,-0.442,-0.3116,-0.1862,-0.1862,-0.1159,0.0,0.0,0.0,0.0,0.0,0.0,0.0,0.0,0.0,0.0,0.0,0.0,0.0,0.0,0.0,0.0,0.0,0.0,0.0,0.0,0.0,0.0,0.0,0.0,0.0,0.0,0.062,0.1646,0.1902,0.2492,0.3298,0.44,0.522,0.5501,0.6125,0.6549,0.6525,0.6467,0.5787,0.5072,0.5218,0.5825,0.6022,0.5983,0.5705,0.547,0.5944,0.6222,0.63,0.63,0.63,0.63,0.63,0.63,0.63,0.63,0.63,0.63,0.6257,0.6128,0.6047,0.5458,0.4586,0.3838,0.254,0.0846,0.0,0.0,0.0108,0.0737,0.1495,0.144,0.1764,0.1713,0.0,0.0,0.0,0.0,0.0,0.0,0.0,0.2445,0.3113,0.3613,0.4688,0.5395,0.5395,0.5392,0.5068,0.4745,0.4422,0.4202,0.4156,0.4131,0.4385,0.4578,-0.3192,-0.5185,-0.4932,-0.5522,-0.6833,-0.7637,-0.7988,-0.7988,-0.7988,-0.7988,-0.7939,-0.7434,-0.6783,-0.6029,-0.5575,-0.452,-0.3215,-0.2264,-0.1712,-0.1058,0.0,0.0,0.0,0.0,0.0,0.0,0.0,0.0,0.0,0.0,0.0,0.0,0.0,0.0,0.0,0.0,0.0,0.0,0.0,0.0,0.0,0.0,0.0,0.0,0.0,0.0,0.0665,0.1416,0.2373,0.3438,0.4554,0.5389,0.5966,0.6553,0.665,0.6614,0.6549,0.6217,0.5904,0.609,0.6261,0.63,0.6257,0.6064,0.5434,0.6064,0.6261,0.63,0.63,0.63,0.63,0.63,0.63,0.63,0.63,0.63,0.63,0.63,0.6257,0.6135,0.5896,0.5399,0.4642,0.3853,0.2048,0.0,0.0,0.0259,0.0904,0.117,0.1086,0.1072,0.1062,0.0849,0.0,0.0,0.0,0.0,0.0,0.0,0.2345,0.2646,0.328,0.4486,0.5395,0.5395,0.5395,0.5395,0.519,0.4888,0.4918,0.5058,0.5065,0.5003,0.5008,-0.2873,-0.5195,-0.4424,-0.502,-0.6631,-0.7587,-0.7988,-0.7988,-0.7988,-0.7988,-0.7988,-0.7939,-0.7537,-0.6783,-0.6581,-0.5472,-0.4117,-0.3015,-0.2163,-0.126,0.0,0.0,0.0,0.0,0.0,0.0,0.0,0.0,0.0,0.0,0.0,0.0,0.0,0.0,0.0,0.0,0.0,0.0,0.0,0.0,0.0,0.0,0.0,0.0,0.0,0.0,0.0,0.1518,0.2763,0.3809,0.4925,0.6034,0.6605,0.6898,0.682,0.6749,0.665,0.6565,0.628,0.6418,0.6189,0.5808,0.624,0.5944,0.564,0.5828,0.6222,0.5747,0.5983,0.6303,0.631,0.63,0.63,0.63,0.63,0.63,0.63,0.63,0.63,0.6257,0.6018,0.5744,0.4833,0.4039,0.3126,0.1605,0.1108,0.0945,0.1038,0.1093,0.072,0.0711,0.0737,0.0453,0.0,0.0,0.0,0.0,0.0,0.0,0.2144,0.2547,0.3384,0.4755,0.5395,0.5395,0.5395,0.5395,0.5395,0.5359,0.5355,0.5352,0.5342,0.5215,0.5205,-0.1618,-0.3913,-0.4005,-0.547,-0.7587,-0.7939,-0.7988,-0.7988,-0.7988,-0.7988,-0.7988,-0.7988,-0.7988,-0.7786,-0.7637,-0.6376,-0.4618,-0.3865,-0.2715,-0.0958,0.0,0.0,0.0,0.0,0.0,0.0,0.0,0.0,0.0,0.0,0.0,0.0,0.0,0.0,0.0,0.0,0.0,0.0,0.0,0.0,0.0,0.0,0.0,0.0,0.0,0.0,0.0,0.0,0.2992,0.374,0.5429,0.6521,0.6953,0.7045,0.698,0.6883,0.6859,0.6353,0.5446,0.6226,0.6116,0.5458,0.5983,0.5542,0.4379,0.4828,0.5846,0.5292,0.5777,0.6269,0.6327,0.6323,0.6351,0.6361,0.6371,0.6347,0.6354,0.6368,0.6381,0.6317,0.618,0.5906,0.4885,0.4059,0.3705,0.2882,0.211,0.1739,0.1553,0.0933,0.0442,0.0,0.0,0.0,0.0,0.0,0.0,0.0,0.0692,0.1543,0.2441,0.3145,0.4084,0.5173,0.5395,0.5395,0.5395,0.5395,0.5395,0.5395,0.5395,0.5392,0.5395,0.5388,0.5365,-0.1047,-0.272,-0.3609,-0.502,-0.6681,-0.7637,-0.7988,-0.7988,-0.7988,-0.7988,-0.7988,-0.7988,-0.7988,-0.7988,-0.7786,-0.688,-0.5422,-0.4116,-0.2765,-0.136,-0.0404,0.0,0.0,0.0,0.0,0.0,0.0,0.0,0.0,0.0,0.0,0.0,0.0,0.0,0.0,0.0,0.0,0.0,0.0,0.0,0.0,0.0,0.0,0.0,0.0,0.0,0.0,0.0,0.2903,0.3659,0.5445,0.6428,0.6962,0.7095,0.7071,0.6997,0.696,0.673,0.634,0.6687,0.6675,0.6134,0.5505,0.5194,0.4544,0.4831,0.5037,0.5187,0.5901,0.6398,0.6559,0.6556,0.6566,0.6596,0.6579,0.6501,0.6484,0.6501,0.6497,0.6361,0.6222,0.6222,0.5589,0.5079,0.4647,0.3984,0.3205,0.227,0.189,0.0874,0.0,0.0,0.0,0.0,0.0,0.0,0.0,0.0,0.0784,0.1733,0.2622,0.3584,0.4391,0.5286,0.5356,0.5395,0.5395,0.5395,0.5395,0.5395,0.5395,0.5395,0.5395,0.5395,0.5388,-0.0762,-0.2103,-0.3463,-0.4768,-0.6129,-0.7437,-0.7988,-0.7988,-0.7988,-0.7988,-0.7988,-0.7988,-0.7988,-0.7889,-0.7434,-0.6578,-0.5272,-0.3917,-0.2564,-0.136,-0.0504,0.0,0.0,0.0,0.0,0.0,0.0,0.0,0.0,0.0,0.0,0.0,0.0,0.0,0.0,0.0,0.0,0.0,0.0,0.0,0.0,0.0,0.0,0.0,0.0,0.0,0.0,0.1433,0.2725,0.3794,0.4999,0.6204,0.6874,0.7095,0.7095,0.7058,0.7018,0.691,0.6913,0.6907,0.673,0.6111,0.5371,0.4811,0.462,0.4712,0.4921,0.5303,0.6085,0.6501,0.6709,0.6719,0.6677,0.666,0.6633,0.6552,0.6607,0.6624,0.6555,0.6419,0.632,0.6313,0.63,0.6219,0.5864,0.504,0.4258,0.3361,0.2426,0.139,0.0496,0.0,0.0,0.0,0.0,0.0,0.0,0.0,0.0952,0.2139,0.2938,0.3918,0.4654,0.5308,0.544,0.5484,0.5416,0.5395,0.5395,0.5395,0.5395,0.5395,0.5395,0.5395,0.5395,-0.0761,-0.2056,-0.341,-0.4712,-0.6019,-0.7329,-0.7988,-0.7988,-0.7988,-0.7988,-0.7988,-0.7988,-0.7988,-0.7736,-0.6681,-0.5425,-0.4168,-0.2815,-0.1511,0.0,0.0,0.0,0.0,0.0,0.0,0.0,0.0,0.0,0.0,0.0,0.0,0.0,0.0,0.0,0.0,0.0,0.0,0.0,0.0,0.0,0.0,0.0,0.0,0.0,0.0,0.0,0.0,0.1794,0.2949,0.4192,0.5575,0.6558,0.7051,0.7095,0.7095,0.7092,0.7085,0.7061,0.7051,0.7085,0.6505,0.5813,0.5326,0.4502,0.4166,0.4462,0.4982,0.5442,0.6129,0.6476,0.6753,0.6637,0.6567,0.656,0.6557,0.6601,0.665,0.6647,0.6603,0.6497,0.6395,0.6347,0.6306,0.63,0.6261,0.5906,0.5198,0.4885,0.3869,0.2425,0.159,0.0,0.0,0.0,0.0,0.0,0.0,0.0,0.0,0.2808,0.3544,0.42,0.5074,0.558,0.5599,0.5566,0.5443,0.5395,0.5395,0.5395,0.5395,0.5395,0.5395,0.5395,0.5395,-0.0233,-0.0796,-0.3057,-0.4237,-0.4888,-0.7044,-0.7988,-0.7988,-0.7988,-0.7988,-0.7988,-0.7988,-0.7988,-0.7889,-0.6634,-0.5222,-0.3919,-0.2615,-0.131,0.0,0.0,0.0,0.0,0.0,0.0,0.0,0.0,0.0,0.0,0.0,0.0,0.0,0.0,0.0,0.0,0.0,0.0,0.0,0.0,0.0,0.0,0.0,0.0,0.0,0.0,0.0,0.0,0.1852,0.292,0.3933,0.5134,0.6115,0.7095,0.7095,0.7095,0.7095,0.7095,0.7092,0.7095,0.7095,0.6561,0.5625,0.5362,0.4647,0.426,0.4498,0.5236,0.5783,0.6294,0.6761,0.6757,0.6589,0.6632,0.6718,0.6668,0.6514,0.6649,0.679,0.6698,0.661,0.6504,0.6395,0.6351,0.63,0.6261,0.6183,0.6064,0.5789,0.516,0.3675,0.2503,0.1958,0.1294,0.0667,0.0,0.0,0.0,0.0,0.0,0.2904,0.3407,0.4154,0.5322,0.5796,0.5705,0.5555,0.5426,0.5412,0.5443,0.5405,0.5399,0.5395,0.5395,0.5395,0.5395,0.0,0.0,-0.2888,-0.4563,-0.5787,-0.7301,-0.7988,-0.7988,-0.7988,-0.7988,-0.7988,-0.7988,-0.7988,-0.7683,-0.6074,-0.4668,-0.3917,-0.1963,0.0,0.0,0.0,0.0,0.0,0.0,0.0,0.0,0.0,0.0,0.0,0.0,0.0,0.0,0.0,0.0,0.0,0.0,0.0,0.0,0.0,0.0,0.0548,0.0792,0.1028,0.1399,0.1423,0.1461,0.1587,0.2618,0.365,0.4437,0.556,0.6385,0.7125,0.7095,0.7095,0.7095,0.7095,0.6782,0.6514,0.6918,0.6071,0.5445,0.5534,0.5393,0.4989,0.5014,0.564,0.6169,0.6672,0.7037,0.682,0.6602,0.682,0.6993,0.6709,0.6427,0.6633,0.687,0.6837,0.6698,0.6573,0.6491,0.6409,0.6347,0.63,0.6261,0.6222,0.6141,0.5631,0.4649,0.3439,0.2581,0.1841,0.0,0.0,0.0,0.0,0.0,0.0,0.231,0.3024,0.4031,0.5162,0.5579,0.5779,0.5647,0.5569,0.5511,0.5508,0.5481,0.5446,0.5416,0.5409,0.5395,0.5395,0.0,0.0,-0.3023,-0.5613,-0.7776,-0.7988,-0.7988,-0.7988,-0.7988,-0.7988,-0.7988,-0.7988,-0.7889,-0.7182,-0.532,-0.4116,-0.3016,-0.131,0.0,0.0,0.0,0.0,0.0,0.0,0.0,0.0,0.0,0.0,0.0,0.0,0.0,0.0,0.0,0.0,0.0,0.0,0.0,0.0,0.0,0.0855,0.1558,0.2107,0.2595,0.3538,0.3751,0.3778,0.4107,0.4827,0.574,0.604,0.6542,0.718,0.7183,0.7098,0.7098,0.7095,0.7095,0.6517,0.6248,0.6561,0.5844,0.5487,0.5708,0.6068,0.5935,0.5714,0.6248,0.6561,0.7007,0.7095,0.6918,0.6425,0.6381,0.647,0.6331,0.6145,0.6251,0.6583,0.6889,0.6807,0.6712,0.659,0.6491,0.6434,0.6388,0.6344,0.63,0.63,0.6022,0.5315,0.4453,0.3398,0.2932,0.2192,0.0,0.0,0.0,0.0,0.1293,0.176,0.248,0.3671,0.4986,0.5429,0.5841,0.5827,0.5742,0.5664,0.5599,0.5593,0.5538,0.547,0.5433,0.544,0.5405,-0.0542,-0.1629,-0.4229,-0.6426,-0.7925,-0.7988,-0.7988,-0.7988,-0.7988,-0.7988,-0.7988,-0.7889,-0.7437,-0.6379,-0.4718,-0.3465,-0.2213,0.0,0.0,0.0,0.0,0.0,0.0,0.0,0.0,0.0,0.0,0.0,0.0,0.0,0.0,0.0,0.0,0.0,0.0,0.0,0.0,0.0,0.0958,0.146,0.2113,0.2264,0.2604,0.3674,0.4146,0.4309,0.4643,0.526,0.5653,0.5933,0.6976,0.7369,0.7329,0.7166,0.7109,0.7095,0.7102,0.6381,0.5935,0.616,0.6021,0.58,0.6024,0.6558,0.6782,0.6694,0.6741,0.7007,0.7095,0.7095,0.6962,0.6425,0.5935,0.5938,0.5894,0.5894,0.5894,0.6327,0.6834,0.6889,0.6841,0.6742,0.6641,0.6546,0.6497,0.6416,0.6334,0.6303,0.63,0.5864,0.5395,0.4572,0.4334,0.3593,0.2423,0.1448,0.098,0.0824,0.1293,0.1684,0.1996,0.3507,0.4963,0.5566,0.5946,0.5952,0.5898,0.5796,0.5749,0.5742,0.5688,0.5593,0.5538,0.5528,0.5491,-0.0718,-0.2114,-0.4663,-0.6642,-0.7855,-0.7988,-0.7988,-0.7988,-0.7988,-0.7637,-0.7132,-0.7033,-0.6631,-0.5577,-0.4019,-0.2864,-0.1762,-0.0605,0.0,0.0,0.0,0.0,0.0,0.0,0.0,0.0,0.0,0.0,0.0,0.0,0.0,0.0,0.0,0.0,0.0,0.0,0.0,0.0,0.0,0.2264,0.2865,0.3417,0.442,0.5345,0.5723,0.5686,0.5922,0.6497,0.6597,0.6765,0.7344,0.7476,0.7451,0.7336,0.7261,0.7224,0.6968,0.6378,0.5667,0.58,0.6201,0.5711,0.6337,0.6874,0.7007,0.6918,0.6918,0.7095,0.7095,0.7095,0.7095,0.6694,0.6068,0.5802,0.5716,0.5628,0.5628,0.5827,0.6458,0.7004,0.6916,0.6865,0.6763,0.6671,0.6617,0.6491,0.6405,0.634,0.6327,0.63,0.5867,0.5512,0.5157,0.4295,0.2968,0.2073,0.1449,0.1411,0.1411,0.1411,0.1801,0.3517,0.4894,0.534,0.5765,0.6112,0.6044,0.5949,0.5872,0.5901,0.5837,0.5755,0.5708,0.565,0.5572,-0.0854,-0.2347,-0.4948,-0.6777,-0.7842,-0.7982,-0.7836,-0.7739,-0.7686,-0.693,-0.5777,-0.5525,-0.5525,-0.4622,-0.3318,-0.2364,-0.141,-0.0454,0.0,0.0,0.0,0.0,0.0,0.0,0.0,0.0,0.0,0.0,0.0,0.0,0.0,0.0,0.0,0.0,0.0,0.0,0.0,0.0,0.1862,0.3065,0.4168,0.5375,0.6379,0.7335,0.7988,0.7988,0.7988,0.7965,0.7897,0.7803,0.763,0.7614,0.7587,0.7485,0.7387,0.7333,0.721,0.593,0.4868,0.5841,0.5262,0.4949,0.6245,0.7007,0.7095,0.7095,0.7095,0.7095,0.7095,0.7095,0.7095,0.6915,0.6293,0.5489,0.5359,0.5137,0.5134,0.5312,0.6065,0.6814,0.6927,0.6877,0.6898,0.6807,0.6695,0.6566,0.6501,0.6429,0.6371,0.6323,0.6103,0.5867,0.5628,0.4608,0.3748,0.2969,0.2426,0.1802,0.1762,0.141,0.1606,0.3086,0.4256,0.4916,0.5324,0.6005,0.6221,0.6112,0.6084,0.6047,0.6023,0.5952,0.585,0.5786,0.5698,-0.1357,-0.3626,-0.6205,-0.7508,-0.7813,-0.7934,-0.7385,-0.6481,-0.6431,-0.5627,-0.442,-0.3217,-0.2766,-0.2816,-0.2415,0.0,0.0,0.0,0.0,0.0,0.0,0.0,0.0,0.0,0.0,0.0,0.0,0.0,0.0,0.0,0.0,0.0,0.0,0.0,0.0,0.0151,0.0656,0.1461,0.2867,0.4218,0.5125,0.6079,0.6731,0.7434,0.7988,0.7988,0.7988,0.7988,0.7971,0.7911,0.7865,0.7794,0.7723,0.7634,0.7526,0.7434,0.7353,0.6076,0.5449,0.6127,0.5581,0.4461,0.5755,0.7051,0.7095,0.7095,0.7095,0.7095,0.7095,0.7095,0.7095,0.7095,0.6605,0.5312,0.4688,0.4285,0.4105,0.4776,0.5534,0.6245,0.6716,0.6809,0.7014,0.6927,0.6878,0.6742,0.6593,0.6519,0.6457,0.6385,0.6323,0.6151,0.5996,0.6064,0.5667,0.4375,0.3636,0.2854,0.1918,0.1332,0.141,0.2462,0.3476,0.4217,0.5276,0.6163,0.6224,0.6207,0.6207,0.6173,0.6242,0.6197,0.604,0.5925,0.5837]}]]